[[{"header":{"parameterUnit":"m.s-1","parameterCategory":1,"la1":30.6,"la2":29.2853,"lo1":-89.7004,"lo2":-87.6739,"dy":0.0162,"dx":0.0183,"nx":112,"ny":82,"refTime":"2023-08-16T06:00:00:Z","depth":0,"parameterNumber":2,"parameterNumberName":"U-component_of_WINDS"},"data":[0.0,0.0,0.0,0.0,0.0,0.0,0.0,0.0,0.0,0.0,0.0,0.0,0.0,0.0,0.0,0.0,0.0,0.0,0.0,0.0,0.0,0.0,0.0,0.0,0.0,0.0,0.0,0.0,0.0,0.0,0.0,0.0,0.0,0.0,0.0,0.0,0.0,0.0,0.0,0.0,0.0,0.0,0.0,0.0,0.0,0.0,0.0,0.0,0.0,0.0,0.0,0.0,0.0,0.0,0.0,0.0,0.0,0.0,0.0,0.0,0.0,0.0,0.0,0.0,0.0,0.0,0.0,0.0,0.0,0.0,0.0,0.0,0.0,0.0,0.0,0.0,0.0,0.0,0.0,0.0,0.0,0.0,0.0,0.0,0.0,0.0,0.0,0.0,0.0,0.0,1.3751,1.5654,1.8629,2.1079,2.2615,2.3325,2.3873,2.4284,0.0,0.0,0.0,0.0,0.0,0.0,0.0,0.0,0.0,0.0,0.0,0.0,0.0,0.0,0.0,0.0,0.0,0.0,0.0,0.0,0.0,0.0,0.0,0.0,0.0,0.0,0.0,0.0,0.0,0.0,0.0,0.0,0.0,0.0,0.0,0.0,0.0,0.0,0.0,0.0,0.0,0.0,0.0,0.0,0.0,0.0,0.0,0.0,0.0,0.0,0.0,0.0,0.0,0.0,0.0,0.0,0.0,0.0,0.0,0.0,0.0,0.0,0.0,0.0,0.0,0.0,0.0,0.0,0.0,0.0,0.0,0.0,0.0,0.0,0.0,0.0,0.0,0.0,0.0,0.0,0.0,0.0,0.0,0.0,0.0,0.0,0.0,0.0,0.0,0.0,0.0,0.0,0.0,0.0,0.0,0.0,0.0,0.0,0.0,0.0,0.0,0.0,0.0,0.0,1.4221,1.713,1.9973,2.2122,2.3263,2.4136,2.4629,2.47,0.0,0.0,0.0,0.0,0.0,0.0,0.0,0.0,0.0,0.0,0.0,0.0,0.0,0.0,0.0,0.0,0.0,0.0,0.0,0.0,0.0,0.0,0.0,0.0,0.0,0.0,0.0,0.0,0.0,0.0,0.0,0.0,0.0,0.0,0.0,0.0,0.0,0.0,0.0,0.0,0.0,0.0,0.0,0.0,0.0,0.0,0.0,0.0,0.0,0.0,0.0,0.0,0.0,0.0,0.0,0.0,0.0,0.0,0.0,0.0,0.0,0.0,0.0,0.0,0.0,0.0,0.0,0.0,0.0,0.0,0.0,0.0,0.0,0.0,0.0,0.0,0.0,0.0,0.0,0.0,0.0,0.0,0.0,0.0,0.0,0.0,0.0,0.0,0.0,0.0,0.0,0.0,0.0,0.0,0.0,0.0,0.0,0.0,0.0,0.0,0.0,0.0,0.0,1.5615,1.6428,1.8437,2.0668,2.2419,2.3412,2.4135,2.461,2.479,2.4258,0.0,0.0,0.0,0.0,0.0,0.0,0.0,0.0,0.0,0.0,0.0,0.0,0.0,0.0,0.0,0.0,0.0,0.0,0.0,0.0,0.0,0.0,0.0,0.0,0.0,0.0,0.0,0.0,0.0,0.0,0.0,0.0,0.0,0.0,0.0,0.0,0.0,0.0,0.0,0.0,0.0,0.0,0.0,0.0,0.0,0.0,0.0,0.0,0.0,0.0,0.0,0.0,0.0,0.0,0.0,0.0,0.0,0.0,0.0,0.0,0.0,0.0,0.0,0.0,0.0,0.0,0.0,0.0,0.0,0.0,0.0,0.0,0.0,0.0,0.0,0.0,0.0,0.0,0.0,0.0,0.0,0.0,0.0,0.0,0.0,0.0,0.0,0.0,0.0,0.0,0.0,0.0,0.0,0.0,0.0,0.0,0.0,0.0,0.0,0.0,0.0,0.0,1.7208,1.8557,1.9477,2.1163,2.2599,2.35,2.408,2.4572,2.4896,2.4538,0.0,0.0,0.0,0.0,0.0,0.0,0.0,0.0,0.0,0.0,0.0,0.0,0.0,0.0,0.0,0.0,0.0,0.0,0.0,0.0,0.0,0.0,0.0,0.0,0.0,0.0,0.0,0.0,0.0,0.0,0.0,0.0,0.0,0.0,0.0,0.0,0.0,0.0,0.0,0.0,0.0,0.0,0.0,0.0,0.0,0.0,0.0,0.0,0.0,0.0,0.0,0.0,0.0,0.0,0.0,0.0,0.0,0.0,0.0,0.0,0.0,0.0,0.0,0.0,0.0,0.0,0.0,0.0,0.0,0.0,0.0,0.0,0.0,0.0,0.0,0.0,0.0,0.0,0.0,0.0,0.0,0.0,0.0,0.0,0.0,0.0,0.0,0.0,0.0,0.0,0.0,0.0,0.0,0.0,0.0,0.0,0.0,0.0,0.0,0.0,0.0,0.0,1.8163,1.9667,2.011,2.1599,2.2876,2.3708,2.4393,2.491,2.5243,2.4667,0.0,0.0,0.0,0.0,0.0,0.0,0.0,0.0,0.0,0.0,0.0,0.0,0.0,0.0,0.0,0.0,0.0,0.0,0.0,0.0,0.0,0.0,0.0,0.0,0.0,0.0,0.0,0.0,0.0,0.0,0.0,0.0,0.0,0.0,0.0,0.0,0.0,0.0,0.0,0.0,0.0,0.0,0.0,0.0,0.0,0.0,0.0,0.0,0.0,0.0,0.0,0.0,0.0,0.0,0.0,0.0,0.0,0.0,0.0,0.0,0.0,0.0,0.0,0.0,0.0,0.0,0.0,0.0,0.0,0.0,0.0,0.0,0.0,0.0,0.0,0.0,0.0,0.0,0.0,0.0,0.0,0.0,0.0,0.0,0.0,0.0,0.0,0.0,0.0,0.0,0.0,0.0,0.0,0.0,0.0,0.0,0.0,0.0,0.0,0.0,0.0,0.0,1.9119,2.0255,2.0974,2.2221,2.3204,2.3747,2.3926,2.4353,2.5235,0.0,0.0,0.0,0.0,0.0,0.0,0.0,0.0,0.0,0.0,0.0,0.0,0.0,0.0,0.0,0.0,0.0,0.0,0.0,0.0,0.0,0.0,0.0,0.0,0.0,0.0,0.0,0.0,0.0,0.0,0.0,0.0,0.0,0.0,0.0,0.0,0.0,0.0,0.0,0.0,0.0,0.0,0.0,0.0,0.0,0.0,0.0,0.0,0.0,0.0,0.0,0.0,0.0,0.0,0.0,0.0,0.0,0.0,0.0,0.0,0.0,0.0,0.0,0.0,0.0,0.0,0.0,0.0,0.0,0.0,0.0,0.0,0.0,0.0,0.0,0.0,0.0,0.0,0.0,0.0,0.0,0.0,0.0,0.0,0.0,0.0,0.0,0.0,0.0,0.0,0.0,0.0,0.0,0.0,0.0,0.0,0.0,0.0,0.0,0.0,0.0,0.0,1.8641,1.9758,2.0799,2.1668,2.2401,2.3097,2.3784,2.3406,2.3721,2.5116,0.0,0.0,0.0,0.0,0.0,0.0,0.0,0.0,0.0,0.0,0.0,0.0,0.0,0.0,0.0,0.0,0.0,0.0,0.0,0.0,0.0,0.0,0.0,0.0,0.0,0.0,0.0,0.0,0.0,0.0,0.0,0.0,0.0,0.0,0.0,0.0,0.0,0.0,0.0,0.0,0.0,0.0,0.0,0.0,0.0,0.0,0.0,0.0,0.0,0.0,0.0,0.0,0.0,0.0,0.0,0.0,0.0,0.0,0.0,0.0,0.0,0.0,0.0,0.0,0.0,0.0,0.0,0.0,0.0,0.0,0.0,0.0,0.0,0.0,0.0,0.0,0.0,0.0,0.0,0.0,0.0,0.0,0.0,0.0,0.0,0.0,0.0,0.0,0.0,0.0,0.0,0.0,0.0,0.0,0.0,0.0,0.0,0.0,0.0,0.0,0.0,0.0,1.8754,2.01,2.1274,2.204,2.2052,2.2561,2.3876,2.2974,2.3076,0.0,0.0,0.0,0.0,0.0,0.0,0.0,0.0,0.0,0.0,0.0,0.0,0.0,0.0,0.0,0.0,0.0,0.0,0.0,0.0,0.0,0.0,0.0,0.0,0.0,0.0,0.0,0.0,0.0,0.0,0.0,0.0,0.0,0.0,0.0,0.0,0.0,0.0,0.0,0.0,0.0,0.0,0.0,0.0,0.0,0.0,0.0,0.0,0.0,0.0,0.0,0.0,0.0,0.0,0.0,0.0,0.0,0.0,0.0,0.0,0.0,0.0,0.0,0.0,0.0,0.0,0.0,0.0,0.0,0.0,0.0,0.0,0.0,0.0,0.0,0.0,0.0,0.0,0.0,0.0,0.0,0.0,0.0,0.0,0.0,0.0,0.0,0.0,0.0,0.0,0.0,0.0,0.0,0.0,0.0,0.0,0.0,0.0,0.0,0.0,0.0,0.0,0.0,1.9126,2.0255,2.1397,2.2398,2.2713,2.3225,2.4134,2.2997,2.3012,2.4884,0.0,0.0,0.0,0.0,0.0,0.0,0.0,0.0,0.0,0.0,0.0,0.0,0.0,0.0,0.0,0.0,0.0,0.0,0.0,0.0,0.0,0.0,0.0,0.0,0.0,0.0,0.0,0.0,0.0,0.0,0.0,0.0,0.0,0.0,0.0,0.0,0.0,0.0,0.0,0.0,0.0,0.0,0.0,0.0,0.0,0.0,0.0,0.0,0.0,0.0,0.0,0.0,0.0,0.0,0.0,0.0,0.0,0.0,0.0,0.0,0.0,0.0,0.0,0.0,0.0,0.0,0.0,0.0,0.0,0.0,0.0,0.0,0.0,0.0,0.0,0.0,0.0,0.0,0.0,0.0,0.0,0.0,0.0,0.0,0.0,0.0,0.0,0.0,0.0,0.0,0.0,0.0,0.0,0.0,0.0,0.0,0.0,0.0,0.0,0.0,0.0,0.0,1.9277,2.0356,2.1502,2.2754,2.2788,2.3149,2.4173,2.2701,2.2482,2.4277,0.0,0.0,0.0,0.0,0.0,0.0,0.0,0.0,0.0,0.0,0.0,0.0,0.0,0.0,0.0,0.0,0.0,0.0,0.0,0.0,0.0,0.0,0.0,0.0,0.0,0.0,0.0,0.0,0.0,0.0,0.0,0.0,0.0,0.0,0.0,0.0,0.0,0.0,0.0,0.0,0.0,0.0,0.0,0.0,0.0,0.0,0.0,0.0,0.0,0.0,0.0,0.0,0.0,0.0,0.0,0.0,0.0,0.0,0.0,0.0,0.0,0.0,0.0,0.0,0.0,0.0,0.0,0.0,0.0,0.0,0.0,0.0,0.0,0.0,0.0,0.0,0.0,0.0,0.0,0.0,0.0,0.0,0.0,0.0,0.0,0.0,0.0,0.0,0.0,0.0,0.0,0.0,0.0,0.0,0.0,0.0,0.0,0.0,0.0,0.0,0.0,0.0,1.9256,2.0322,2.1546,2.2954,2.25,2.2668,2.4059,2.2365,2.1877,2.3404,0.0,0.0,0.0,0.0,0.0,0.0,0.0,0.0,0.0,0.0,0.0,0.0,0.0,0.0,0.0,0.0,0.0,0.0,0.0,0.0,0.0,0.0,0.0,0.0,0.0,0.0,0.0,0.0,0.0,0.0,0.0,0.0,0.0,0.0,0.0,0.0,0.0,0.0,0.0,0.0,0.0,0.0,0.0,0.0,0.0,0.0,0.0,0.0,0.0,0.0,0.0,0.0,0.0,0.0,0.0,0.0,0.0,0.0,0.0,0.0,1.8804,1.9095,0.0,0.0,0.0,0.0,0.0,0.0,0.0,0.0,0.0,0.0,0.0,0.0,0.0,0.0,0.0,0.0,0.0,0.0,0.0,0.0,0.0,0.0,0.0,0.0,0.0,0.0,0.0,0.0,0.0,0.0,0.0,0.0,0.0,0.0,0.0,0.0,0.0,0.0,0.0,0.0,1.891,2.0135,2.1336,2.2245,2.2698,2.3245,2.3968,2.3388,2.3121,2.3479,2.2861,0.0,0.0,0.0,0.0,0.0,0.0,0.0,0.0,0.0,0.0,0.0,0.0,0.0,0.0,0.0,0.0,0.0,0.0,0.0,0.0,0.0,0.0,0.0,0.0,0.0,0.0,0.0,0.0,0.0,0.0,0.0,0.0,0.0,0.0,0.0,0.0,0.0,0.0,0.0,0.0,0.0,0.0,0.0,0.0,0.0,0.0,0.0,0.0,0.0,0.0,0.0,0.0,0.0,0.0,0.0,0.0,0.0,0.0,0.0,1.8031,1.8604,0.0,0.0,0.0,0.0,0.0,0.0,0.0,0.0,0.0,0.0,0.0,0.0,0.0,0.0,0.0,0.0,0.0,0.0,0.0,0.0,0.0,0.0,0.0,0.0,0.0,0.0,0.0,0.0,0.0,0.0,0.0,0.0,0.0,0.0,0.0,0.0,0.0,0.0,0.0,0.0,1.9415,2.0369,2.1366,2.2289,2.2729,2.3218,2.3787,2.3399,2.3052,2.2886,2.3057,0.0,0.0,0.0,0.0,0.0,0.0,0.0,0.0,0.0,0.0,0.0,0.0,0.0,0.0,0.0,0.0,0.0,0.0,0.0,0.0,0.0,0.0,0.0,0.0,0.0,0.0,0.0,0.0,0.0,0.0,0.0,0.0,0.0,0.0,0.0,0.0,0.0,0.0,0.0,0.0,0.0,0.0,0.0,0.0,0.0,0.0,0.0,0.0,0.0,0.0,0.0,0.0,0.0,0.9045,0.9768,1.1027,1.1067,1.2336,1.4704,1.6883,1.7541,1.7137,1.7042,0.0,0.0,0.0,0.0,0.0,0.0,0.0,0.0,0.0,0.0,0.0,0.0,0.0,0.0,0.0,0.0,0.0,0.0,0.0,0.0,0.0,0.0,1.562,1.6181,1.6661,1.7357,1.8607,0.0,0.0,0.0,0.0,0.0,0.0,0.0,0.0,0.0,0.0,0.0,1.9783,2.0528,2.1366,2.2289,2.2574,2.2947,2.3566,2.3189,2.2771,2.2445,2.3329,2.364,0.0,0.0,0.0,0.0,0.0,0.0,0.0,0.0,0.0,0.0,0.0,0.0,0.0,0.0,0.0,0.0,0.0,0.0,0.0,0.0,0.0,0.0,0.0,0.0,0.0,0.0,0.0,0.0,0.0,0.0,0.0,0.0,1.1608,1.0375,0.0,0.0,0.0,0.0,0.0,0.0,0.0,0.0,0.0,0.0,0.0,0.0,0.0,0.9213,0.8758,0.8882,0.8625,0.7929,0.8079,0.8846,1.0005,1.0136,1.1471,1.3726,1.4163,0.0,1.4043,1.3271,0.0,0.0,0.0,0.0,0.0,0.0,0.0,0.0,0.0,0.0,0.0,0.0,0.0,0.0,0.0,0.0,0.0,0.0,0.0,0.0,0.0,0.0,1.5067,1.572,1.5834,1.5865,1.5952,1.635,1.6344,1.5042,1.4462,1.438,0.0,0.0,0.0,0.0,0.0,0.0,1.8486,1.9919,2.1055,2.1197,2.2096,2.2848,2.3236,2.3619,2.3673,2.3357,2.3632,2.3883,2.4014,2.3941,0.0,0.0,0.0,0.0,0.0,0.0,0.0,0.0,0.0,0.0,0.0,0.0,0.0,0.0,0.0,0.0,0.0,0.0,0.0,0.0,0.0,0.0,0.0,0.0,0.0,0.0,0.0,0.0,0.0,1.0254,0.796,0.6594,0.6716,0.7056,0.0,0.0,0.0,0.0,0.0,0.0,0.0,0.0,0.0,0.7814,0.7995,0.8143,0.8297,0.858,0.8484,0.8013,0.8307,0.8894,0.9844,1.0112,1.1308,1.3142,1.2318,1.209,1.2097,1.1639,1.0422,0.8959,0.0,0.0,0.0,0.0,1.1799,1.201,1.2763,1.3663,1.4346,1.3761,0.0,0.0,0.0,0.0,0.0,0.0,0.0,1.3851,1.4195,1.4529,1.4806,1.5116,1.5386,1.5174,1.3676,1.3501,1.3516,1.2956,1.2745,1.2915,1.3805,1.4768,0.0,0.0,0.0,1.8927,1.9335,2.0113,2.0781,2.1275,2.1786,2.2388,2.3141,2.3424,2.3484,2.3347,2.3971,2.4262,2.4036,2.4536,2.4927,0.0,0.0,0.0,0.0,0.0,0.0,0.0,0.0,0.0,0.0,0.0,0.0,0.0,0.0,0.0,0.0,0.0,0.0,0.0,0.0,0.0,0.0,0.0,0.0,0.0,0.0,0.0,0.0,0.6778,0.488,0.3173,0.3341,0.3721,0.0,0.0,0.0,0.0,0.0,0.0,0.5793,0.5638,0.5946,0.681,0.7258,0.7746,0.8255,0.8618,0.8814,0.8852,0.929,0.9904,1.0609,1.087,1.1625,1.2681,1.149,1.1032,1.107,1.0484,0.9331,0.7905,0.7865,0.7674,0.7719,0.9827,1.0792,1.1068,1.1927,1.2879,1.3397,1.1948,1.1935,1.2258,1.1161,0.0,0.0,0.0,0.0,1.3501,1.4278,1.446,1.456,1.4857,1.504,1.449,1.2178,1.1462,1.1209,1.1065,1.1207,1.1663,1.2797,1.3922,0.0,1.7158,1.7993,1.8827,1.9894,2.0184,2.0601,2.1368,2.1521,2.1905,2.2716,2.2859,2.2973,2.3117,2.3949,2.4359,2.4198,2.4956,2.5401,2.5388,0.0,0.0,0.0,0.0,0.0,0.0,0.0,0.0,0.0,0.0,0.0,0.0,0.0,0.0,0.0,0.0,0.0,0.0,0.0,0.0,0.0,0.0,0.0,0.0,0.0,0.0,0.0,0.0,0.0,0.026,0.1382,0.0,0.0,0.0,0.0,0.3013,0.3769,0.4367,0.4586,0.549,0.6294,0.7088,0.8044,0.8467,0.8365,0.9063,0.9792,1.0558,1.1241,1.1953,1.2721,1.2559,1.2434,1.2297,1.1994,1.1566,1.1003,0.9531,0.7997,0.6767,0.7678,0.7455,0.6897,0.8637,0.9806,1.0483,1.0215,1.116,1.2196,1.0647,1.0343,1.0635,1.0559,1.1126,0.0,0.0,1.2959,1.3218,1.4398,1.4255,1.4122,1.5292,1.4708,1.3479,1.2043,1.0846,0.9945,0.9446,0.9356,1.0059,1.2274,0.0,1.5267,1.664,1.85,1.9508,1.903,1.9768,2.0483,2.0991,2.1368,2.1607,2.1665,2.1926,2.2296,2.2885,2.3201,2.3884,2.4985,2.5097,2.5125,2.5126,2.2436,0.0,0.0,0.0,0.0,0.0,0.0,0.0,0.0,0.0,0.0,0.0,0.0,0.0,0.0,0.0,0.0,0.0,0.0,0.0,0.0,0.0,0.0,0.0,0.0,0.0,0.0,0.0,0.0,0.0364,0.0556,0.0,0.0492,0.2403,0.3654,0.3829,0.5408,0.6343,0.6409,0.7305,0.8277,0.9225,0.9884,1.0393,1.0868,1.1622,1.2038,1.2182,1.2682,1.3081,1.3351,1.3523,1.3365,1.3032,1.2494,1.212,1.1778,1.082,0.9562,0.8212,0.8587,0.8484,0.8413,0.9852,1.0606,1.0926,1.1039,1.118,1.106,0.97,0.9254,0.947,1.0233,1.1458,1.2699,1.3661,1.4134,1.4509,1.5463,1.506,1.4503,1.4925,1.4392,1.3443,1.2072,1.1464,1.1104,1.0973,1.0258,1.0515,1.2935,1.3793,1.4757,1.6521,1.7557,1.8313,1.8851,1.9482,2.0208,2.0926,2.1118,2.1328,2.1589,2.1707,2.1803,2.1934,2.2148,2.2532,2.3131,2.3177,2.2722,2.1774,1.7926,1.4419,0.0,0.0,0.0,0.0,0.0,0.0,0.0,0.0,0.0,0.0,0.0,0.0,0.0,0.0,0.0,0.0,0.0,0.0,0.0,0.0,0.0,0.0,0.0,0.0,0.0,0.4842,0.3295,0.1155,0.1104,0.1161,0.0858,0.2746,0.4309,0.4993,0.6979,0.8077,0.8071,0.8956,0.9851,1.063,1.1268,1.1906,1.2428,1.3271,1.3602,1.3392,1.3965,1.4127,1.4023,1.4629,1.459,1.4081,1.3766,1.3531,1.3224,1.2511,1.1696,1.0733,1.0361,1.02,1.0343,1.1516,1.181,1.1725,1.2033,1.1368,1.0392,0.9801,0.9538,0.9806,1.1258,1.2494,1.3683,1.479,1.5143,1.5282,1.5669,1.5095,1.4376,1.4376,1.392,1.316,1.2061,1.1814,1.1897,1.2255,1.1386,1.1422,1.3908,1.4376,1.5075,1.7157,1.7634,1.8124,1.907,1.9503,2.0015,2.091,2.0991,2.1021,2.1045,2.1357,2.1342,2.0771,2.1057,2.1314,2.1422,2.1078,2.0035,1.8247,1.2404,0.7782,0.4534,0.0,0.0,0.0,0.0,0.0,0.0,0.0,0.0,0.0,0.0,0.0,0.0,0.0,0.0,0.0,0.0,0.0,0.0,0.0,0.0,0.0,0.0,0.0,0.5637,0.5167,0.4219,0.2572,0.3066,0.3159,0.228,0.4621,0.6257,0.6328,0.8185,0.9367,0.939,1.0336,1.0987,1.1227,1.2214,1.2907,1.3048,1.383,1.4262,1.4271,1.5032,1.5187,1.4916,1.5976,1.6056,1.5269,1.5731,1.5633,1.5137,1.438,1.408,1.4008,1.2902,1.248,1.2524,1.334,1.3273,1.2887,1.2887,1.1614,1.0159,1.0907,1.1182,1.1529,1.3471,1.4307,1.482,1.5953,1.5841,1.53,1.4866,1.4316,1.3847,1.3836,1.3344,1.2735,1.1999,1.1841,1.2135,1.3004,1.2584,1.2737,1.4927,1.5492,1.6332,1.836,1.8797,0.0,1.9688,1.971,2.0015,2.0862,2.0959,2.0691,2.0017,2.0841,2.0798,1.9373,1.9871,2.0124,1.9891,1.8842,1.7058,1.4493,0.6053,-0.0046,-0.3594,0.0,0.0,0.0,0.0,0.0,0.0,0.0,0.0,0.0,0.0,0.0,0.0,0.0,0.0,0.0,0.0,0.0,0.0,0.0,0.0,0.0,0.8528,0.8869,0.7616,0.7315,0.7165,0.6898,0.6826,0.6756,0.6489,0.6991,0.7633,0.8398,0.9665,1.0679,1.1396,1.2137,1.307,1.4049,1.422,1.4425,1.4655,1.4945,1.51,1.51,1.5264,1.5623,1.6042,1.6352,1.652,1.645,1.606,1.5656,1.5134,1.4408,1.408,1.4063,1.3759,1.3623,1.3603,1.3568,1.3278,1.2811,1.231,1.1754,1.137,1.1769,1.2581,1.3588,1.4759,1.5901,1.6863,1.7295,1.7307,1.7085,1.6571,1.5734,1.4902,1.4359,1.375,1.328,1.3058,1.3237,1.3811,1.4932,1.4968,1.5094,1.6017,1.6754,1.7312,1.7509,1.8012,1.8432,1.8563,1.8902,1.9471,2.0382,2.0483,2.0146,1.9293,1.9179,1.8495,1.6894,1.6313,1.5745,1.5053,1.3769,1.0256,0.4265,-0.0181,-0.4029,0.0,0.0,0.0,0.0,0.0,0.0,0.0,0.0,0.0,0.0,0.0,0.0,0.0,0.0,0.0,0.0,0.0,0.0,0.0,0.0,0.0,0.0,1.0154,1.0706,1.0318,0.9748,0.9452,0.9452,0.9087,0.8963,0.9081,0.9402,0.9895,1.0672,1.189,1.2889,1.3402,1.3882,1.4561,1.543,1.5221,1.5325,1.5892,1.5576,1.5508,1.5684,1.579,1.6093,1.6539,1.7135,1.7511,1.769,1.695,1.6345,1.5843,1.4827,1.4205,1.3872,0.0,0.0,0.0,0.0,1.3076,1.2871,1.2716,1.2648,1.2706,1.3292,1.4195,1.5185,1.5903,1.6848,1.7691,1.7497,1.7522,1.7337,1.6496,1.5814,1.5157,1.445,1.4009,1.3769,1.3769,1.4156,1.4816,1.5741,1.6417,0.0,1.7324,1.7698,1.7885,1.7897,1.8058,1.8249,1.8398,1.8705,1.9251,2.0212,1.99,1.935,1.8708,1.8114,0.0,0.0,0.0,1.2922,1.0777,0.8797,0.0,0.0,0.0,-0.5242,-0.7348,-0.8449,0.0,0.0,-0.8189,-0.8088,0.0,0.0,0.0,0.0,0.0,0.0,0.0,0.0,0.0,0.0,0.0,0.0,0.0,0.0,0.0,0.0,1.1546,1.2168,1.3299,1.235,1.1401,1.1106,1.0642,1.0463,1.092,1.1838,1.2587,1.3046,1.4394,1.5267,1.5357,1.5365,0.0,0.0,0.0,1.5972,1.6764,1.594,1.5811,1.6317,1.6543,1.6768,1.697,1.8205,1.8834,1.8887,1.8063,1.7483,1.694,1.5541,1.4488,1.3793,1.4,1.3931,1.3665,1.328,1.3143,1.324,1.3752,0.0,0.0,1.5067,1.5762,1.6328,1.6863,1.7514,1.7859,1.7194,1.7122,1.6988,1.5583,1.5195,1.4996,1.436,1.4209,1.4209,1.4306,1.4848,1.5521,1.6084,1.7288,1.8319,1.8833,1.8474,1.8331,1.8921,1.8536,1.8362,1.8767,1.8759,1.9051,1.9954,1.9144,0.0,1.8037,1.7225,1.5862,1.3817,1.2926,1.082,0.7104,0.4584,0.2227,0.0054,-0.263,-0.4412,-0.512,-0.5855,-0.5855,-0.5179,-0.6944,-0.7338,0.0,0.0,0.0,0.0,0.0,0.0,0.0,0.0,0.0,0.0,0.0,0.0,0.0,0.0,0.0,1.2662,1.3796,1.4665,1.4975,1.4578,1.4126,1.3809,1.3231,1.3248,1.4223,1.3994,1.4209,1.5105,1.5204,1.5541,1.6321,1.6333,1.6683,1.7561,1.7203,1.7102,1.7252,1.6749,1.6821,1.7626,1.7701,0.0,1.9632,1.9479,1.9763,2.0249,1.9032,1.8123,1.7397,1.6518,1.5899,1.5333,1.4279,1.4348,1.5066,1.454,1.4617,1.494,1.4649,1.4525,1.473,1.5823,1.6201,1.648,1.8075,1.8573,0.0,1.8348,1.8383,1.8049,1.6599,1.5993,1.5548,1.4814,1.4658,1.4814,1.544,1.5949,1.662,1.7898,1.8401,1.8963,2.0122,1.9803,1.9345,1.9033,1.8551,1.8221,1.8305,1.7919,1.7854,1.8468,1.7955,1.716,1.6206,1.5561,1.4262,1.1981,0.9444,0.7024,0.4722,0.3661,0.216,0.0053,-0.1141,-0.2098,-0.2834,-0.3597,-0.3545,-0.289,-0.4988,-0.5277,0.0,0.0,0.0,0.0,0.0,0.0,0.0,0.0,0.0,0.0,0.0,1.0051,1.1467,0.0,1.3299,1.4343,1.5089,1.5615,1.5615,1.5399,1.5193,1.5298,1.4761,1.4899,1.6206,1.6188,1.6354,1.7014,1.7203,1.7474,1.792,1.793,1.8095,1.8291,1.792,1.7716,1.7724,1.7446,1.7684,1.8333,1.8923,1.9597,2.0393,2.0507,2.059,2.0636,1.9617,1.8773,1.8104,1.7148,1.6565,1.6256,1.5332,1.54,1.5915,1.5646,1.5706,1.5951,1.5997,1.6009,1.6103,1.6586,1.7133,1.7582,1.7421,1.813,1.8834,1.771,1.7654,1.7665,1.6595,1.5979,1.5578,1.5212,1.5098,1.5271,1.5871,1.6774,1.7676,1.8393,1.9388,2.0249,2.0611,2.0426,2.0049,1.9497,1.8957,1.8494,1.8241,1.7959,1.7712,1.7653,1.6943,1.6101,1.5232,1.3599,1.1941,1.0286,0.7888,0.5801,0.4254,0.3601,0.2555,0.114,0.0,-0.0554,-0.0555,-0.1662,-0.1607,-0.0555,-0.1708,-0.2449,0.0,0.0,0.0,0.0,0.0,0.0,0.0,0.7613,0.8706,0.9381,1.0431,1.169,1.3356,1.3868,1.4546,1.5927,1.6358,1.6567,1.6567,1.625,1.631,1.6914,1.6079,1.6073,1.7572,1.7852,1.8122,1.8603,1.9064,1.9274,1.9274,1.9274,1.9154,1.8774,1.8449,1.8368,1.8554,1.8554,1.8795,1.9414,2.0403,2.089,2.095,2.1428,2.1445,2.0972,2.0122,1.9364,1.8715,1.7623,1.7113,1.6974,1.6665,1.6673,1.6842,1.6635,1.6507,1.6567,1.7095,1.7179,1.7107,1.7345,1.8015,1.8476,1.7004,1.7879,1.8908,1.7009,1.6839,1.714,1.6435,1.5928,1.5664,1.5664,1.5664,1.5821,1.6346,1.7594,1.8644,1.8633,2.0181,2.138,2.1041,2.0857,2.0501,2.0037,1.9434,1.8801,1.826,1.8013,1.7601,1.6954,1.5919,1.5018,1.4437,1.1979,1.0086,0.9271,0.7512,0.6006,0.486,0.433,0.3561,0.2672,0.1444,0.0999,0.1332,0.0111,0.0166,0.1332,0.1332,0.0282,0.7651,0.6246,0.5077,0.4991,0.5257,0.5931,0.0,0.8696,1.0288,1.231,1.3142,1.389,1.4956,1.6271,1.7279,1.7492,1.837,1.9131,1.9131,1.8816,1.9074,2.0025,1.7705,1.6868,1.9118,1.8701,1.8661,1.9669,1.9459,1.9268,1.9268,1.9268,1.9268,1.9249,1.9181,1.9588,2.0465,2.0465,2.1083,2.2262,2.2359,2.254,2.2795,2.2359,2.2189,2.2036,2.0864,1.9835,1.898,1.8202,1.783,1.7705,1.7647,1.8023,1.8497,1.7445,1.6897,1.6785,1.7025,1.6694,1.6413,1.8031,1.8147,1.7986,1.9285,1.9401,1.8914,1.7901,1.7656,1.7544,1.6839,1.6621,1.6519,1.6519,1.6519,1.677,1.7472,1.8376,1.9211,1.9843,2.0787,2.1631,2.2058,2.1317,2.0693,2.063,1.9698,1.8807,1.8273,1.7245,1.6387,1.5844,1.4766,1.3871,1.3254,1.1352,1.0059,0.9657,0.8325,0.7202,0.6362,0.6258,0.5588,0.4207,0.3981,0.3324,0.2062,0.1895,0.1895,0.2062,0.2062,0.1955,0.7116,0.5931,0.5387,0.6114,0.7076,0.8275,0.9662,1.1024,1.2268,1.34,1.4903,1.6216,1.6643,1.7873,1.8731,1.8759,1.9191,1.9537,1.9537,1.9414,1.9761,2.0934,1.9729,1.9342,2.0828,2.059,2.048,2.0605,2.0459,2.0333,2.0042,2.0042,2.0236,2.0547,2.0557,2.0884,2.1608,2.2114,2.2636,2.3137,2.3671,2.3803,2.3592,2.3376,2.2915,2.2238,2.143,2.0556,1.9714,1.9435,1.8729,1.7838,1.8126,1.8097,1.8073,1.8123,1.8107,1.8049,1.813,1.7938,1.7746,1.8069,1.827,1.832,1.8212,1.8473,1.8573,1.7775,1.7604,1.7476,1.7174,1.6924,1.6665,1.6665,1.6665,1.686,1.7416,1.8635,1.9659,1.989,2.1295,2.2422,2.2334,2.1933,2.1394,2.0611,1.9911,1.9284,1.8744,1.7629,1.6327,1.4719,1.3797,1.3238,1.2966,1.1822,1.0888,1.0367,0.9044,0.7966,0.7289,0.6804,0.6308,0.5697,0.5245,0.4969,0.4765,0.4313,0.4368,0.4765,0.4765,0.4765,0.7745,0.7183,0.7192,0.8173,0.9609,1.0908,1.1893,1.3193,1.4218,1.4785,1.645,1.7827,1.8177,1.9199,2.0022,1.9955,2.0262,2.0499,2.0499,2.0515,2.0854,2.1667,2.1507,2.1577,2.2172,2.2021,2.1752,2.1402,2.1401,2.1253,2.0928,2.1222,2.1501,2.1783,2.2213,2.2722,2.3188,2.3847,2.4184,2.4357,2.4792,2.4738,2.4215,2.4067,2.3552,2.2749,2.2359,2.1553,2.0519,2.0659,1.9721,1.823,1.8617,1.8369,1.8035,1.8741,1.8802,1.8498,1.855,1.8436,1.8269,1.8052,1.8401,1.8668,1.7714,1.8042,1.8557,1.7813,1.7559,1.7559,1.7559,1.7324,1.709,1.709,1.7168,1.7344,1.7656,1.8864,1.9863,1.9788,2.1179,2.2372,2.2243,2.2046,2.1575,2.0565,2.0043,1.9411,1.8532,1.7272,1.5725,1.3778,1.3152,1.2881,1.2881,1.2236,1.1516,1.0864,0.9673,0.8698,0.8043,0.7509,0.7128,0.6912,0.6392,0.6284,0.6588,0.6067,0.6067,0.6588,0.6588,0.6588,1.0008,1.0353,1.0736,1.1278,1.2474,1.3619,1.382,1.4772,1.6082,1.7316,1.7632,1.8041,1.9214,2.0387,2.1293,2.1275,2.2208,2.295,2.295,2.295,2.296,2.3047,2.3038,2.3028,2.3105,2.2363,2.187,2.1878,2.1922,2.1856,2.1836,2.286,2.3166,2.2717,2.4203,2.5283,2.5656,2.5725,2.5965,2.6414,2.5816,2.531,2.4744,2.4267,2.3979,2.3954,2.3929,2.2847,2.1207,2.1756,2.086,1.9281,1.9272,1.9273,1.9254,1.9254,1.8504,1.7514,1.7726,1.7377,1.6986,1.8183,1.8575,1.8669,1.912,1.9267,1.909,1.825,1.7988,1.7988,1.7988,1.7978,1.7969,1.7969,1.8281,1.8584,1.8523,1.9261,1.9928,1.986,2.0314,2.0974,2.1791,2.1414,2.089,2.0449,1.9969,1.8955,1.7081,1.5488,1.4107,1.3017,1.2929,1.2881,1.2881,1.2236,1.1516,1.0864,1.0167,0.9458,0.8804,0.8752,0.8374,0.767,0.767,0.7289,0.6588,0.6588,0.6588,0.6588,0.6588,0.6588,1.121,1.1883,1.2813,1.392,1.5232,1.6563,1.7379,1.798,1.8388,1.8832,1.929,1.9924,2.0523,2.1456,2.2178,2.2444,2.2862,2.3135,2.3135,2.3135,2.3135,2.3135,2.3135,2.3135,2.3135,2.2881,2.2627,2.2337,2.2266,2.2526,2.292,2.3283,2.4078,2.5249,2.5831,2.6514,2.7324,2.7361,2.7207,2.7022,2.605,2.5511,2.5278,2.4755,2.4544,2.4544,2.4544,2.3851,2.2776,2.294,2.2332,2.1269,2.1575,2.1707,2.172,2.1671,2.0997,1.992,1.9062,1.8424,1.8074,1.8852,1.9023,1.9064,1.9213,1.9263,1.9203,1.8576,1.8428,1.8359,1.8086,1.8008,1.8008,1.8008,1.833,1.8562,1.8562,1.9302,1.9902,1.9902,2.0719,2.1365,2.1101,2.135,2.0941,1.9066,1.8474,1.7754,1.6396,1.5447,1.4491,1.3441,1.3047,1.2881,1.2881,1.2666,1.2039,1.0864,1.0568,0.9969,0.8857,0.8804,0.8699,0.8427,0.8427,0.8315,0.8049,0.8049,0.8049,0.8049,0.8049,0.8141,1.3655,1.4489,1.5362,1.6242,1.7311,1.8315,1.9027,1.9397,1.9579,2.0034,2.0448,2.0929,2.1771,2.2246,2.2646,2.3066,2.3018,2.2969,2.3115,2.3144,2.3144,2.3135,2.3408,2.3535,2.3389,2.3506,2.3359,2.2783,2.3057,2.353,2.3949,2.4735,2.5678,2.6811,2.7451,2.7951,2.8353,2.8387,2.815,2.7598,2.6866,2.649,2.6477,2.5937,2.5699,2.5699,2.5699,2.5093,2.4086,2.4253,2.3653,2.2689,2.2999,2.3072,2.3095,2.3105,2.2381,2.1257,2.0179,1.9374,1.8933,1.9203,1.9331,1.9287,1.9287,1.9287,1.9228,1.8955,1.876,1.8574,1.8301,1.8125,1.8008,1.8008,1.8447,1.8867,1.8867,1.9273,1.9745,2.0083,2.0577,2.0917,2.0797,2.0723,2.0018,1.8059,1.7243,1.6528,1.5625,1.5118,1.4469,1.3596,1.3135,1.2881,1.2881,1.2881,1.2412,1.1216,1.0914,1.032,0.9211,0.9159,0.9061,0.8811,0.9061,0.9061,0.8804,0.8804,0.8858,0.8965,0.8965,0.9118,1.7024,1.7862,1.8329,1.8329,1.8584,1.8919,1.8943,1.9387,2.009,2.1167,2.1144,2.1355,2.2843,2.2793,2.2685,2.3105,2.2852,2.2744,2.3144,2.3203,2.3193,2.3174,2.3887,2.4228,2.3828,2.417,2.4082,2.3262,2.4176,2.4904,2.4988,2.6942,2.7858,2.7448,2.9003,2.9528,2.8976,2.895,2.8662,2.8147,2.8122,2.8109,2.8084,2.7557,2.7306,2.7281,2.7281,2.6448,2.5123,2.566,2.4973,2.3661,2.3661,2.3599,2.3599,2.3599,2.2641,2.1345,2.0969,2.0202,1.9322,1.935,1.9355,1.9355,1.9355,1.9355,1.9346,1.9297,1.8994,1.8662,1.8613,1.8311,1.8018,1.8037,1.8682,1.9297,1.9316,1.9389,1.966,2.0471,1.9928,1.9738,2.0813,1.9632,1.822,1.7488,1.6293,1.5293,1.4873,1.4434,1.4004,1.3584,1.3164,1.29,1.2881,1.2881,1.2618,1.19,1.1242,1.0592,0.9888,0.9888,0.9577,0.891,0.951,0.9562,0.891,0.8871,0.9025,0.9239,0.9252,0.9426,1.7185,1.7787,1.8501,1.9349,1.9589,2.0004,2.1274,2.2349,2.3078,2.3277,2.3271,2.3398,2.3709,2.3338,2.3125,2.3555,2.3799,2.3965,2.4072,2.3828,2.3633,2.3623,2.3818,2.3906,2.3799,2.417,2.4326,2.4111,2.4829,2.5991,2.7739,2.7975,2.8457,2.9155,2.9549,2.9729,2.9578,2.9139,2.885,2.8712,2.8298,2.8109,2.8097,2.7959,2.767,2.7281,2.7281,2.6826,2.6107,2.6243,2.6066,2.5721,2.5721,2.5288,2.4636,2.4636,2.3447,2.1849,2.1765,2.0812,1.9808,2.0146,2.0244,2.0244,2.0244,2.0244,2.0107,1.9463,1.9209,1.8975,1.834,1.8086,1.8086,1.8408,1.8896,1.9375,1.9687,2.033,2.0803,2.0605,2.0393,2.0353,2.0676,1.9511,1.8196,1.7029,1.6365,1.5742,1.5303,1.4883,1.4453,1.4023,1.3603,1.3223,1.291,1.2881,1.2752,1.2326,1.218,1.1766,1.1068,1.1068,1.0842,1.032,1.0466,1.0466,1.0269,1.0068,0.9969,0.9995,0.9685,0.9846,1.8923,1.9297,1.974,2.0685,2.086,2.1172,2.2307,2.3361,2.4126,2.4054,2.3958,2.3927,2.4273,2.3649,2.3291,2.3721,2.3984,2.4209,2.4394,2.4209,2.4062,2.4062,2.4404,2.4492,2.4102,2.5165,2.5818,2.5944,2.6285,2.6995,2.8041,2.8769,2.9352,2.9804,2.9792,2.9792,2.9792,2.9465,2.9302,2.9302,2.9001,2.885,2.885,2.885,2.8674,2.8386,2.8386,2.8072,2.7544,2.7544,2.7394,2.718,2.667,2.6154,2.5621,2.5082,2.3805,2.2342,2.2342,2.1375,2.0244,2.0488,2.0566,2.0566,2.0566,2.0857,2.112,2.0626,2.0709,2.0678,1.9948,1.9507,1.9192,1.9163,1.939,1.9777,2.0441,2.0844,2.1066,2.1149,2.106,2.0883,2.0347,1.9127,1.7793,1.6621,1.6064,1.5693,1.5439,1.4873,1.4404,1.4107,1.376,1.334,1.291,1.3213,1.3217,1.272,1.2727,1.252,1.1965,1.2121,1.1858,1.1112,1.1379,1.1294,1.0813,1.0613,1.0501,1.0476,1.0215,1.0354,2.1128,2.1341,2.1441,2.214,2.2292,2.2332,2.2909,2.3737,2.4445,2.4523,2.4185,2.4207,2.4965,2.4231,2.3643,2.4068,2.4006,2.4102,2.4531,2.4492,2.4443,2.4492,2.5078,2.5225,2.457,2.6288,2.7633,2.7833,2.8063,2.8042,2.7572,2.9428,3.0281,2.9804,2.9792,2.9792,2.9792,2.9792,2.9792,2.9792,2.9792,2.9792,2.9792,2.9792,2.9754,2.9679,2.9512,2.911,2.8587,2.8424,2.8064,2.7558,2.6649,2.6183,2.5954,2.4993,2.3781,2.26,2.26,2.1805,2.0723,2.0605,2.0566,2.0644,2.0789,2.1375,2.2017,2.2104,2.2469,2.2756,2.217,2.1435,2.067,2.0243,2.0072,2.0362,2.1292,2.1185,2.1163,2.2036,2.1928,2.1375,2.0182,1.8764,1.7473,1.6326,1.5732,1.541,1.541,1.4766,1.4223,1.4175,1.3896,1.3506,1.3076,1.3711,1.3848,1.3174,1.3274,1.3176,1.2837,1.3149,1.286,1.1867,1.2413,1.2243,1.1217,1.1217,1.1145,1.1088,1.102,1.1134,2.2165,2.2149,2.215,2.3589,2.3874,2.4018,2.4482,2.5789,2.6738,2.624,2.6741,2.7172,2.6927,2.5852,2.5192,2.5658,2.5237,2.5,2.5449,2.4873,2.4551,2.4912,2.4463,2.4346,2.4902,2.6186,2.7199,2.7596,2.9126,2.9988,2.9979,2.9932,2.9892,2.9792,2.9792,2.9792,2.9792,2.9792,2.9792,2.9792,2.9792,2.9792,2.9792,2.9792,2.9528,2.9,2.811,2.7411,2.6856,2.5893,2.5449,2.537,2.5137,2.4591,2.3801,2.3642,2.2909,2.2004,2.2004,2.1873,2.1533,2.0801,2.0566,2.0712,2.1517,2.1886,2.2104,2.26,2.2793,2.2756,2.2319,2.1516,2.0828,2.1123,2.1167,2.124,2.1763,2.2391,2.2968,2.3515,2.318,2.231,2.0762,1.9643,1.8484,1.6842,1.5928,1.541,1.541,1.5283,1.5059,1.4707,1.4609,1.4385,1.3955,1.4,1.4228,1.4443,1.4479,1.4463,1.4395,1.4463,1.4244,1.3641,1.3748,1.3719,1.3527,1.3268,1.3102,1.3072,1.2738,1.2929,2.4173,2.3972,2.3963,2.5176,2.5287,2.5181,2.5355,2.6435,2.7257,2.6657,2.7156,2.7691,2.7715,2.6446,2.5662,2.6486,2.6045,2.5787,2.6148,2.5835,2.5817,2.6367,2.6042,2.6136,2.6946,2.8269,2.9027,2.8757,3.0091,3.0685,3.0114,2.9903,2.9792,2.9792,3.0279,3.0558,3.0558,3.0558,3.0558,3.0482,2.9998,2.9792,2.9792,2.9792,2.9641,2.9301,2.821,2.7584,2.7293,2.6155,2.5675,2.5594,2.5017,2.4527,2.4043,2.3398,2.3183,2.3083,2.3083,2.3339,2.353,2.3154,2.2372,2.1849,2.2522,2.333,2.405,2.4345,2.4802,2.4991,2.4166,2.3109,2.2176,2.2082,2.2266,2.2586,2.3072,2.3628,2.4038,2.4029,2.2911,2.1728,2.0737,1.9463,1.8193,1.7224,1.6514,1.6016,1.5781,1.5752,1.5498,1.4853,1.4785,1.4609,1.4116,1.4541,1.4697,1.4463,1.4863,1.501,1.4795,1.5,1.4912,1.4482,1.4473,1.4355,1.4077,1.3955,1.3765,1.3579,1.3409,1.3585,2.6052,2.5846,2.5735,2.682,2.6771,2.6442,2.6282,2.6959,2.7488,2.7022,2.7336,2.7801,2.833,2.7107,2.6301,2.7262,2.6835,2.6457,2.6836,2.7031,2.7271,2.7662,2.7829,2.8153,2.8869,3.026,3.0771,3.0155,3.1063,3.1085,2.9689,2.9957,3.0075,3.0075,3.097,3.1536,3.1536,3.1315,3.118,3.118,3.0279,2.9792,2.9792,2.9792,2.9792,2.9714,2.8597,2.7936,2.7683,2.6543,2.6141,2.6058,2.5126,2.4957,2.5041,2.4135,2.4165,2.4676,2.4676,2.5,2.5487,2.5487,2.4447,2.3332,2.401,2.5009,2.6055,2.6214,2.6758,2.7067,2.5959,2.4602,2.3425,2.2961,2.3084,2.3523,2.4172,2.434,2.4213,2.3654,2.2262,2.1,2.0395,1.9176,1.8072,1.752,1.7012,1.6572,1.6184,1.6125,1.5771,1.5,1.4922,1.4775,1.4434,1.5019,1.5127,1.4389,1.5039,1.5264,1.4932,1.5234,1.5254,1.4922,1.4922,1.4746,1.435,1.435,1.4286,1.4121,1.4121,1.4353,2.6909,2.6842,2.6796,2.8325,2.8649,2.845,2.8013,2.8338,2.8612,2.8063,2.8388,2.895,2.9512,2.8645,2.7998,2.8551,2.774,2.7053,2.7327,2.8061,2.8492,2.8189,2.8528,2.8959,2.9306,3.0155,3.0775,3.1056,3.2111,3.185,2.9902,3.0596,3.1031,3.1031,3.196,3.2464,3.2464,3.1609,3.118,3.118,3.0279,2.9792,2.9792,2.9792,2.9792,2.9714,2.8597,2.7522,2.6554,2.5462,2.4957,2.4957,2.4872,2.5462,2.6307,2.6224,2.6202,2.6322,2.6322,2.63,2.6349,2.6349,2.571,2.5104,2.6048,2.6403,2.668,2.7631,2.7585,2.7101,2.6082,2.4626,2.3503,2.3458,2.3072,2.3153,2.446,2.3778,2.2707,2.2181,2.1928,2.1307,1.9683,1.9574,1.9174,1.7625,1.7012,1.6572,1.6184,1.6125,1.5879,1.54,1.5352,1.5342,1.5293,1.5361,1.5381,1.5303,1.5371,1.5391,1.5352,1.5391,1.5391,1.5352,1.5352,1.5332,1.5293,1.5293,1.5459,1.5877,1.5877,1.6311,2.9479,2.977,3.0061,3.0923,3.0453,2.9637,2.9041,2.8686,2.8373,2.8147,2.8549,2.9101,2.9691,2.8858,2.8155,0.0,0.0,0.0,2.7161,2.7568,2.824,2.9398,2.9696,3.0279,3.1553,3.1968,3.2288,3.2693,3.3177,3.3224,3.2747,3.2293,3.2196,3.2622,3.3577,3.4002,3.4002,3.3146,3.2459,3.2033,3.0495,2.9792,2.9792,2.9792,2.9792,2.9714,2.8597,2.7844,2.736,2.6295,2.5797,2.5797,2.5797,2.6141,2.6483,2.6483,2.6883,2.7441,2.7441,2.7867,2.8462,2.8462,2.8264,2.7915,2.7633,2.7726,2.7964,2.805,2.7946,2.7391,2.5757,2.4403,2.3514,2.3514,2.3815,2.4413,2.5567,2.4834,2.3882,2.3673,2.2708,2.169,2.0974,2.0549,1.9918,1.8709,1.8369,1.7809,1.6615,1.6465,1.6191,1.5488,1.541,1.541,1.541,1.541,1.5527,1.5781,1.5557,1.5654,1.6182,1.5693,1.5537,1.5801,1.5547,1.541,1.541,1.541,1.5498,1.5684,1.5998,1.6396,3.1434,3.1904,3.2267,3.2561,3.167,3.0535,2.9654,2.8853,2.8172,2.8145,2.8411,2.8913,2.9654,2.9106,2.8518,0.0,0.0,2.7016,2.7227,2.7669,2.8499,3.0158,3.0853,3.1663,3.2707,3.3265,3.37,3.407,3.4446,3.4886,3.526,3.4439,3.4129,3.4265,3.5078,3.527,3.5033,3.3902,3.2949,3.2177,3.0558,2.9792,2.9792,2.9792,2.9624,2.9275,2.8767,2.8267,2.7602,2.7128,2.6964,2.6964,2.6964,2.7209,2.7476,2.7476,2.7947,2.8597,2.8597,2.9106,2.9792,2.9792,2.9792,2.9599,2.8651,2.859,2.885,2.8461,2.7877,2.6956,2.5075,2.4036,2.3514,2.3514,2.4149,2.5059,2.5984,2.5137,2.4171,2.4171,2.2953,2.1815,2.1565,2.1239,2.0719,1.9814,1.9683,1.9028,1.7332,1.7206,1.6822,1.5753,1.5605,1.5605,1.5605,1.5605,1.5732,1.6105,1.5898,1.6025,1.6514,1.6064,1.5947,1.625,1.5957,1.5801,1.5801,1.5801,1.5869,1.6006,1.6309,1.6689,3.2321,3.2607,3.2607,3.2593,3.2081,3.1198,2.9794,2.899,2.8395,2.8116,2.8109,2.8461,2.9578,2.9792,2.9443,2.8255,2.8096,0.0,2.776,2.8877,2.9855,3.0182,3.1896,3.2842,3.2277,3.3743,3.4738,3.469,3.6008,3.6798,3.679,3.7131,3.6946,3.5971,3.6286,3.6029,3.5033,3.341,3.2105,3.118,3.0279,2.9792,2.9792,2.9792,2.9197,2.8176,2.9275,2.8542,2.6565,2.7683,2.8084,2.8084,2.8084,2.8767,2.9792,2.9792,2.9792,2.9792,2.9792,2.9792,2.9792,2.9792,2.9792,2.9691,2.9114,2.8938,2.8925,2.8925,2.7409,2.5477,2.3931,2.3514,2.3514,2.3514,2.3883,2.445,2.5398,2.4071,2.2726,2.2726,2.2309,2.1628,2.0782,2.1302,2.1616,2.0719,2.059,1.9979,1.8235,1.8323,1.7936,1.6264,1.6115,1.6115,1.6115,1.6115,1.6115,1.6125,1.6475,1.6523,1.6145,1.6484,1.6719,1.6665,1.6719,1.6719,1.6719,1.6719,1.6943,1.7363,1.7363,1.7598,3.1965,3.25,3.2862,3.3122,3.2241,3.1183,3.0791,2.9236,2.8142,2.8859,2.8507,2.8448,2.9578,2.9792,2.9443,2.8267,2.8096,2.8042,2.7953,2.9047,3.0218,3.1429,3.2785,3.372,3.3884,3.4422,3.5279,3.6697,3.72,3.7816,3.856,3.8251,3.7739,3.6961,3.6461,3.5776,3.5033,3.3179,3.195,3.118,3.0279,2.9792,2.9792,2.9792,2.9624,2.9287,2.9624,2.9378,2.8791,2.9118,2.9275,2.9238,2.8842,2.9108,2.9741,2.9352,2.9453,2.9792,2.9792,2.9792,2.9792,2.9792,2.9792,2.9679,2.9101,2.8925,2.8775,2.8009,2.66,2.5135,2.4671,2.4564,2.4564,2.4564,2.5168,2.5723,2.5607,2.4838,2.4035,2.3665,2.3146,2.2628,2.2372,2.2567,2.2445,2.1616,2.1491,2.0996,1.951,1.9441,1.9175,1.836,1.7764,1.7043,1.6145,1.5791,1.5879,1.6484,1.6084,1.6172,1.6934,1.6523,1.6416,1.6665,1.6436,1.6426,1.6665,1.6426,1.666,1.7383,1.7383,1.7607,0.0,3.2844,3.3176,3.3466,3.2306,3.1099,3.0848,2.9159,2.7786,2.8004,2.7751,2.7679,2.8161,2.8409,2.8291,2.7614,2.7522,2.7672,2.8357,2.9392,3.0931,3.3202,3.3862,3.4474,3.518,3.5634,3.6434,3.7735,3.8193,3.8541,3.8979,3.8657,3.7774,3.6537,3.5921,3.5281,3.4455,3.2711,3.1412,3.0696,3.0075,2.9792,2.9792,2.9792,2.9534,2.9197,2.9624,2.9546,0.0,2.9387,2.9465,2.9415,2.8837,2.8837,2.9114,2.875,2.885,2.9189,2.939,2.9465,2.9465,2.9465,2.9189,2.8775,2.8411,2.831,2.8122,2.7218,2.6284,2.5441,2.5087,2.53,2.5441,2.5075,2.5734,2.6302,2.5724,2.5197,2.4657,2.4104,2.3527,2.3078,2.3078,2.3078,2.2944,2.2445,2.2384,2.1872,2.0534,2.0577,2.0305,1.9321,1.8624,1.7812,1.6819,1.6236,1.6221,1.6934,1.6309,1.6279,1.7109,1.6768,1.6689,1.6973,1.6699,1.6777,1.7217,1.6934,1.708,1.7627,1.7627,1.7764,0.0,3.3227,3.3289,3.3289,3.2141,3.084,3.009,2.8689,0.0,2.613,2.6158,2.6212,2.5882,2.6195,2.6521,2.6637,2.6637,2.7136,2.8797,3.0121,3.2042,3.5086,3.5234,3.5365,3.622,3.7241,3.7883,3.7973,3.8826,3.9035,3.8462,3.8287,3.7227,3.5062,3.4836,3.4314,3.3436,3.1877,3.062,2.9792,2.9792,2.9792,2.9792,2.9792,2.9197,2.8255,2.9365,2.9197,2.8219,2.8795,2.8988,2.8938,2.8335,2.8134,2.816,2.8072,2.8097,2.8235,2.875,2.8925,2.8925,2.8888,2.8147,2.7281,2.7281,2.7256,2.7118,2.6603,2.6533,2.6314,2.537,2.5804,2.6233,2.53,2.5804,2.6289,2.5674,2.5159,2.4644,2.4054,2.3502,2.3078,2.3078,2.3078,2.3078,2.3078,2.3078,2.2698,2.1512,2.1703,2.1313,1.9553,1.9011,1.8543,1.805,1.7179,1.6904,1.7314,1.6924,1.668,1.668,1.7109,1.7324,1.7295,1.7324,1.7539,1.7969,1.7969,1.7969,1.7969,1.7998,1.7988,2.9666,0.0,3.1035,3.1035,3.0264,2.9463,0.0,2.7881,2.6658,2.6793,0.0,2.5009,2.5644,2.5902,2.6347,2.7544,2.7683,2.8286,2.9936,3.2604,3.4638,3.5287,3.6884,3.7883,3.744,3.8114,3.8939,3.9713,3.9058,3.8536,3.8385,3.6783,3.5514,3.5001,3.3079,3.1957,3.1736,3.0698,2.9998,2.9792,2.9792,2.9792,2.9792,2.9792,2.9624,2.9456,2.9702,2.9624,2.9431,2.9564,2.9591,2.949,2.8499,2.836,2.8637,2.7783,2.8009,2.875,2.8888,2.8925,2.8863,2.8436,2.7833,2.7281,2.7281,2.6979,2.6697,2.6559,2.6533,2.6465,2.6233,2.6314,2.6452,2.6164,2.6314,2.6189,2.5222,2.4908,2.4531,2.3527,2.3226,2.3078,2.3078,2.3078,2.3078,2.3078,2.3078,2.2967,2.271,2.2737,2.2664,2.2212,2.0973,2.0048,1.9938,1.7965,1.6777,1.6885,1.6465,1.6221,1.6221,1.665,1.6728,1.6439,1.6709,1.71,1.7529,1.7529,1.7529,1.7539,1.7861,1.7842,2.8136,2.8996,2.969,2.969,2.8693,2.7841,2.8298,0.0,0.0,0.0,0.0,2.3643,2.3917,2.4143,2.5005,2.7036,2.7557,2.8962,3.237,3.4158,3.5726,3.7474,3.8353,3.8925,3.8996,3.9318,3.9545,3.9505,3.8822,3.8159,3.7534,3.5933,3.4663,3.3944,3.2169,3.118,3.118,3.0279,2.9792,2.9792,2.9792,2.9792,2.9792,2.9792,2.9792,2.9792,2.9792,2.9792,2.9779,2.9503,2.9402,2.9315,2.8448,2.8134,2.8097,2.7507,2.7494,2.7871,2.8373,2.8549,2.8499,2.8197,2.7557,2.6904,2.6904,2.6703,2.6533,2.6533,2.6533,2.6533,2.6533,2.6533,2.6458,2.6126,2.6264,2.6163,2.5059,2.482,2.4556,2.3703,2.3314,2.3078,2.3078,2.3078,2.3078,2.3078,2.3078,2.3078,2.3078,2.3078,2.3037,2.2786,2.1463,2.0501,2.0202,1.841,1.7324,1.7324,1.6523,1.6311,1.665,1.6709,1.6709,1.667,1.71,1.7236,1.709,1.7285,1.7383,1.7393,1.7617,1.7705,2.7013,2.7878,2.8665,2.84,2.7155,2.6189,2.687,0.0,0.0,0.0,0.0,0.0,2.1961,2.2227,2.3412,2.6163,2.747,2.9964,3.4914,3.5405,3.6483,3.9828,3.9683,3.9491,4.0217,4.0367,3.9921,3.8642,3.8342,3.7659,3.632,3.5252,3.3917,3.2407,3.1462,3.097,3.097,3.0216,2.9792,2.9792,2.9792,2.9792,2.9792,2.9792,2.9792,2.9792,2.9792,2.9792,2.9754,2.9264,2.9063,2.9001,2.8448,2.7946,2.7507,2.7344,2.7042,2.6829,2.7682,2.7752,2.7581,2.7798,2.7064,2.6082,2.6233,2.6245,2.6245,2.6245,2.6245,2.6314,2.6452,2.6383,2.6164,2.5737,2.6038,2.6138,2.4946,2.4757,2.4632,2.3991,2.3477,2.3078,2.3078,2.3078,2.3078,2.3078,2.3078,2.3078,2.3078,2.3078,2.289,2.2309,2.1284,2.0348,1.9662,1.8619,1.8008,1.8008,1.6914,1.6602,1.7353,1.6963,1.6973,1.7471,1.7705,1.7519,1.6934,1.7236,1.7383,1.7383,1.7451,1.7637,2.5317,2.6388,2.7259,2.5775,2.5014,2.4525,2.4198,0.0,0.0,0.0,0.0,0.0,0.0,2.2227,2.3513,2.6701,3.0048,3.3167,3.5976,3.7456,3.8502,3.8918,4.0642,4.122,3.9668,4.0039,4.0106,3.929,3.8182,3.6852,3.5299,3.3804,3.2475,3.1462,3.0482,2.9998,2.9998,2.9856,2.9792,2.9792,2.9792,2.9792,2.9792,2.9792,2.9792,2.9792,2.9792,2.9792,2.9779,2.9691,2.9666,2.9603,2.9026,2.875,2.8561,2.762,2.7519,2.7808,2.7507,2.6336,2.5124,2.6337,2.5479,2.4108,2.4992,2.5229,2.5229,2.5229,2.5229,2.5441,2.6314,2.5873,2.5296,2.5523,2.6038,2.6038,2.4469,2.4494,2.4506,2.3464,2.3128,2.3078,2.3078,2.3078,2.3078,2.3078,2.3078,2.3078,2.3078,2.3078,2.2798,2.2017,2.1118,2.0235,1.9456,1.8546,1.8008,1.8008,1.749,1.7236,1.7373,1.6963,1.7109,1.79,1.7266,1.7217,1.7812,1.7529,1.7383,1.7393,1.7744,1.7764,2.4541,2.5382,2.5995,2.4459,2.423,2.4143,2.3599,0.0,0.0,0.0,0.0,0.0,2.2148,2.3143,2.5126,2.8936,3.229,3.509,3.7074,3.8218,3.9237,4.0044,4.0845,4.095,4.004,3.9888,3.9448,3.8407,3.7449,3.6395,3.531,3.355,3.2393,3.196,3.0558,2.9792,2.9792,2.9792,2.9792,2.9792,2.9792,2.9792,2.9792,2.9792,2.9792,2.9792,2.9792,2.9792,2.9792,2.9792,2.9792,2.9767,2.9503,2.9202,2.88,2.7695,2.712,2.6846,2.6589,2.5521,2.4435,2.5116,2.4472,2.3588,2.4036,2.4192,2.4192,2.4192,2.4992,2.5955,2.6383,2.6164,2.5807,2.5657,2.5799,2.5787,2.5021,2.4607,2.4393,2.4456,2.374,2.3178,2.3552,2.3339,2.3078,2.3078,2.3078,2.3078,2.3078,2.3078,2.2823,2.2013,2.1553,2.0782,1.9431,1.9365,1.8874,1.7752,1.7705,1.7627,1.7393,1.7412,1.7607,1.8008,1.7627,1.751,1.7666,1.748,1.7383,1.7393,1.7578,1.7686,2.4129,2.4964,2.5444,2.401,0.0,2.3873,2.342,0.0,0.0,0.0,0.0,0.0,2.2854,2.4682,2.7249,3.0683,3.3792,3.6414,3.7978,3.8833,3.9746,4.1249,4.0801,4.0277,3.9963,3.9469,3.8631,3.73,3.6746,3.6111,3.5177,3.3547,3.2536,3.2321,3.0633,2.9792,2.9792,2.9792,2.9792,2.9792,2.9792,2.9792,2.9792,2.9792,2.9792,2.9792,2.9792,2.9792,2.9792,2.9792,2.9792,2.9779,2.9641,2.9164,2.8362,2.7354,2.6202,2.526,2.526,2.4448,2.3471,2.3924,2.353,2.285,2.3073,2.3147,2.322,2.3441,2.4767,2.6164,2.6164,2.6164,2.6027,2.567,2.5699,2.5724,2.5473,2.487,2.4582,2.5285,2.4293,2.3477,2.3916,2.3514,2.3078,2.3078,2.3078,2.3078,2.3078,2.3078,2.2823,2.2013,2.1984,2.1475,1.992,2.0249,1.9716,1.7935,1.7957,1.7871,1.7539,1.7842,1.8008,1.8008,1.8008,1.7852,1.7529,1.7529,1.7529,1.7529,1.7529,1.7705,2.4029,2.5234,2.6071,2.4536,2.3595,0.0,2.2796,2.1622,0.0,2.1752,0.0,0.0,2.4033,2.7042,2.9687,3.0513,3.3941,3.7029,3.8709,3.9867,4.0735,4.1368,4.0801,3.9903,3.8646,3.8497,3.7928,3.6656,3.6507,3.5815,3.4206,3.3171,3.2177,3.1315,3.0355,2.9792,2.9792,2.9792,2.9792,2.9792,2.9792,2.9792,2.9792,2.9792,2.9792,2.9792,2.9792,2.9792,2.9792,2.9792,2.9792,2.9741,2.9202,2.8335,2.731,2.6299,2.4996,2.3644,2.3644,2.2467,2.1128,2.2979,2.2295,2.0934,2.1811,2.2103,2.2328,2.322,2.4264,2.5087,2.5087,2.5087,2.5155,2.5523,2.6013,2.6113,2.5096,2.5197,2.536,2.4958,2.4368,2.3954,2.3991,2.3514,2.3078,2.3078,2.3078,2.3078,2.3078,2.3078,2.2823,2.2013,2.2381,2.2268,2.134,2.0539,1.9874,1.9212,1.8442,1.7998,1.7969,1.7988,1.8008,1.8008,1.8008,1.7998,1.7969,1.7969,1.7969,1.7969,1.7969,1.7978,2.3803,2.4933,2.5882,2.5679,2.5157,0.0,0.0,2.3513,2.3559,2.4213,2.5044,0.0,2.6903,2.8878,3.0931,3.2807,3.561,3.7964,3.9194,4.0394,4.1,4.0771,4.0187,3.9424,3.8482,3.7674,3.7015,3.6522,3.6103,3.5612,3.5001,3.4027,3.3031,3.2105,3.1193,3.0419,2.9792,2.9792,2.9792,2.9792,2.9792,2.9792,2.9792,2.9792,2.9792,2.9792,2.9792,2.9591,2.9289,2.9641,2.9377,2.8637,2.7777,2.7223,2.6661,2.564,2.4502,2.3302,2.3101,2.2288,2.1499,2.1903,2.1587,2.1056,2.143,2.1753,2.2103,2.2478,2.3745,2.5146,2.5734,2.5955,2.5963,2.6108,2.6025,2.5812,2.5385,2.5197,2.5146,2.5272,2.4607,2.4104,2.4456,2.4042,2.3552,2.3188,2.3439,2.354,2.3175,2.3452,2.3344,2.2492,2.236,2.2535,2.2955,2.1727,2.0654,2.0172,1.8787,1.8008,1.8008,1.8008,1.8008,1.8008,1.8008,1.8008,1.8008,1.8008,1.8008,1.8008,1.8008,1.8008,2.369,2.4657,2.5523,2.6345,0.0,0.0,2.5796,2.5333,2.5184,2.5914,2.6563,2.7476,2.8907,3.0413,3.2001,3.3881,3.6538,3.8587,3.9255,4.0327,4.0831,4.0172,3.9499,3.8751,3.7868,3.7,3.6402,3.6193,3.5759,3.5504,3.5504,3.4259,3.3241,3.2593,3.1402,3.0419,2.9792,2.9792,2.9792,2.9792,2.9792,2.9792,2.9792,2.9792,2.9792,2.9792,2.9792,2.9566,2.9214,2.9428,2.87,2.7311,2.6779,2.6217,2.5645,2.4781,2.396,2.32,2.268,2.217,2.1816,2.1377,2.123,2.1201,2.1362,2.1696,2.2103,2.2776,2.3963,2.5229,2.6245,2.6533,2.6533,2.6533,2.6013,2.5649,2.5824,2.5448,2.5172,2.5523,2.5008,2.4519,2.4556,2.4243,2.3866,2.3464,2.359,2.3653,2.3439,2.359,2.3654,2.3405,2.3297,2.3525,2.4166,2.2912,2.1747,2.1083,1.9628,1.8721,1.8395,1.8395,1.8395,1.8395,1.8134,1.8008,1.8008,1.8008,1.8008,1.8008,1.8269,1.8395,2.369,2.4406,2.5084,0.0,0.0,0.0,2.8674,2.693,2.5284,2.6352,2.736,2.8426,2.9611,3.1578,3.3013,3.3013,3.6275,3.875,3.8828,3.9725,4.0127,3.9484,3.8796,3.7883,3.6611,3.6477,3.6207,3.5549,3.5504,3.5504,3.5504,3.3685,3.2593,3.2593,3.0784,2.9792,2.9792,2.9792,2.9792,2.9792,2.9792,2.9792,2.9792,2.9779,2.9779,2.9779,2.9779,2.9779,2.9729,2.9151,2.7705,2.5874,2.6273,2.5553,2.4104,2.3562,2.3252,2.3182,2.2195,2.1894,2.1826,2.1387,2.124,2.1312,2.1814,2.2038,2.2403,2.442,2.5004,2.5229,2.6245,2.6533,2.6533,2.6533,2.6013,2.5762,2.6327,2.6,2.5598,2.5598,2.5598,2.5247,2.4192,2.4004,2.4004,2.4004,2.3527,2.3364,2.3941,2.3514,2.3528,2.472,2.5297,2.5385,2.487,2.3989,2.3048,2.1949,2.1112,2.0204,1.9365,1.9299,1.9299,1.9299,1.8462,1.8008,1.8008,1.8008,1.8008,1.8008,1.8911,1.9299,2.3667,2.3922,2.4408,2.6514,0.0,0.0,0.0,2.8323,0.0,0.0,2.904,2.9574,3.062,3.1585,3.2747,3.4147,3.5738,3.7012,3.7691,3.8061,3.8227,3.8033,3.7434,3.6911,3.6522,3.6073,3.5714,3.5519,3.5504,3.5504,3.5504,3.4259,3.331,3.2593,3.1402,3.0482,2.9792,2.9792,2.9792,2.9792,2.9792,2.9792,2.9779,2.9365,2.9189,2.9164,2.8775,2.8386,2.7984,2.7419,2.7076,2.6756,2.5413,2.4765,2.4437,2.3186,2.2904,2.3123,2.2506,2.2519,2.2646,2.1924,2.1689,2.1765,2.2366,2.2746,2.3294,2.4636,2.5523,2.6094,2.6383,2.6533,2.6533,2.6533,2.6327,2.6138,2.59,2.6038,2.6088,2.5674,2.531,2.5071,2.5121,2.482,2.4569,2.4569,2.4745,2.4921,2.5096,2.4971,2.5146,2.5887,2.5749,2.5385,2.487,2.4201,2.3264,2.1987,2.2187,2.1729,2.0268,2.0204,1.9955,1.9299,1.9044,1.8596,1.8008,1.8586,1.8911,1.8911,1.9824,2.0204,2.3717,2.3986,2.4511,2.6726,2.7444,2.8028,2.95,2.9817,2.9982,3.0768,3.0921,3.1057,3.1683,3.2508,3.3578,3.4809,3.5807,3.6681,3.7336,3.7404,3.7315,3.7075,3.6716,3.6387,3.6118,3.5744,3.5504,3.5504,3.5504,3.5359,3.492,3.3973,3.3031,3.2105,3.1119,3.0343,2.9792,2.9566,2.9453,2.9453,2.9227,2.9126,2.9114,2.8988,2.8925,2.8913,2.8574,2.8122,2.7607,2.7494,2.7267,2.6846,2.5383,2.4703,2.4384,2.2624,2.2195,2.2277,2.1586,2.1475,2.1664,2.1466,2.1419,2.1556,2.2457,2.2915,2.3475,2.4622,2.5441,2.6025,2.6383,2.6714,2.6905,2.6589,2.6289,2.6211,2.6406,2.655,2.6537,2.6178,2.6024,2.5804,2.5375,2.5197,2.5252,2.5563,2.6207,2.6374,2.5537,2.5819,2.6153,2.6359,2.5927,2.5297,2.4556,2.4192,2.3555,2.2482,2.2823,2.2628,2.1604,2.1302,2.0846,2.0333,2.0009,1.9562,1.9044,1.9562,1.9814,1.9824,2.0719,2.1101,2.4067,2.448,2.5165,2.7005,2.7918,2.8928,3.1003,3.1462,3.1669,3.2464,3.2593,3.2593,3.2749,3.3917,3.4946,3.503,3.6247,3.724,3.724,3.724,3.703,3.6462,3.6402,3.6163,3.5564,3.5504,3.5504,3.5504,3.5439,3.4986,3.4027,3.3031,3.2078,3.1175,3.0203,2.9768,2.9782,2.9114,2.885,2.8912,2.8335,2.8109,2.8122,2.8574,2.875,2.8699,2.875,2.8461,2.7996,2.8612,2.7964,2.6578,2.5893,2.5076,2.4075,2.2011,2.1293,2.1114,1.9943,1.9497,1.9612,2.0307,2.0602,2.0851,2.218,2.2621,2.2947,2.449,2.5004,2.5274,2.6233,2.7113,2.7525,2.6841,2.627,2.6253,2.7552,2.7444,2.7072,2.7022,2.7327,2.7026,2.5252,2.5322,2.5917,2.6737,2.761,2.7509,2.5701,2.6432,2.6874,2.6405,2.5962,2.5327,2.4343,2.4167,2.3828,2.3251,2.3153,2.3188,2.3078,2.2322,2.1877,2.1877,2.1037,2.059,2.059,2.0655,2.0719,2.0719,2.1616,2.2002,2.5627,2.5179,2.5071,2.7888,2.9548,3.101,3.2961,3.338,3.3241,3.2749,3.2593,3.282,3.3533,3.3991,3.4448,3.5259,3.5672,3.5908,3.5908,3.5908,3.5863,3.5729,3.5714,3.5669,3.5519,3.5504,3.5504,3.5504,3.4758,3.4245,3.4027,3.2393,3.1189,3.0619,2.9615,2.9249,2.9503,2.8689,2.8626,2.9295,2.8499,2.8109,2.8097,2.777,2.7394,2.7017,2.7444,2.7318,2.6892,2.7871,2.7801,2.7015,2.6003,2.548,2.4946,2.2263,2.1293,2.1114,1.9943,1.9497,1.943,1.9246,1.9627,2.0316,2.1089,2.1653,2.2456,2.3956,2.4764,2.5373,2.5884,2.701,2.7863,2.7737,2.7994,2.8329,2.8657,2.8652,2.8366,2.7669,2.7287,2.687,2.6266,2.5824,2.5838,2.6647,2.7471,2.7886,2.7428,2.8042,2.8502,2.8379,2.7307,2.6517,2.6282,2.5243,2.4406,2.3853,2.3816,2.3602,2.309,2.2322,2.1877,2.1877,2.1037,2.059,2.059,2.1302,2.1616,2.1628,2.2445,2.2823,2.5882,2.5729,2.6025,2.8924,3.1109,3.282,3.3808,3.4394,3.4558,3.4124,3.3973,3.4124,3.4624,3.4691,3.4905,3.5424,3.5504,3.5504,3.5504,3.5504,3.5504,3.5504,3.5504,3.5504,3.5504,3.5504,3.5504,3.5504,3.4986,3.4543,3.4027,3.3101,3.2047,3.098,3.0466,3.0103,3.0008,2.9244,2.9111,2.9564,2.8434,2.7717,2.7318,2.7293,2.6979,2.6559,2.7042,2.7268,2.7318,2.816,2.8499,2.8301,2.669,2.5998,2.5601,2.1794,2.0486,2.0206,1.8395,1.7755,1.7795,1.799,1.8635,1.947,1.9859,2.0898,2.2179,2.3364,2.4293,2.5126,2.6131,2.7294,2.8141,2.8141,2.86,2.9045,2.9125,2.913,2.8884,2.8008,2.7638,2.7243,2.6625,2.6618,2.681,2.6894,2.826,2.894,2.8288,2.9064,2.929,2.8401,2.7817,2.7023,2.5765,2.5517,2.4873,2.364,2.3841,2.374,2.3103,2.2322,2.2063,2.2445,2.2051,2.1803,2.1803,2.2249,2.2445,2.2506,2.2884,2.3078,2.5975,2.6653,2.7895,3.041,3.2528,3.4027,3.4245,3.4905,3.5504,3.5504,3.5504,3.5504,3.5504,3.5504,3.5504,3.5504,3.5504,3.5504,3.5504,3.54,3.5325,3.5325,3.5235,3.5205,3.5325,3.5325,3.5385,3.5489,3.5359,3.4905,3.4027,3.3708,3.2998,3.1654,3.153,3.1185,3.0713,3.0149,2.9845,2.9864,2.8527,2.7604,2.693,2.7391,2.7283,2.6752,2.7297,2.7683,2.8075,2.872,2.9151,2.9135,2.7105,2.6349,2.5832,2.1398,1.9852,1.948,1.7145,1.6303,1.6427,1.7342,1.8298,1.9076,1.9512,2.0811,2.231,2.3199,2.4087,2.5133,2.6689,2.7797,2.849,2.849,2.8781,2.9177,2.9333,2.9349,2.9043,2.8061,2.7714,2.729,2.6371,2.7101,2.7671,2.7138,2.8914,2.9867,2.8618,2.9552,2.9697,2.8028,2.7949,2.7166,2.4994,2.5559,2.5234,2.3351,2.3816,2.3841,2.3103,2.2555,2.2616,2.3305,2.3005,2.3005,2.3305,2.3305,2.3365,2.3471,2.3471,2.3471,2.7507,2.9147,3.1063,3.3058,3.3751,3.4245,3.5133,3.5424,3.5504,3.5504,3.5504,3.5504,3.5504,3.5504,3.5504,3.5504,3.5504,3.5504,3.5504,3.4996,3.4607,3.4607,3.4113,3.3993,3.4562,3.4607,3.4861,3.5459,3.4691,3.4163,3.4027,3.2665,3.1848,3.1778,3.1198,3.095,3.1103,3.0381,3.0087,3.0201,2.9296,2.8748,2.8684,2.8766,2.8314,2.7577,2.8127,2.814,2.7852,2.8926,2.8653,2.7478,2.6196,2.573,2.537,2.2186,2.1025,2.0792,1.9036,1.8393,1.8499,1.9187,1.9624,2.0146,2.1678,2.2473,2.3073,2.4178,2.5396,2.6537,2.7173,2.8348,2.9357,2.9357,2.9433,2.9514,2.955,2.9535,2.9104,2.7614,2.6572,2.5724,2.5096,2.6215,2.6964,2.6387,2.8277,2.946,2.8696,2.9669,3.016,2.9411,2.8111,2.7161,2.6868,2.6112,2.5151,2.3954,2.4406,2.4243,2.3115,2.3649,2.4047,2.4118,2.2786,2.2738,2.4118,2.4118,2.4452,2.5119,2.5119,2.5119,2.9273,3.0949,3.2597,3.3722,3.4394,3.4986,3.5424,3.5504,3.5504,3.5504,3.5504,3.5504,3.5504,3.5504,3.5385,3.4996,3.4936,3.4801,3.4427,3.4128,3.3918,3.3918,3.3993,3.4158,3.4442,3.4831,3.5175,3.5489,3.5067,3.4677,3.4295,3.358,3.2905,3.2182,3.1893,3.1631,3.1367,3.0991,3.0664,3.0329,3.0389,2.9889,2.9002,2.9504,2.9254,2.8441,2.8685,2.8847,2.8903,2.8875,2.8726,2.8234,2.6135,2.5395,2.5238,2.2083,2.1526,2.2017,2.0563,2.0333,2.0729,2.1274,2.1459,2.1596,2.2461,2.3287,2.4227,2.5676,2.6557,2.7402,2.8801,2.9057,2.896,2.896,2.8712,2.8457,2.8457,2.8462,2.7975,2.6344,2.5571,2.5229,2.5503,2.6094,2.6942,2.7965,2.8611,2.9071,2.9146,2.9939,3.0118,2.9131,2.9356,2.8827,2.6895,2.7311,2.6653,2.4305,2.5035,2.521,2.4421,2.4724,2.4894,2.4894,2.4239,2.4239,2.4894,2.4894,2.5063,2.5398,2.5398,2.5398,3.0787,3.2127,3.3396,3.4167,3.492,3.5504,3.5504,3.5504,3.5504,3.5504,3.5504,3.5504,3.5504,3.5355,3.5026,3.4337,3.4233,3.4053,3.3559,3.335,3.3245,3.3245,3.3529,3.3784,3.3963,3.4442,3.4816,3.4981,3.5145,3.4951,3.4262,3.4233,3.3784,3.2796,3.2602,3.2273,3.1735,3.1556,3.1219,3.0584,3.1219,3.0837,2.9704,3.07,3.0626,2.9628,2.9442,2.9652,3.0067,2.9052,2.8743,2.8739,2.6178,2.5338,2.5284,2.2882,2.2654,2.3564,2.2748,2.2705,2.3184,2.4049,2.4097,2.3975,2.4532,2.5262,2.6204,2.763,2.8106,2.8527,3.0268,2.9734,2.8732,2.8732,2.8125,2.7575,2.7357,2.7137,2.6581,2.5162,2.4877,2.5084,2.5608,2.6128,2.7018,2.8567,2.883,2.8966,2.928,2.9879,2.9834,2.8727,2.9729,2.9461,2.6877,2.8122,2.7802,2.5003,2.5854,2.6128,2.5425,2.5563,2.5673,2.5673,2.6026,2.6119,2.5903,2.6037,2.6236,2.6409,2.6409,2.6304,3.1697,3.263,3.3492,3.505,3.5439,3.5504,3.5504,3.5504,3.5504,3.5504,3.5504,3.5504,3.5504,3.4966,3.4307,3.3649,3.3544,3.3529,3.3499,3.2961,3.2557,3.2557,3.2048,3.1928,3.2557,3.2647,3.2931,3.3559,3.4173,3.4247,3.3589,3.3544,3.3514,3.344,3.2841,3.2497,3.2467,3.1839,3.1467,3.1409,3.1467,3.1467,3.1424,3.2844,3.2741,3.1351,3.0584,3.0539,3.1056,2.9582,2.8495,2.7668,2.6165,2.5604,2.5585,2.5442,2.54,2.5494,2.5935,2.6019,2.6318,2.7802,2.7892,2.7732,2.9334,2.95,2.9319,3.0117,3.0218,3.033,3.1166,3.0368,2.9361,2.9361,2.8448,2.7408,2.6721,2.6028,2.5286,2.4505,2.4748,2.4958,2.4495,2.6008,2.7107,2.6736,2.8287,2.931,2.8727,2.922,2.937,2.8667,2.8052,2.7616,2.7461,2.7947,2.7686,2.638,2.682,2.6627,2.5453,2.6068,2.6457,2.6457,2.77,2.7966,2.7309,2.7893,2.8529,2.921,2.921,2.8888,3.2068,3.3184,3.4135,3.4707,3.5175,3.5504,3.5504,3.5504,3.5504,3.5504,3.5504,3.537,3.4921,3.4996,3.4771,3.3679,3.3499,3.32,3.2362,3.2033,3.2043,3.2527,3.2309,3.2419,3.305,3.3155,3.3245,3.3484,3.3709,3.3559,3.2901,3.2871,3.2677,3.2243,3.2003,3.1884,3.1884,3.1601,3.1482,3.1539,3.1951,3.2231,3.2231,3.2724,3.294,3.2684,3.1028,3.0444,3.0571,2.9463,2.8492,2.755,2.5893,2.5407,2.5507,2.4887,2.5304,2.6252,2.694,2.7429,2.7996,2.9633,2.9817,2.9486,3.0173,3.0613,3.0847,3.1047,3.1035,3.1077,3.1325,3.0691,2.9761,2.9012,2.8174,2.7408,2.6669,2.6283,2.5892,2.5119,2.5184,2.5379,2.566,2.6674,2.7523,2.783,2.8479,2.8861,2.8622,2.8801,2.9026,2.9205,2.9347,2.9222,2.8741,2.9333,2.8943,2.7227,2.7717,2.7729,2.6841,2.7464,2.7765,2.7765,2.9027,2.9148,2.8128,2.8701,2.9132,2.9406,2.9406,2.9104,3.2258,3.3155,3.3873,3.4098,3.4666,3.516,3.516,3.534,3.5504,3.5504,3.5504,3.537,3.4906,3.519,3.4996,3.3425,3.3155,3.2841,3.2004,3.1853,3.2104,3.2841,3.2918,3.2972,3.3166,3.323,3.3125,3.2841,3.3036,3.2886,3.2213,3.2392,3.2213,3.1497,3.1482,3.1482,3.1482,3.1754,3.1853,3.1894,3.2354,3.246,3.2261,3.2732,3.2609,3.2065,3.1294,3.0846,3.0481,2.9149,2.8247,2.7537,2.6057,2.5658,2.5829,2.5401,2.6041,2.7285,2.8145,2.8818,2.9687,3.1408,3.1675,3.1451,3.1768,3.2013,3.2154,3.1858,3.1407,3.1051,3.1106,3.056,2.9805,2.9012,2.8496,2.8012,2.7312,2.6811,2.6283,2.5563,2.5618,2.6016,2.673,2.7574,2.8472,2.9146,2.9434,2.9577,2.9613,2.9394,2.9411,2.9873,3.0253,3.0324,2.9825,3.0196,2.9807,2.8291,2.8614,2.8622,2.7925,2.8496,2.8779,2.8779,2.9805,2.9908,2.9104,2.9717,2.9978,2.9978,2.9978,2.9673,0.0,0.0,0.0,3.3305,3.3963,3.4457,3.4472,3.4996,3.5489,3.5504,3.5504,3.5504,3.5504,3.5489,3.4831,3.2856,3.2542,3.2523,3.2585,3.2586,3.2841,3.3479,3.3531,3.3287,3.2641,3.2602,3.2272,3.1524,3.2108,3.2183,3.1482,3.2093,3.2138,3.1437,3.1422,3.1422,3.1422,3.2155,3.254,3.2524,3.2455,3.2139,3.1616,3.2907,3.1952,2.942,3.1382,3.1811,3.0922,2.8644,2.767,2.7604,2.6782,2.6521,2.6571,2.7055,2.7754,2.8569,2.9452,3.0311,3.1326,3.2973,3.355,3.3675,3.4225,3.3964,3.3296,3.2641,3.144,3.0389,3.0497,2.9948,2.9406,2.9406,2.9422,2.9257,2.8685,2.7545,2.6433,2.5646,2.6096,2.678,2.7469,2.8776,2.9915,3.0519,3.1162,3.1563,3.1612,3.0959,3.0492,3.0543,3.0507,3.0507,3.0537,3.0507,3.0238,2.9663,2.9531,2.9224,2.8542,2.9088,2.9451,2.9435,3.0021,3.0335,3.0377,3.0918,3.119,3.119,3.119,3.0878,3.1764,0.0,0.0,0.0,0.0,0.0,3.4367,3.4622,3.4906,3.54,3.5504,3.5504,3.5504,3.51,3.4427,3.3395,3.3215,3.2886,3.1962,3.1796,3.2048,3.2788,3.2422,3.2201,3.2586,3.212,3.1739,3.1539,3.124,3.0986,3.0806,3.0537,3.0313,3.0118,3.0118,3.0118,3.0118,3.0322,3.067,3.1062,3.1103,3.1247,3.1496,3.0897,3.0221,2.9411,2.8707,2.8296,2.8048,2.7814,2.7351,2.6782,2.6589,2.6201,2.59,2.6477,2.7002,2.7457,2.8225,2.9097,2.9958,3.1021,3.2029,3.2804,3.2352,3.3131,3.382,3.2075,3.1664,3.1623,3.1124,3.0228,2.9496,2.9951,3.015,3.0142,2.9957,3.0053,2.9716,2.8039,2.8284,2.8976,2.9648,3.0873,3.1658,3.1389,3.1869,3.2142,3.1691,3.0989,3.0737,3.1236,3.0824,3.0717,3.121,3.0791,3.0443,3.0241,2.977,2.9418,2.9166,2.9717,3.0201,3.0475,3.1099,3.1534,3.1898,3.1449,3.119,3.119,3.074,3.0477,3.1087,3.1294,3.1589,3.1589,0.0,0.0,3.3154,3.3455,3.3769,3.4173,3.4262,3.4337,3.4622,3.4337,3.3844,3.3185,3.332,3.3246,3.244,3.2588,3.3043,3.3756,3.3231,3.2823,3.2934,3.2124,3.1429,3.1106,3.0492,3.0118,3.0118,2.9774,2.9579,2.9579,2.9579,2.9579,2.9579,2.9856,3.0195,3.0525,3.0566,3.0443,3.0232,2.9407,2.868,2.794,2.6979,2.6463,2.6388,2.6712,2.6547,2.6101,2.6101,2.5762,2.531,2.5649,2.6311,2.712,2.755,2.8596,2.9913,3.067,3.1628,3.2494,3.2266,3.2849,3.3246,3.1724,3.1191,3.1049,3.0857,3.0293,2.9951,3.0518,3.0749,3.0729,3.0449,3.1018,3.121,3.0068,3.0185,3.0669,3.1313,3.2303,3.2983,3.2869,3.3141,3.3174,3.253,3.2061,3.1858,3.1973,3.1859,3.1959,3.2321,3.1459,3.0928,3.0945,3.0244,2.9838,2.9777,3.0335,3.0834,3.1257,3.1608,3.1915,3.2213,3.1714,3.1351,3.119,3.0838,3.0658,3.048,3.0225,3.0182,3.0179,3.0535,0.0,3.1368,3.202,3.2497,3.2557,3.2677,3.2886,3.3395,3.344,3.3215,3.2706,3.311,3.3472,3.3372,3.4021,3.4743,3.5284,3.4854,3.4209,3.3434,3.2245,3.1205,3.0563,2.9864,2.9445,2.9355,2.9355,2.9325,2.925,2.925,2.925,2.925,2.9858,3.0216,3.0394,3.0243,2.9545,2.8387,2.8159,2.7227,2.5722,2.5814,2.5715,2.5423,2.5485,2.5511,2.5523,2.5573,2.5247,2.4745,2.4847,2.5857,2.7096,2.7214,2.8601,3.0468,3.1086,3.1751,3.238,3.3001,3.2747,3.2158,3.1523,3.0511,2.9717,3.0251,3.0393,3.0518,3.1055,3.1258,3.119,3.0634,3.1113,3.1677,3.1799,3.1789,3.1999,3.2578,3.3336,3.4038,3.4636,3.4638,3.4409,3.3906,3.3697,3.3405,3.2886,3.3287,3.3582,3.3582,3.2286,3.1518,3.163,3.0761,3.0335,3.0444,3.0982,3.147,3.1951,3.1951,3.1915,3.1897,3.1789,3.1528,3.119,3.119,3.119,3.0397,2.9894,2.9442,2.9316,2.9338,0.0,3.0964,3.1758,3.2426,3.3168,3.3724,3.3963,3.3574,3.3066,3.2841,3.3245,3.341,3.3321,3.2765,3.3808,3.4457,3.3939,3.3882,3.3578,3.2777,3.1513,3.0659,3.0507,2.9445,2.8547,2.7993,2.8015,2.7724,2.7186,2.7171,2.7171,2.7171,2.7304,2.7905,2.8898,2.8385,2.7981,2.759,2.649,2.5493,2.4577,2.4484,2.4393,2.4343,2.4795,2.4971,2.5008,2.5435,2.5008,2.4268,2.534,2.6042,2.6648,2.7131,2.832,2.9726,2.9767,3.0599,3.1609,3.1621,3.1935,3.2154,3.1426,3.1036,3.0878,3.1015,3.1015,3.1055,3.119,3.1647,3.2053,3.1931,3.2479,3.3035,3.3041,3.3155,3.3247,3.3301,3.4359,3.5239,3.5391,3.5397,3.5346,3.5237,3.4731,3.4331,3.4219,3.3836,3.3582,3.3582,3.2286,3.1725,3.2177,3.1013,3.0673,3.1476,3.1605,3.2074,3.2903,3.2952,3.2745,3.235,3.1657,3.1291,3.119,3.119,3.119,2.9577,2.9177,2.8979,2.817,2.8147,0.0,0.0,3.0499,3.109,3.2258,3.2512,3.2602,3.2946,3.2467,3.2138,3.2467,3.3049,3.3541,3.3572,3.4752,3.5504,3.5095,3.5163,3.4789,3.3704,3.2379,3.101,2.9678,2.8652,2.7765,2.7115,2.7034,2.6718,2.6021,2.6006,2.6006,2.6006,2.6396,2.6696,2.696,2.7019,2.6625,2.5847,2.5148,2.4611,2.4159,2.3748,2.3891,2.4406,2.4406,2.4406,2.4443,2.4695,2.4293,2.3651,2.4732,2.541,2.6022,2.6686,2.8015,2.9423,2.9428,3.0266,3.1307,3.1213,3.1444,3.1726,3.1551,3.1507,3.1545,3.1787,3.186,3.1787,3.1545,3.1798,3.1995,3.1811,3.2324,3.273,3.2374,3.3244,3.4041,3.3996,3.4875,3.5622,3.5622,3.5622,3.547,3.5144,3.5098,3.4988,3.464,3.4592,3.446,3.4082,3.306,3.2508,3.2697,3.2053,3.1833,3.2144,3.2529,3.2889,3.3184,3.2983,3.2763,3.2484,3.1304,3.074,3.074,3.074,3.074,2.8547,2.8201,2.8222,2.7323,2.7195,2.7706,0.0,0.0,0.0,3.1203,3.118,3.1225,3.2317,3.209,3.1772,3.2028,3.3044,3.4171,3.509,3.6258,3.6939,3.6828,3.6921,3.6454,3.498,3.3675,3.1713,2.8809,2.8463,2.7891,2.6751,2.6683,2.629,2.5398,2.5273,2.5218,2.5218,2.583,2.5816,2.5218,2.5943,2.5563,2.4121,2.4239,2.4157,2.3803,2.3339,2.3653,2.4456,2.4017,2.3841,2.3841,2.3954,2.364,2.3185,2.4163,2.4908,2.5508,2.639,2.7868,2.9406,2.9406,3.0208,3.119,3.119,3.119,3.1252,3.1603,3.1752,3.1897,3.2282,3.2417,3.2417,3.2022,3.1915,3.1825,3.1524,3.1927,3.2166,3.1585,3.2997,3.4337,3.4295,3.4912,3.5453,3.5605,3.5504,3.5239,3.4814,3.527,3.5407,3.4847,3.5253,3.5368,3.4759,3.4117,3.3652,3.345,3.3347,3.3195,3.2959,3.3498,3.3669,3.34,3.2791,3.2364,3.2107,3.057,2.9923,3.0074,2.9989,2.9843,2.7712,2.69,2.6689,2.7542,2.6786,2.6778,3.0265,0.0,3.0207,3.1264,0.0,3.2332,3.2482,0.0,0.0,3.3979,3.467,3.5591,3.7,3.7847,3.8209,3.771,3.7757,3.7232,3.5661,3.4317,3.2222,2.8839,3.0241,3.0061,2.7345,2.7317,2.6731,2.5259,2.4777,2.4502,2.4502,2.4609,2.4609,2.4623,2.5245,2.4832,2.35,2.4041,2.3923,2.3226,2.3103,2.3153,2.3265,2.3263,2.3226,2.3288,2.3803,2.364,2.3305,2.4724,2.5342,2.5618,2.6967,2.8304,2.9406,2.9406,3.0208,3.119,3.119,3.119,3.119,3.1269,3.1528,3.1825,3.1861,3.2196,3.2484,3.2451,3.2417,3.2417,3.235,3.242,3.2456,3.2368,3.3072,3.3644,3.3556,3.4134,3.4844,3.552,3.5047,3.4817,3.5431,3.556,3.5577,3.547,3.556,3.5588,3.5504,3.5231,3.5077,3.5052,3.4375,3.4165,3.453,3.426,3.413,3.408,3.3046,3.1899,3.0738,2.9016,2.8584,2.9287,2.8761,2.8168,2.8858,2.8429,2.8294,2.7457,2.6991,2.731,2.9464,2.9659,3.0023,3.2206,0.0,0.0,0.0,0.0,0.0,0.0,3.6182,3.6894,3.8178,3.8416,3.8557,3.893,3.8718,3.7758,3.5814,3.4476,3.2765,3.0479,3.1145,3.0358,2.7374,2.6512,2.5585,2.4557,2.3475,2.3013,2.3171,2.359,2.3485,2.2784,2.3459,2.3413,2.2744,2.3,2.3119,2.3078,2.3078,2.3326,2.3615,2.3215,2.3339,2.3627,2.354,2.358,2.3943,2.5007,2.5673,2.6176,2.7255,2.8174,2.9012,2.9673,3.0518,3.119,3.119,3.119,3.1269,3.147,3.1878,3.2264,3.2533,3.2916,3.3196,3.2983,3.2631,3.2451,3.2683,3.2469,3.236,3.2683,3.3323,3.3734,3.3554,3.3916,3.4421,3.4888,3.4692,3.4776,3.552,3.5622,3.5622,3.5622,3.5622,3.5453,3.5013,3.5177,3.5223,3.5001,3.5385,3.5769,3.6117,3.551,3.4764,3.3876,3.2344,3.0844,2.9403,2.6714,2.5127,2.4611,2.5792,2.5945,2.9457,2.9344,2.9391,2.8236,2.7939,2.8299,2.9909,2.9797,3.0141,3.2971,3.3128,0.0,0.0,0.0,3.6148,3.6948,0.0,3.8146,3.9174,3.9013,3.8951,3.9422,3.8955,3.7969,3.6395,3.5787,3.4697,3.2702,3.295,3.1638,2.8035,2.6477,2.5222,2.4217,2.2935,2.225,2.2322,2.2845,2.2485,2.1267,2.1985,2.2137,2.187,2.2171,2.2535,2.2865,2.3015,2.3376,2.3715,2.3138,2.3251,2.3703,2.3352,2.3742,2.4681,2.5175,2.5837,2.6616,2.7357,2.8091,2.8966,3.0166,3.0838,3.119,3.119,3.119,3.1291,3.1696,3.2127,3.2563,3.2823,3.333,3.3707,3.3268,3.2975,3.2923,3.3313,3.3077,3.2939,3.3313,3.3817,3.4076,3.3759,3.3847,3.4116,3.4518,3.4579,3.4787,3.5402,3.5691,3.5783,3.5622,3.5622,3.543,3.5044,3.5503,3.5786,3.5778,3.6747,3.7228,3.6994,3.6309,3.5184,3.3503,3.1487,2.9436,2.738,2.4433,2.2201,2.0669,2.2477,2.2827,2.8576,2.8428,2.8844,3.0462,2.9766,2.9516,3.274,3.1774,3.0815,3.3129,3.3356,3.3609,3.5038,3.6055,3.6894,3.7539,3.8384,0.0,0.0,4.0034,3.9644,3.872,3.8169,3.7735,3.7576,3.9084,3.8728,3.5426,3.6333,3.4905,2.9988,2.8111,2.6479,2.4859,2.3654,2.2815,2.2322,2.2309,2.1813,2.0756,2.1285,2.1272,2.0806,2.1832,2.2322,2.2372,2.284,2.3078,2.3065,2.2573,2.2661,2.316,2.3306,2.42,2.5342,2.5398,2.5837,2.6616,2.7357,2.84,2.9585,3.0797,3.119,3.119,3.119,3.119,3.1291,3.1696,3.2127,3.2406,3.2128,3.2911,3.3666,3.3138,3.3599,3.4232,3.4572,3.4615,3.4636,3.4634,3.4653,3.4532,3.4074,3.3773,3.3882,3.457,3.4747,3.4902,3.5163,3.5883,3.6182,3.5667,3.5622,3.581,3.6316,3.6847,3.744,3.8155,3.8658,3.8251,3.6767,3.6317,3.5145,3.3154,3.0558,2.7643,2.4368,2.2334,2.0648,1.9251,1.905,1.8575,3.0539,3.0164,2.9987,3.1157,3.1066,3.1149,3.2867,3.2646,3.2741,3.5113,3.5231,3.543,3.7037,3.824,3.9278,4.0075,4.0314,4.0535,0.0,3.9844,3.8747,3.8214,3.855,3.8789,3.8679,3.898,3.8573,3.7092,3.6493,3.4767,3.1432,2.8659,2.6437,2.4874,2.263,2.107,2.0205,2.0193,1.9908,1.9376,1.9558,2.0023,2.0731,2.1054,2.1619,2.2322,2.251,2.2585,2.2573,2.2385,2.2422,2.2619,2.3193,2.4242,2.5453,2.596,2.6602,2.7255,2.7509,2.8125,2.8919,2.9761,3.0293,3.0699,3.1095,3.119,3.1291,3.1731,3.2162,3.2563,3.2751,3.3294,3.3742,3.3578,3.3599,3.3853,3.4561,3.4562,3.4544,3.4945,3.507,3.4992,3.4632,3.5002,3.5247,3.5058,3.5052,3.5435,3.6418,3.6446,3.6143,3.5476,3.5061,3.4948,3.5104,3.6597,3.7945,3.9096,3.8988,3.8476,3.7589,3.723,3.5854,3.335,3.1013,2.8046,2.4536,2.2916,2.1258,1.969,2.0031,1.9979,3.1206,3.1254,3.1238,3.193,3.2095,3.2396,3.3387,3.3369,3.3751,3.5844,3.6407,3.6778,3.7545,3.9118,4.0383,4.0611,4.0825,4.1036,0.0,3.9905,3.8952,3.8816,3.8996,3.9182,3.9311,3.9546,3.9467,3.8909,3.747,3.5525,3.2957,2.9462,2.674,2.4874,2.2353,2.0512,1.9309,1.919,1.9136,1.9219,1.8893,1.9388,2.0718,2.0718,2.1054,2.1732,2.2147,2.2337,2.2324,2.2386,2.2522,2.276,2.3555,2.4353,2.5149,2.6144,2.6924,2.7576,2.8082,2.8467,2.8891,2.9767,3.0293,3.0699,3.1095,3.119,3.124,3.144,3.1847,3.2276,3.2361,3.2972,3.3561,3.3534,3.3691,3.4034,3.4699,3.4789,3.4872,3.5249,3.5372,3.534,3.5149,3.5579,3.5758,3.5155,3.5569,3.6146,3.6678,3.6555,3.6204,3.5729,3.5207,3.5052,3.5425,3.7023,3.8475,3.9534,3.9527,3.8984,3.7901,3.7852,3.6534,3.3734,3.1628,2.9166,2.621,2.4769,2.3409,2.2143,2.2738,2.2798]},{"header":{"parameterUnit":"m.s-1","parameterCategory":1,"la1":30.6,"la2":29.2853,"lo1":-89.7004,"lo2":-87.6739,"dy":0.0162,"dx":0.0183,"nx":112,"ny":82,"refTime":"2023-08-16T06:00:00:Z","depth":0,"parameterNumber":3,"parameterNumberName":"V-component_of_WINDS"},"data":[0.0,0.0,0.0,0.0,0.0,0.0,0.0,0.0,0.0,0.0,0.0,0.0,0.0,0.0,0.0,0.0,0.0,0.0,0.0,0.0,0.0,0.0,0.0,0.0,0.0,0.0,0.0,0.0,0.0,0.0,0.0,0.0,0.0,0.0,0.0,0.0,0.0,0.0,0.0,0.0,0.0,0.0,0.0,0.0,0.0,0.0,0.0,0.0,0.0,0.0,0.0,0.0,0.0,0.0,0.0,0.0,0.0,0.0,0.0,0.0,0.0,0.0,0.0,0.0,0.0,0.0,0.0,0.0,0.0,0.0,0.0,0.0,0.0,0.0,0.0,0.0,0.0,0.0,0.0,0.0,0.0,0.0,0.0,0.0,0.0,0.0,0.0,0.0,0.0,0.0,2.0291,1.9592,1.6847,1.4085,1.1585,1.0081,0.8985,0.848,0.0,0.0,0.0,0.0,0.0,0.0,0.0,0.0,0.0,0.0,0.0,0.0,0.0,0.0,0.0,0.0,0.0,0.0,0.0,0.0,0.0,0.0,0.0,0.0,0.0,0.0,0.0,0.0,0.0,0.0,0.0,0.0,0.0,0.0,0.0,0.0,0.0,0.0,0.0,0.0,0.0,0.0,0.0,0.0,0.0,0.0,0.0,0.0,0.0,0.0,0.0,0.0,0.0,0.0,0.0,0.0,0.0,0.0,0.0,0.0,0.0,0.0,0.0,0.0,0.0,0.0,0.0,0.0,0.0,0.0,0.0,0.0,0.0,0.0,0.0,0.0,0.0,0.0,0.0,0.0,0.0,0.0,0.0,0.0,0.0,0.0,0.0,0.0,0.0,0.0,0.0,0.0,0.0,0.0,0.0,0.0,0.0,0.0,0.0,0.0,0.0,0.0,0.0,0.0,1.9483,1.676,1.4444,1.2262,1.0175,0.8193,0.7004,0.6966,0.0,0.0,0.0,0.0,0.0,0.0,0.0,0.0,0.0,0.0,0.0,0.0,0.0,0.0,0.0,0.0,0.0,0.0,0.0,0.0,0.0,0.0,0.0,0.0,0.0,0.0,0.0,0.0,0.0,0.0,0.0,0.0,0.0,0.0,0.0,0.0,0.0,0.0,0.0,0.0,0.0,0.0,0.0,0.0,0.0,0.0,0.0,0.0,0.0,0.0,0.0,0.0,0.0,0.0,0.0,0.0,0.0,0.0,0.0,0.0,0.0,0.0,0.0,0.0,0.0,0.0,0.0,0.0,0.0,0.0,0.0,0.0,0.0,0.0,0.0,0.0,0.0,0.0,0.0,0.0,0.0,0.0,0.0,0.0,0.0,0.0,0.0,0.0,0.0,0.0,0.0,0.0,0.0,0.0,0.0,0.0,0.0,0.0,0.0,0.0,0.0,0.0,0.0,1.9197,1.8007,1.5402,1.368,1.192,0.9877,0.8134,0.6999,0.6642,0.7823,0.0,0.0,0.0,0.0,0.0,0.0,0.0,0.0,0.0,0.0,0.0,0.0,0.0,0.0,0.0,0.0,0.0,0.0,0.0,0.0,0.0,0.0,0.0,0.0,0.0,0.0,0.0,0.0,0.0,0.0,0.0,0.0,0.0,0.0,0.0,0.0,0.0,0.0,0.0,0.0,0.0,0.0,0.0,0.0,0.0,0.0,0.0,0.0,0.0,0.0,0.0,0.0,0.0,0.0,0.0,0.0,0.0,0.0,0.0,0.0,0.0,0.0,0.0,0.0,0.0,0.0,0.0,0.0,0.0,0.0,0.0,0.0,0.0,0.0,0.0,0.0,0.0,0.0,0.0,0.0,0.0,0.0,0.0,0.0,0.0,0.0,0.0,0.0,0.0,0.0,0.0,0.0,0.0,0.0,0.0,0.0,0.0,0.0,0.0,0.0,0.0,0.0,1.8054,1.6782,1.4946,1.3418,1.1702,0.9614,0.8174,0.6988,0.615,0.7036,0.0,0.0,0.0,0.0,0.0,0.0,0.0,0.0,0.0,0.0,0.0,0.0,0.0,0.0,0.0,0.0,0.0,0.0,0.0,0.0,0.0,0.0,0.0,0.0,0.0,0.0,0.0,0.0,0.0,0.0,0.0,0.0,0.0,0.0,0.0,0.0,0.0,0.0,0.0,0.0,0.0,0.0,0.0,0.0,0.0,0.0,0.0,0.0,0.0,0.0,0.0,0.0,0.0,0.0,0.0,0.0,0.0,0.0,0.0,0.0,0.0,0.0,0.0,0.0,0.0,0.0,0.0,0.0,0.0,0.0,0.0,0.0,0.0,0.0,0.0,0.0,0.0,0.0,0.0,0.0,0.0,0.0,0.0,0.0,0.0,0.0,0.0,0.0,0.0,0.0,0.0,0.0,0.0,0.0,0.0,0.0,0.0,0.0,0.0,0.0,0.0,0.0,1.7771,1.6213,1.5501,1.3236,1.0972,0.8923,0.7458,0.6095,0.4736,0.6494,0.0,0.0,0.0,0.0,0.0,0.0,0.0,0.0,0.0,0.0,0.0,0.0,0.0,0.0,0.0,0.0,0.0,0.0,0.0,0.0,0.0,0.0,0.0,0.0,0.0,0.0,0.0,0.0,0.0,0.0,0.0,0.0,0.0,0.0,0.0,0.0,0.0,0.0,0.0,0.0,0.0,0.0,0.0,0.0,0.0,0.0,0.0,0.0,0.0,0.0,0.0,0.0,0.0,0.0,0.0,0.0,0.0,0.0,0.0,0.0,0.0,0.0,0.0,0.0,0.0,0.0,0.0,0.0,0.0,0.0,0.0,0.0,0.0,0.0,0.0,0.0,0.0,0.0,0.0,0.0,0.0,0.0,0.0,0.0,0.0,0.0,0.0,0.0,0.0,0.0,0.0,0.0,0.0,0.0,0.0,0.0,0.0,0.0,0.0,0.0,0.0,0.0,1.6767,1.5472,1.455,1.2445,1.0452,0.882,0.7315,0.5903,0.4563,0.0,0.0,0.0,0.0,0.0,0.0,0.0,0.0,0.0,0.0,0.0,0.0,0.0,0.0,0.0,0.0,0.0,0.0,0.0,0.0,0.0,0.0,0.0,0.0,0.0,0.0,0.0,0.0,0.0,0.0,0.0,0.0,0.0,0.0,0.0,0.0,0.0,0.0,0.0,0.0,0.0,0.0,0.0,0.0,0.0,0.0,0.0,0.0,0.0,0.0,0.0,0.0,0.0,0.0,0.0,0.0,0.0,0.0,0.0,0.0,0.0,0.0,0.0,0.0,0.0,0.0,0.0,0.0,0.0,0.0,0.0,0.0,0.0,0.0,0.0,0.0,0.0,0.0,0.0,0.0,0.0,0.0,0.0,0.0,0.0,0.0,0.0,0.0,0.0,0.0,0.0,0.0,0.0,0.0,0.0,0.0,0.0,0.0,0.0,0.0,0.0,0.0,1.7383,1.6071,1.4767,1.3606,1.1786,1.0163,0.8833,0.7212,0.5859,0.4882,0.0,0.0,0.0,0.0,0.0,0.0,0.0,0.0,0.0,0.0,0.0,0.0,0.0,0.0,0.0,0.0,0.0,0.0,0.0,0.0,0.0,0.0,0.0,0.0,0.0,0.0,0.0,0.0,0.0,0.0,0.0,0.0,0.0,0.0,0.0,0.0,0.0,0.0,0.0,0.0,0.0,0.0,0.0,0.0,0.0,0.0,0.0,0.0,0.0,0.0,0.0,0.0,0.0,0.0,0.0,0.0,0.0,0.0,0.0,0.0,0.0,0.0,0.0,0.0,0.0,0.0,0.0,0.0,0.0,0.0,0.0,0.0,0.0,0.0,0.0,0.0,0.0,0.0,0.0,0.0,0.0,0.0,0.0,0.0,0.0,0.0,0.0,0.0,0.0,0.0,0.0,0.0,0.0,0.0,0.0,0.0,0.0,0.0,0.0,0.0,0.0,0.0,1.7261,1.5704,1.4215,1.2918,1.1357,0.9927,0.8808,0.7024,0.5861,0.0,0.0,0.0,0.0,0.0,0.0,0.0,0.0,0.0,0.0,0.0,0.0,0.0,0.0,0.0,0.0,0.0,0.0,0.0,0.0,0.0,0.0,0.0,0.0,0.0,0.0,0.0,0.0,0.0,0.0,0.0,0.0,0.0,0.0,0.0,0.0,0.0,0.0,0.0,0.0,0.0,0.0,0.0,0.0,0.0,0.0,0.0,0.0,0.0,0.0,0.0,0.0,0.0,0.0,0.0,0.0,0.0,0.0,0.0,0.0,0.0,0.0,0.0,0.0,0.0,0.0,0.0,0.0,0.0,0.0,0.0,0.0,0.0,0.0,0.0,0.0,0.0,0.0,0.0,0.0,0.0,0.0,0.0,0.0,0.0,0.0,0.0,0.0,0.0,0.0,0.0,0.0,0.0,0.0,0.0,0.0,0.0,0.0,0.0,0.0,0.0,0.0,0.0,1.6699,1.5472,1.4029,1.2288,1.1262,0.9918,0.8075,0.6812,0.5951,0.5517,0.0,0.0,0.0,0.0,0.0,0.0,0.0,0.0,0.0,0.0,0.0,0.0,0.0,0.0,0.0,0.0,0.0,0.0,0.0,0.0,0.0,0.0,0.0,0.0,0.0,0.0,0.0,0.0,0.0,0.0,0.0,0.0,0.0,0.0,0.0,0.0,0.0,0.0,0.0,0.0,0.0,0.0,0.0,0.0,0.0,0.0,0.0,0.0,0.0,0.0,0.0,0.0,0.0,0.0,0.0,0.0,0.0,0.0,0.0,0.0,0.0,0.0,0.0,0.0,0.0,0.0,0.0,0.0,0.0,0.0,0.0,0.0,0.0,0.0,0.0,0.0,0.0,0.0,0.0,0.0,0.0,0.0,0.0,0.0,0.0,0.0,0.0,0.0,0.0,0.0,0.0,0.0,0.0,0.0,0.0,0.0,0.0,0.0,0.0,0.0,0.0,0.0,1.6464,1.5339,1.3831,1.1657,1.093,0.9946,0.8205,0.6778,0.5972,0.5885,0.0,0.0,0.0,0.0,0.0,0.0,0.0,0.0,0.0,0.0,0.0,0.0,0.0,0.0,0.0,0.0,0.0,0.0,0.0,0.0,0.0,0.0,0.0,0.0,0.0,0.0,0.0,0.0,0.0,0.0,0.0,0.0,0.0,0.0,0.0,0.0,0.0,0.0,0.0,0.0,0.0,0.0,0.0,0.0,0.0,0.0,0.0,0.0,0.0,0.0,0.0,0.0,0.0,0.0,0.0,0.0,0.0,0.0,0.0,0.0,0.0,0.0,0.0,0.0,0.0,0.0,0.0,0.0,0.0,0.0,0.0,0.0,0.0,0.0,0.0,0.0,0.0,0.0,0.0,0.0,0.0,0.0,0.0,0.0,0.0,0.0,0.0,0.0,0.0,0.0,0.0,0.0,0.0,0.0,0.0,0.0,0.0,0.0,0.0,0.0,0.0,0.0,1.6519,1.5384,1.3726,1.1258,1.0672,0.9974,0.8876,0.6944,0.5964,0.6381,0.0,0.0,0.0,0.0,0.0,0.0,0.0,0.0,0.0,0.0,0.0,0.0,0.0,0.0,0.0,0.0,0.0,0.0,0.0,0.0,0.0,0.0,0.0,0.0,0.0,0.0,0.0,0.0,0.0,0.0,0.0,0.0,0.0,0.0,0.0,0.0,0.0,0.0,0.0,0.0,0.0,0.0,0.0,0.0,0.0,0.0,0.0,0.0,0.0,0.0,0.0,0.0,0.0,0.0,0.0,0.0,0.0,0.0,0.0,0.0,1.671,1.574,0.0,0.0,0.0,0.0,0.0,0.0,0.0,0.0,0.0,0.0,0.0,0.0,0.0,0.0,0.0,0.0,0.0,0.0,0.0,0.0,0.0,0.0,0.0,0.0,0.0,0.0,0.0,0.0,0.0,0.0,0.0,0.0,0.0,0.0,0.0,0.0,0.0,0.0,0.0,0.0,1.7177,1.566,1.4122,1.2522,1.1379,1.0167,0.8842,0.7206,0.6303,0.6401,0.5594,0.0,0.0,0.0,0.0,0.0,0.0,0.0,0.0,0.0,0.0,0.0,0.0,0.0,0.0,0.0,0.0,0.0,0.0,0.0,0.0,0.0,0.0,0.0,0.0,0.0,0.0,0.0,0.0,0.0,0.0,0.0,0.0,0.0,0.0,0.0,0.0,0.0,0.0,0.0,0.0,0.0,0.0,0.0,0.0,0.0,0.0,0.0,0.0,0.0,0.0,0.0,0.0,0.0,0.0,0.0,0.0,0.0,0.0,0.0,1.8509,1.8045,0.0,0.0,0.0,0.0,0.0,0.0,0.0,0.0,0.0,0.0,0.0,0.0,0.0,0.0,0.0,0.0,0.0,0.0,0.0,0.0,0.0,0.0,0.0,0.0,0.0,0.0,0.0,0.0,0.0,0.0,0.0,0.0,0.0,0.0,0.0,0.0,0.0,0.0,0.0,0.0,1.7405,1.5772,1.4075,1.2483,1.1706,1.0704,0.937,0.8114,0.7103,0.6347,0.5695,0.0,0.0,0.0,0.0,0.0,0.0,0.0,0.0,0.0,0.0,0.0,0.0,0.0,0.0,0.0,0.0,0.0,0.0,0.0,0.0,0.0,0.0,0.0,0.0,0.0,0.0,0.0,0.0,0.0,0.0,0.0,0.0,0.0,0.0,0.0,0.0,0.0,0.0,0.0,0.0,0.0,0.0,0.0,0.0,0.0,0.0,0.0,0.0,0.0,0.0,0.0,0.0,0.0,2.9586,2.7972,2.5979,2.4426,2.2838,2.1295,2.1036,2.0721,2.0423,2.1234,0.0,0.0,0.0,0.0,0.0,0.0,0.0,0.0,0.0,0.0,0.0,0.0,0.0,0.0,0.0,0.0,0.0,0.0,0.0,0.0,0.0,0.0,1.9993,1.9542,1.9082,1.8371,1.7276,0.0,0.0,0.0,0.0,0.0,0.0,0.0,0.0,0.0,0.0,0.0,1.7579,1.5823,1.4075,1.2483,1.2003,1.1316,1.0064,0.9076,0.7896,0.633,0.5817,0.5079,0.0,0.0,0.0,0.0,0.0,0.0,0.0,0.0,0.0,0.0,0.0,0.0,0.0,0.0,0.0,0.0,0.0,0.0,0.0,0.0,0.0,0.0,0.0,0.0,0.0,0.0,0.0,0.0,0.0,0.0,0.0,0.0,2.3282,2.358,0.0,0.0,0.0,0.0,0.0,0.0,0.0,0.0,0.0,0.0,0.0,0.0,0.0,2.9902,3.1054,3.4036,3.5249,3.4691,3.1238,2.9625,2.9687,2.9437,2.8753,2.7682,2.6358,0.0,2.3371,2.7361,0.0,0.0,0.0,0.0,0.0,0.0,0.0,0.0,0.0,0.0,0.0,0.0,0.0,0.0,0.0,0.0,0.0,0.0,0.0,0.0,0.0,0.0,1.9285,1.8985,1.8377,1.817,1.9351,1.9144,1.8969,1.9871,2.0464,2.1021,0.0,0.0,0.0,0.0,0.0,0.0,1.8166,1.6058,1.4606,1.4365,1.2822,1.1516,1.0712,0.9423,0.8036,0.6477,0.5728,0.4968,0.418,0.498,0.0,0.0,0.0,0.0,0.0,0.0,0.0,0.0,0.0,0.0,0.0,0.0,0.0,0.0,0.0,0.0,0.0,0.0,0.0,0.0,0.0,0.0,0.0,0.0,0.0,0.0,0.0,0.0,0.0,2.3867,2.5055,2.5045,2.4425,2.3821,0.0,0.0,0.0,0.0,0.0,0.0,0.0,0.0,0.0,2.8175,3.1481,3.3276,3.3278,3.4737,3.5002,3.403,3.3316,3.2071,3.0296,2.7226,2.6007,2.6359,2.7504,2.7477,2.6854,2.9548,3.0701,3.0488,0.0,0.0,0.0,0.0,2.5595,2.5755,2.6023,2.5562,2.4847,2.4953,0.0,0.0,0.0,0.0,0.0,0.0,0.0,2.2825,2.1755,2.0846,2.0193,2.0059,1.9605,1.9597,2.116,2.1295,2.1217,2.1563,2.2993,2.4035,2.3671,2.3982,0.0,0.0,0.0,1.9599,1.8835,1.6654,1.496,1.4283,1.3416,1.2346,1.0914,1.0246,0.9073,0.7138,0.6144,0.5434,0.5,0.4992,0.462,0.0,0.0,0.0,0.0,0.0,0.0,0.0,0.0,0.0,0.0,0.0,0.0,0.0,0.0,0.0,0.0,0.0,0.0,0.0,0.0,0.0,0.0,0.0,0.0,0.0,0.0,0.0,0.0,2.5077,2.6011,2.6805,2.6726,2.6064,0.0,0.0,0.0,0.0,0.0,0.0,2.816,3.0419,3.1693,3.1699,3.308,3.4232,3.5057,3.4245,3.3185,3.192,3.3217,3.1896,2.8187,2.413,2.2815,2.385,2.6269,2.7477,2.7925,2.9812,3.0519,3.0294,2.8849,2.7909,2.737,2.7558,2.7573,2.7568,2.7761,2.7462,2.7017,2.6835,2.6649,2.6437,2.6135,0.0,0.0,0.0,0.0,2.3621,2.263,2.1744,2.1086,2.1022,2.0892,2.1182,2.2546,2.3115,2.3369,2.3329,2.4878,2.6043,2.5527,2.5377,0.0,2.4965,2.2022,1.9667,1.9212,1.7087,1.5174,1.4143,1.3909,1.3032,1.1079,1.0781,0.9811,0.7791,0.6754,0.5961,0.5364,0.4569,0.3796,0.3174,0.0,0.0,0.0,0.0,0.0,0.0,0.0,0.0,0.0,0.0,0.0,0.0,0.0,0.0,0.0,0.0,0.0,0.0,0.0,0.0,0.0,0.0,0.0,0.0,0.0,0.0,0.0,0.0,0.0,2.9803,3.0144,0.0,0.0,0.0,0.0,2.9927,3.0156,3.1574,3.4836,3.516,3.5243,3.5232,3.1388,3.0791,3.3865,3.0844,2.9265,2.9205,2.9284,2.7004,2.2716,2.2426,2.2317,2.2415,2.2556,2.3325,2.4712,2.8281,2.9846,2.9908,2.9687,2.9623,2.9578,2.9158,2.8889,2.8608,2.7875,2.7278,2.6917,2.7378,2.8036,2.8636,2.8622,2.8427,0.0,0.0,2.5027,2.4471,2.2066,2.1435,2.1336,2.1047,2.1601,2.2434,2.3258,2.4504,2.5408,2.5264,2.536,2.5699,2.6473,0.0,2.4913,2.4325,2.1853,1.9851,1.9197,1.7033,1.5365,1.4698,1.4143,1.3111,1.1338,1.0694,0.9753,0.816,0.7538,0.64,0.4631,0.3583,0.3923,0.5686,1.1247,0.0,0.0,0.0,0.0,0.0,0.0,0.0,0.0,0.0,0.0,0.0,0.0,0.0,0.0,0.0,0.0,0.0,0.0,0.0,0.0,0.0,0.0,0.0,0.0,0.0,0.0,0.0,0.0,3.3338,3.187,0.0,3.2203,3.2333,3.2707,3.3611,3.367,3.4222,3.5441,3.5506,3.5152,3.443,3.0878,2.9554,3.0691,2.8587,2.7521,2.7522,2.751,2.6672,2.5109,2.4147,2.4235,2.5034,2.3131,2.2556,2.3241,2.6447,2.8373,2.9362,2.9702,2.9589,2.9101,2.8212,2.7812,2.7562,2.6652,2.6339,2.6537,2.7582,2.8064,2.8301,2.8699,2.8359,2.7546,2.5828,2.4856,2.3911,2.1981,2.1309,2.1102,2.1021,2.1437,2.2045,2.2824,2.3375,2.4087,2.5237,2.6209,2.6695,2.6374,2.5403,2.456,2.4265,2.1394,1.9214,1.91,1.7388,1.5788,1.4789,1.4514,1.3522,1.1358,1.1001,1.0225,0.8585,0.7843,0.7321,0.6907,0.5779,0.711,1.1214,1.3631,1.6085,0.0,0.0,0.0,0.0,0.0,0.0,0.0,0.0,0.0,0.0,0.0,0.0,0.0,0.0,0.0,0.0,0.0,0.0,0.0,0.0,0.0,0.0,0.0,0.0,0.0,2.8181,3.0703,3.5294,3.3732,3.3261,3.5751,3.5891,3.5737,3.553,3.5492,3.5339,3.4959,3.4945,3.4073,3.2238,3.117,2.9842,2.8246,2.721,2.6695,2.6714,2.6684,2.6709,2.6653,2.5338,2.527,2.6069,2.3964,2.2744,2.2449,2.4423,2.5814,2.6903,2.8466,2.8607,2.7848,2.713,2.6683,2.6336,2.5658,2.5533,2.5882,2.7298,2.7701,2.769,2.8039,2.7575,2.6566,2.5108,2.4001,2.298,2.1666,2.126,2.1213,2.1213,2.1538,2.201,2.2565,2.2695,2.3224,2.4989,2.6186,2.6745,2.6295,2.528,2.4481,2.4276,2.1203,1.9016,1.9405,1.7715,1.6064,1.4846,1.4698,1.3782,1.1546,1.1296,1.0641,0.9194,0.8776,0.8612,0.871,0.8623,1.0153,1.3626,1.5664,1.8445,2.2038,0.0,0.0,0.0,0.0,0.0,0.0,0.0,0.0,0.0,0.0,0.0,0.0,0.0,0.0,0.0,0.0,0.0,0.0,0.0,0.0,0.0,0.0,0.0,3.1174,3.3569,3.565,3.5669,3.5944,3.6112,3.5982,3.5698,3.5488,3.5435,3.5454,3.4958,3.3859,3.3807,3.2366,2.9247,3.2027,3.1353,2.6753,2.671,2.6682,2.6699,2.6704,2.6707,2.6635,2.5692,2.5203,2.5163,2.4692,2.3731,2.2442,2.2356,2.2316,2.2637,2.602,2.6764,2.5965,2.604,2.5634,2.5021,2.5021,2.4906,2.4986,2.6495,2.6995,2.6997,2.6871,2.6213,2.5159,2.3541,2.2623,2.1952,2.1231,2.1324,2.1631,2.1615,2.1991,2.2394,2.2686,2.2747,2.3188,2.4717,2.524,2.5687,2.6383,2.553,2.4674,2.4365,2.1339,0.0,1.9948,1.7982,1.6064,1.488,1.4744,1.3891,1.185,1.1552,1.1058,1.0031,1.0344,1.0365,0.9917,1.1716,1.2738,1.271,1.7457,2.1152,2.3694,0.0,0.0,0.0,0.0,0.0,0.0,0.0,0.0,0.0,0.0,0.0,0.0,0.0,0.0,0.0,0.0,0.0,0.0,0.0,0.0,0.0,3.6938,3.8804,3.7855,3.853,3.9135,3.9123,3.9215,3.8315,3.5883,3.555,3.5157,3.4319,3.4269,3.413,3.3815,3.3805,3.3393,3.2504,2.9982,2.8007,2.6713,2.6686,2.6689,2.6689,2.6707,2.6522,2.6179,2.5917,2.5439,2.4854,2.4968,2.5177,2.5313,2.3171,2.2316,2.2396,2.3358,2.4202,2.4795,2.374,2.3231,2.3112,2.3273,2.3319,2.3443,2.44,2.4826,2.5026,2.5308,2.5324,2.5001,2.3696,2.3177,2.2879,2.2191,2.1956,2.1989,2.2324,2.2772,2.3117,2.3198,2.3636,2.4164,2.4728,2.4911,2.5246,2.6011,2.4839,2.3611,2.3025,2.1089,1.9424,1.8726,1.7704,1.6629,1.5499,1.5365,1.4637,1.2891,1.3059,1.2711,1.1557,1.2071,1.2301,1.2136,1.3239,1.5063,1.7596,2.078,2.2851,0.0,0.0,0.0,0.0,0.0,0.0,0.0,0.0,0.0,0.0,0.0,0.0,0.0,0.0,0.0,0.0,0.0,0.0,0.0,0.0,0.0,0.0,3.9618,4.1775,4.1772,4.0604,3.9751,3.9751,3.9756,3.8441,3.5114,3.4787,3.4508,3.3846,3.381,3.3797,3.3807,3.3105,3.2706,3.2716,3.0035,2.8372,2.7946,2.7114,2.686,2.7165,2.6673,2.6262,2.5961,2.5524,2.5125,2.4687,2.4895,2.5412,2.598,2.4677,2.341,2.2308,0.0,0.0,0.0,0.0,2.231,2.2293,2.2248,2.2241,2.2343,2.2907,2.3393,2.3836,2.4372,2.4514,2.4349,2.3863,2.3358,2.3008,2.302,2.2903,2.2899,2.3351,2.3664,2.3849,2.3849,2.4031,2.4296,2.4709,2.4454,0.0,2.5207,2.4248,2.3204,2.26,2.105,1.9569,1.8641,1.7828,1.6883,1.572,1.5548,1.4983,1.3593,1.3963,0.0,0.0,0.0,1.5469,1.6755,1.7547,0.0,0.0,0.0,2.4144,2.4222,2.3861,0.0,0.0,2.4652,2.4891,0.0,0.0,0.0,0.0,0.0,0.0,0.0,0.0,0.0,0.0,0.0,0.0,0.0,0.0,0.0,0.0,4.1632,4.3506,4.3501,4.1033,3.9114,3.8732,3.87,3.7412,3.4115,3.4138,3.4119,3.3549,3.3503,3.3501,3.3504,3.2033,0.0,0.0,0.0,3.0681,2.9629,2.8031,2.7385,2.77,2.6604,2.6069,2.6008,2.4942,2.4544,2.4725,2.4634,2.4738,2.5114,2.6253,2.4968,2.2288,2.2297,2.2294,2.2298,2.2212,2.2202,2.2144,2.1691,0.0,0.0,2.1923,2.2511,2.3211,2.3861,2.3777,2.3593,2.4105,2.3459,2.2854,2.3881,2.4083,2.4116,2.45,2.4611,2.4611,2.4532,2.423,2.4131,2.465,2.4014,2.3659,2.4323,2.386,2.3253,2.275,2.123,1.9864,1.9265,1.8194,1.7079,1.6015,1.5711,0.0,1.4283,1.4777,1.4921,1.4433,1.6545,1.9124,2.2027,2.2786,2.3665,2.4805,2.5018,2.5024,2.4889,2.4867,2.4867,2.4897,2.5254,2.559,0.0,0.0,0.0,0.0,0.0,0.0,0.0,0.0,0.0,0.0,0.0,0.0,0.0,0.0,0.0,4.2408,4.31,4.3513,4.349,4.2945,4.1613,3.8994,3.8699,3.7411,3.4127,3.6219,3.6072,3.2027,3.1698,3.1687,3.1689,3.1374,3.1212,3.1198,3.1196,3.0537,2.9143,2.9907,2.9282,2.7142,2.6743,0.0,2.6291,2.5157,2.4734,2.4894,2.4142,2.3833,2.4056,2.5928,2.4956,2.2309,2.2306,2.2307,2.2231,2.1761,2.1568,2.1536,2.1215,2.1134,2.1135,2.1384,2.2197,2.3104,2.3031,2.3559,0.0,2.4349,2.4175,2.428,2.5317,2.5104,2.4762,2.5275,2.5389,2.5275,2.4829,2.5155,2.535,2.4634,2.4309,2.4271,2.4519,2.4023,2.3363,2.2783,2.1913,2.0961,1.989,1.9049,1.8327,1.7679,1.7114,1.6644,1.6277,1.6761,1.7149,1.7432,1.9688,2.1458,2.2458,2.3446,2.4083,2.4336,2.4896,2.5245,2.5369,2.5194,2.5221,2.5363,2.5075,2.5096,0.0,0.0,0.0,0.0,0.0,0.0,0.0,0.0,0.0,0.0,0.0,3.5052,3.6646,0.0,4.3501,4.3497,4.3513,4.3493,4.3493,4.3487,4.2316,3.9085,3.8707,3.8067,3.6399,3.6791,3.5474,3.1499,3.1196,3.1202,3.1196,3.1213,3.1185,3.1207,3.1196,3.084,3.009,3.0836,3.0475,2.9055,2.7662,2.6972,2.6818,2.5665,2.4867,2.4268,2.3797,2.36,2.3701,2.5303,2.5386,2.4444,2.395,2.2618,2.112,2.2139,2.212,2.1557,2.1619,2.1635,2.1663,2.1812,2.2329,2.3018,2.3651,2.439,2.5108,2.5889,2.5928,2.5944,2.6687,2.6332,2.5798,2.6084,2.615,2.6185,2.6283,2.6204,2.596,2.5433,2.5153,2.4894,2.4672,2.4343,2.3894,2.3236,2.2592,2.1654,2.0081,1.9598,1.9161,1.8521,1.809,1.7882,1.7993,1.8631,1.9391,2.0296,2.1821,2.3051,2.3822,2.4463,2.483,2.4857,2.5176,2.5385,2.5443,2.5356,2.5359,2.5443,2.5216,2.5429,0.0,0.0,0.0,0.0,0.0,0.0,0.0,3.6599,4.1858,4.461,4.2227,4.0434,4.3013,4.3323,4.3161,4.3171,4.3177,4.316,4.316,4.3176,4.2213,3.9606,3.858,3.8096,3.8117,3.6601,3.4627,3.2222,3.2043,3.2077,3.2077,3.2077,3.2035,3.2032,3.1476,3.1183,3.1187,3.1187,3.0974,3.0474,2.8342,2.7348,2.7302,2.6226,2.522,2.434,2.4088,2.4128,2.4389,2.5285,2.6101,2.6772,2.6158,2.3923,2.1268,2.2896,2.3036,2.2389,2.2481,2.249,2.2496,2.2707,2.2955,2.3437,2.4857,2.5534,2.6145,2.7487,2.7614,2.7429,2.7902,2.7588,2.7131,2.7131,2.7131,2.7266,2.775,2.7093,2.6381,2.6365,2.5947,2.548,2.5076,2.4746,2.4433,2.3879,2.3161,2.2111,2.0458,2.0181,1.9894,1.9163,1.8972,1.905,1.9421,2.0236,2.1264,2.2522,2.3291,2.4087,2.5001,2.5197,2.5337,2.5426,2.5428,2.543,2.5414,2.5429,2.5429,2.5414,2.5414,2.5819,3.1566,3.0699,3.2516,4.2167,4.0618,3.6415,0.0,3.9223,4.3266,4.3649,4.3324,4.3069,4.3435,4.2667,4.1973,4.1969,4.1998,4.1979,4.1979,4.2014,4.1855,4.1516,3.8185,3.5968,3.5956,3.5734,3.5469,3.5121,3.5104,3.512,3.512,3.512,3.512,3.5086,3.2563,3.1196,3.1214,3.1214,3.011,2.7987,2.7735,2.7588,2.753,2.6647,2.6561,2.7091,2.588,2.5967,2.6981,2.7113,2.7196,2.7394,2.8241,2.749,2.5694,2.3901,2.3909,2.4652,2.365,2.319,2.3223,2.3928,2.4524,2.51,2.6062,2.6704,2.7265,2.7964,2.8119,2.8213,2.873,2.8789,2.8757,2.8757,2.8757,2.8612,2.8234,2.7631,2.7057,2.6573,2.6016,2.5779,2.6288,2.5405,2.4552,2.4477,2.3475,2.2413,2.1585,2.1296,2.088,2.0189,1.9955,1.9996,2.041,2.1349,2.2331,2.3313,2.4008,2.4511,2.4823,2.4869,2.4948,2.5139,2.5136,2.5251,2.5483,2.5496,2.5496,2.5483,2.5483,2.555,3.4588,3.6415,3.8946,4.2827,4.2283,4.0671,4.0243,4.1874,4.3498,4.349,4.2977,4.2521,4.2523,4.2106,4.1581,4.0925,4.1155,4.1425,4.1425,4.1633,4.1664,4.1307,3.9355,3.7756,3.7002,3.6956,3.657,3.569,3.5616,3.5576,3.5606,3.5606,3.5586,3.5588,3.4382,3.3748,3.3754,3.2176,3.0872,2.9882,2.9362,2.8876,2.8366,2.7859,2.743,2.6977,2.5997,2.6075,2.6887,2.6873,2.7251,2.7865,2.7912,2.8001,2.783,2.6246,2.5037,2.428,2.439,2.4918,2.558,2.5926,2.6214,2.6655,2.7646,2.8176,2.86,2.9148,2.9298,2.9374,2.9597,2.9313,2.9011,2.9011,2.9011,2.9056,2.9273,2.8559,2.7817,2.7628,2.7134,2.6722,2.6617,2.6138,2.5723,2.5681,2.4262,2.2981,2.2338,2.2064,2.1666,2.1119,2.1245,2.1392,2.158,2.2117,2.27,2.3285,2.3871,2.4335,2.4607,2.4746,2.4836,2.4924,2.4943,2.4979,2.5098,2.5101,2.5091,2.5098,2.5098,2.5098,3.6831,4.0223,4.2977,4.2542,4.3342,4.4161,4.3623,4.3492,4.3435,4.3245,4.2577,4.1998,4.1805,4.1647,4.1279,4.0464,4.0639,4.0892,4.0892,4.1146,4.115,4.075,4.0238,3.9534,3.8597,3.8142,3.7486,3.6514,3.6152,3.6081,3.6248,3.5849,3.5432,3.503,3.5036,3.4988,3.5033,3.2672,3.1517,3.1458,3.0615,2.9877,2.9245,2.8809,2.8068,2.7111,2.6647,2.6854,2.7604,2.7792,2.856,2.9603,2.9083,2.954,3.0314,2.956,2.7745,2.5814,2.6615,2.7332,2.7865,2.7797,2.7802,2.807,2.9048,2.9443,2.9698,3.0241,3.0412,3.0412,3.0412,3.0006,2.96,2.96,2.9736,3.004,3.0581,2.9898,2.9173,2.92,2.8622,2.7875,2.7225,2.6983,2.6761,2.644,2.5085,2.3864,2.3193,2.2714,2.225,2.1837,2.2106,2.231,2.231,2.2537,2.2848,2.3165,2.3645,2.4062,2.4392,2.4561,2.4654,2.4716,2.4714,2.4742,2.4804,2.4796,2.4796,2.4804,2.4804,2.4804,3.7678,4.0031,4.2271,4.3221,4.3501,4.3524,4.3502,4.3518,4.3301,4.2591,4.2567,4.2501,4.1919,4.134,4.0903,4.0868,4.048,4.0154,4.0154,4.0154,4.0171,4.0121,4.0104,4.0087,4.002,3.8734,3.8072,3.8472,3.759,3.729,3.7821,3.6406,3.5,3.368,3.362,3.3552,3.3588,3.2196,3.1498,3.148,3.063,3.0163,3.015,2.9049,2.8577,2.8547,2.8517,2.9243,3.0428,3.107,3.2122,3.3229,3.3212,3.355,3.4032,3.4032,3.2706,3.0955,3.1014,3.0404,2.957,2.9241,2.9156,2.9304,3.0013,3.0243,3.0402,3.0982,3.1157,3.1157,3.1157,3.114,3.1123,3.1123,3.1664,3.2188,3.2246,3.1742,3.1281,3.1325,3.0259,2.9134,2.8528,2.7907,2.7225,2.653,2.579,2.5041,2.4281,2.3289,2.2576,2.2321,2.2282,2.231,2.231,2.2537,2.2848,2.3165,2.3522,2.3858,2.419,2.4209,2.4321,2.4512,2.4512,2.4607,2.4804,2.4804,2.4804,2.4804,2.4804,2.4804,3.7542,4.0439,4.2913,4.2526,4.2717,4.2868,4.2481,4.2358,4.2289,4.205,4.1368,4.0849,4.1163,4.0353,3.9805,4.0283,4.0204,4.007,4.007,4.007,4.007,4.007,4.007,4.007,4.007,3.9631,3.9191,3.8885,3.8565,3.8051,3.7403,3.6901,3.6036,3.4912,3.397,3.3937,3.4816,3.3788,3.3005,3.2347,3.1046,3.0402,3.0393,2.9633,2.925,2.925,2.925,2.9718,3.0501,3.072,3.1308,3.2134,3.2751,3.3108,3.3286,3.3691,3.3931,3.3987,3.3017,3.2235,3.1783,3.2326,3.2294,3.2043,3.2295,3.2379,3.2278,3.2013,3.1918,3.1799,3.1326,3.119,3.119,3.119,3.1749,3.2313,3.2313,3.1809,3.1391,3.1391,3.0006,2.8873,2.9042,2.8592,2.8044,2.7612,2.6262,2.5121,2.4655,2.39,2.3303,2.3047,2.2598,2.231,2.231,2.2388,2.2643,2.3165,2.3323,2.3628,2.417,2.419,2.4228,2.4303,2.4303,2.4321,2.441,2.441,2.441,2.441,2.441,2.4688,3.7264,3.9808,4.1922,4.1233,4.1537,4.1873,4.1511,4.1598,4.175,4.1534,4.0568,3.9991,4.0517,3.9722,3.9225,3.9952,3.9868,3.9783,4.0037,4.0087,4.0087,4.007,4.0544,4.0764,4.051,4.0713,4.046,3.9462,3.9143,3.8587,3.7774,3.7194,3.6502,3.558,3.4666,3.4516,3.517,3.4589,3.3847,3.3036,3.2018,3.1569,3.1554,3.0911,3.0627,3.0627,3.0627,3.0849,3.1248,3.1464,3.182,3.2253,3.2846,3.3104,3.3136,3.3462,3.4137,3.4688,3.3583,3.322,3.3294,3.3769,3.3651,3.3406,3.3406,3.3406,3.3305,3.2831,3.2493,3.2171,3.1698,3.1393,3.119,3.119,3.1952,3.2679,3.2679,3.2396,3.2064,3.183,3.0364,2.9055,2.8756,2.8133,2.768,2.7676,2.6552,2.5573,2.5128,2.4431,2.3844,2.3431,2.275,2.231,2.231,2.231,2.2508,2.2996,2.3141,2.3455,2.3996,2.4016,2.4074,2.4208,2.4074,2.4074,2.419,2.419,2.4337,2.463,2.463,2.5052,3.6929,3.8306,3.9532,3.9532,4.0081,4.0571,4.0624,4.1107,4.142,4.088,4.0187,3.9743,3.9968,3.9478,3.9292,4.002,3.958,3.9394,4.0087,4.0189,4.0172,4.0138,4.1373,4.1965,4.1271,4.1863,4.1711,4.029,3.9451,3.8903,3.8849,3.7424,3.6305,3.561,3.5498,3.519,3.4532,3.4502,3.4158,3.3544,3.3514,3.3499,3.3469,3.2841,3.2542,3.2512,3.2512,3.2516,3.2594,3.3141,3.3443,3.3479,3.3479,3.3547,3.3547,3.3547,3.3566,3.3505,3.3073,3.3456,3.4151,3.3685,3.3525,3.3525,3.3525,3.3525,3.3508,3.3423,3.2899,3.2324,3.2239,3.1715,3.1207,3.1241,3.2357,3.3423,3.3457,3.3415,3.3211,3.2602,3.1281,2.968,2.7872,2.6898,2.651,2.6929,2.685,2.6488,2.5761,2.5,2.4255,2.3528,2.2801,2.2344,2.231,2.231,2.2415,2.2738,2.3049,2.3376,2.3725,2.3725,2.3852,2.4151,2.3837,2.3816,2.4151,2.4207,2.4629,2.5383,2.5419,2.5897,3.6854,3.8362,3.9451,3.9021,3.9076,3.926,3.9387,3.9103,3.8791,3.874,3.8539,3.837,3.85,3.9227,4.0054,4.0798,4.1221,4.1508,4.1694,4.1271,4.0933,4.0916,4.1255,4.1407,4.1221,4.1863,4.2134,4.1762,4.0517,3.9267,3.8004,3.7124,3.626,3.5525,3.5529,3.5429,3.525,3.4726,3.4382,3.4218,3.3724,3.3499,3.3484,3.332,3.2976,3.2512,3.2512,3.2255,3.1811,3.1977,3.2046,3.2048,3.2048,3.2367,3.2841,3.2841,3.3486,3.4296,3.4164,3.4297,3.4481,3.4895,3.5064,3.5064,3.5064,3.5064,3.4827,3.3711,3.3271,3.2865,3.1765,3.1326,3.1326,3.1884,3.273,3.3558,3.41,3.3835,3.3292,3.2656,3.0957,2.9476,2.8987,2.8656,2.8425,2.8481,2.7921,2.7266,2.6505,2.5778,2.5033,2.4289,2.3562,2.2902,2.2361,2.231,2.2654,2.3552,2.3649,2.3858,2.4147,2.4147,2.3928,2.3455,2.3369,2.3369,2.3477,2.4306,2.4831,2.5052,2.5905,2.7053,3.6939,3.7669,3.8122,3.7126,3.7632,3.8196,3.7681,3.7751,3.787,3.7939,3.7607,3.7557,3.8286,3.9359,4.0341,4.1085,4.1542,4.1931,4.2252,4.1931,4.1677,4.1677,4.2269,4.2422,4.1745,4.2299,4.2339,4.1319,4.0476,3.9462,3.8243,3.7156,3.6246,3.5519,3.5504,3.5504,3.5504,3.5115,3.4921,3.4921,3.4562,3.4382,3.4382,3.4382,3.4173,3.3829,3.3829,3.3455,3.2826,3.2826,3.2647,3.2392,3.2788,3.3176,3.3541,3.3897,3.4474,3.507,3.507,3.5052,3.5064,3.5487,3.5622,3.5622,3.5622,3.5407,3.4977,3.4158,3.3466,3.2772,3.1616,3.1523,3.1784,3.1893,3.2917,3.3912,3.4019,3.352,3.2594,3.1062,2.912,2.7966,2.879,2.8091,2.7662,2.8359,2.7824,2.7182,2.6742,2.5761,2.4949,2.4557,2.3833,2.3105,2.2361,2.2885,2.3243,2.3185,2.3936,2.4309,2.413,2.4445,2.4313,2.3696,2.359,2.3415,2.3189,2.3838,2.459,2.5448,2.6099,2.751,3.6966,3.6595,3.6219,3.4921,3.6024,3.7166,3.5959,3.6727,3.7642,3.7404,3.7065,3.7098,3.8259,3.9348,4.0339,4.1064,4.1371,4.1745,4.2489,4.2422,4.2337,4.2422,4.3436,4.369,4.2557,4.2898,4.2348,4.0498,4.0078,3.9495,3.8654,3.7162,3.6088,3.5519,3.5504,3.5504,3.5504,3.5504,3.5504,3.5504,3.5504,3.5504,3.5504,3.5504,3.5459,3.537,3.5484,3.5157,3.4525,3.4634,3.4348,3.3879,3.4574,3.4904,3.5074,3.5694,3.5929,3.5993,3.5993,3.5933,3.5893,3.569,3.5622,3.5577,3.547,3.5052,3.4559,3.4364,3.347,3.2348,3.1662,3.1929,3.229,3.1775,3.3078,3.4225,3.3746,3.2935,3.1524,2.8979,2.7079,2.6396,2.8164,2.6798,2.6027,2.7717,2.7249,2.6691,2.6691,2.5575,2.476,2.4675,2.4069,2.3393,2.2649,2.3748,2.3985,2.2818,2.4196,2.4781,2.4143,2.4729,2.4837,2.4331,2.4101,2.3771,2.3386,2.3517,2.4455,2.6123,2.6279,2.7731,3.6171,3.5446,3.4937,3.4646,3.49,3.5275,3.5621,3.5823,3.5806,3.53,3.5974,3.6554,3.6225,3.8327,4.0315,4.1061,4.221,4.3301,4.4079,4.3081,4.2523,4.3149,4.2371,4.2168,4.3132,4.2732,4.2489,4.2698,4.0833,3.8905,3.7021,3.615,3.5624,3.5504,3.5504,3.5504,3.5504,3.5504,3.5504,3.5504,3.5504,3.5504,3.5504,3.5504,3.519,3.4715,3.534,3.5243,3.4685,3.5313,3.5514,3.5403,3.5568,3.5948,3.6476,3.658,3.702,3.7542,3.7542,3.7506,3.7297,3.6028,3.5622,3.5515,3.4941,3.4688,3.4364,3.3193,3.2704,3.2348,3.1581,3.1898,3.2537,3.2998,3.3387,3.3826,3.4327,3.2579,3.0479,2.891,2.787,2.7674,2.8973,2.7924,2.7276,2.8592,2.7588,2.6691,2.6691,2.6471,2.6082,2.5473,2.5304,2.4915,2.4171,2.4371,2.4644,2.5017,2.5334,2.5433,2.5314,2.5433,2.5176,2.4484,2.4424,2.4373,2.4279,2.5219,2.5854,2.6219,2.7161,2.8536,3.6348,3.5707,3.5029,3.4652,3.5126,3.5466,3.4739,3.5081,3.5363,3.474,3.5391,3.6088,3.6119,3.83,4.0087,4.0017,4.1279,4.2495,4.3304,4.2785,4.2545,4.3239,4.2705,4.2235,4.2094,4.1714,4.1262,4.0879,3.9392,3.8233,3.7689,3.6275,3.5504,3.5504,3.4986,3.4691,3.4691,3.4691,3.4691,3.4758,3.5279,3.5504,3.5504,3.5504,3.5325,3.5075,3.5784,3.5949,3.5729,3.6499,3.6838,3.6894,3.7264,3.7588,3.7923,3.837,3.8204,3.7853,3.7853,3.735,3.6582,3.5825,3.5629,3.5654,3.5696,3.4915,3.3873,3.3203,3.2765,3.2276,3.1211,3.1953,3.3032,3.3048,3.3324,3.3485,3.3104,3.1498,2.9818,2.8764,2.8041,2.7936,2.9207,2.8452,2.8148,2.9387,2.8602,2.774,2.7334,2.7283,2.6843,2.5727,2.5609,2.5304,2.4574,2.5186,2.5456,2.505,2.5744,2.5998,2.5625,2.5981,2.5828,2.5084,2.5067,2.4864,2.4506,2.5047,2.5618,2.6224,2.6749,2.8164,3.6524,3.5903,3.5259,3.4639,3.5365,3.5734,3.3944,3.4506,3.5183,3.4432,3.4831,3.5584,3.6261,3.8003,3.9178,3.8754,3.9784,4.1132,4.2327,4.2226,4.2397,4.3421,4.3059,4.2333,4.1229,4.0708,4.0101,3.9122,3.785,3.7376,3.8,3.618,3.5213,3.5213,3.4245,3.3671,3.3671,3.3876,3.4027,3.4027,3.4986,3.5504,3.5504,3.5504,3.5504,3.5569,3.6275,3.6737,3.6904,3.7732,3.8035,3.8092,3.869,3.8799,3.8745,3.9385,3.8861,3.7817,3.7817,3.7064,3.6063,3.6063,3.5905,3.5756,3.6104,3.5061,3.3651,3.3552,3.3044,3.2258,3.1351,3.2353,3.3454,3.2944,3.312,3.2978,3.1502,3.0327,2.9373,2.8695,2.8112,2.8122,2.9399,2.8835,2.8642,2.9892,2.9465,2.8704,2.7891,2.7789,2.7317,2.5981,2.5845,2.5592,2.5,2.6015,2.6201,2.5048,2.6048,2.6437,2.5862,2.6387,2.642,2.5845,2.5845,2.5541,2.498,2.498,2.551,2.6557,2.6557,2.7869,3.5873,3.514,3.4608,3.4514,3.46,3.4512,3.3682,3.4072,3.4403,3.3742,3.4132,3.4808,3.5484,3.6336,3.7155,3.7717,3.8534,4.0108,4.2894,4.1996,4.1846,4.4035,4.2294,4.1166,4.1853,4.0567,3.9926,4.0473,3.7764,3.6,3.5794,3.4735,3.4163,3.4163,3.3241,3.2749,3.2749,3.3602,3.4027,3.4027,3.4986,3.5504,3.5504,3.5504,3.5504,3.5569,3.6275,3.7024,3.7748,3.8469,3.8799,3.8799,3.8854,3.8469,3.7921,3.7978,3.7946,3.7767,3.7767,3.7735,3.763,3.763,3.6718,3.5521,3.4883,3.4565,3.4303,3.3668,3.3021,3.2586,3.3084,3.3433,3.3566,3.3502,3.3104,3.2162,3.0205,2.9626,2.9326,2.8647,2.8448,2.8794,3.0021,2.9156,2.8695,2.9921,2.9465,2.8704,2.7891,2.7789,2.7503,2.6674,2.659,2.6573,2.6488,2.6607,2.664,2.6505,2.6623,2.6657,2.659,2.6657,2.6657,2.659,2.659,2.6556,2.6488,2.6488,2.6911,2.7639,2.7639,2.8539,3.4976,3.4703,3.4581,3.36,3.3527,3.3498,3.2825,3.3291,3.3814,3.3544,3.4023,3.4681,3.5385,3.6117,3.6693,0.0,0.0,0.0,4.0459,4.0112,4.0144,4.1406,4.0686,4.0181,4.0385,3.9832,3.9169,3.8448,3.7172,3.5942,3.4811,3.3734,3.334,3.3634,3.2709,3.2267,3.2267,3.3146,3.3466,3.3171,3.4773,3.5504,3.5504,3.5504,3.5504,3.5569,3.6275,3.6783,3.7144,3.7905,3.8246,3.8246,3.8246,3.8035,3.7822,3.7822,3.7515,3.7084,3.7084,3.6814,3.643,3.643,3.6014,3.5569,3.5689,3.517,3.4379,3.3727,3.3305,3.3081,3.2967,3.3282,3.3582,3.3582,3.3081,3.2251,3.1016,3.0126,2.9492,2.9234,2.8805,2.8654,2.9134,2.9077,2.9253,3.0087,2.9976,2.9493,2.8634,2.8518,2.8044,2.6826,2.6691,2.6691,2.6691,2.6691,2.6894,2.7334,2.6945,2.7114,2.8027,2.7182,2.6911,2.7368,2.6928,2.6691,2.6691,2.6691,2.6843,2.7165,2.757,2.8399,3.4005,3.3915,3.4002,3.2846,3.2652,3.2601,3.222,3.247,3.2986,3.3393,3.3858,3.4457,3.534,3.5943,3.6337,0.0,0.0,3.7875,3.9065,3.8969,3.9046,3.966,3.9668,3.9451,3.9152,3.9294,3.8767,3.7181,3.6618,3.5655,3.4199,3.2968,3.2529,3.3234,3.2143,3.1757,3.1961,3.2738,3.3093,3.3031,3.4691,3.5504,3.5504,3.5504,3.5619,3.5831,3.6165,3.6508,3.6964,3.7338,3.7456,3.7456,3.7456,3.7279,3.7131,3.7131,3.6753,3.6275,3.6275,3.5943,3.5504,3.5504,3.5504,3.5589,3.5858,3.5305,3.4382,3.3918,3.3668,3.3437,3.2975,3.3235,3.3582,3.3582,3.2935,3.2074,3.1381,3.0358,2.9584,2.9584,2.8985,2.8559,2.8748,2.8966,2.9316,2.9935,3.0021,2.9724,2.8846,2.8921,2.8558,2.7147,2.7029,2.7029,2.7029,2.7029,2.7249,2.7755,2.7537,2.7757,2.8602,2.7824,2.7621,2.8146,2.7638,2.7368,2.7368,2.7368,2.7486,2.7723,2.8247,2.8907,3.289,3.2607,3.2607,3.2593,3.2221,3.1886,3.209,3.1637,3.1675,3.3212,3.3499,3.3918,3.525,3.5504,3.5718,3.6492,3.6615,0.0,3.9646,3.9204,3.8908,3.9691,3.9564,3.914,3.8467,3.8988,3.892,3.7857,3.6166,3.4768,3.386,3.2278,3.1835,3.2817,3.1404,3.1044,3.1961,3.2404,3.3101,3.4027,3.4986,3.5504,3.5504,3.5504,3.5894,3.6554,3.5831,3.6368,3.7764,3.6904,3.66,3.66,3.66,3.6165,3.5504,3.5504,3.5504,3.5504,3.5504,3.5504,3.5504,3.5504,3.5504,3.5385,3.4696,3.4487,3.4472,3.4472,3.3999,3.3504,3.355,3.3582,3.3582,3.3582,3.2573,3.1435,3.0674,2.9992,2.9484,2.9484,2.8943,2.8701,2.9271,2.8919,2.8685,2.9316,2.9406,2.907,2.8214,2.8761,2.8843,2.7889,2.7772,2.7772,2.7772,2.7772,2.7772,2.7789,2.8535,2.8619,2.7823,2.8552,2.8958,2.9011,2.8958,2.8958,2.8958,2.8958,2.9347,3.0074,3.0074,3.048,3.1004,3.0841,3.0913,2.9823,2.9544,2.9591,2.9605,3.0143,3.0982,3.2334,3.3084,3.3903,3.525,3.5504,3.5718,3.6508,3.6615,3.6877,3.7604,3.8199,3.8677,3.8812,3.9595,3.9831,3.9151,3.9251,3.8669,3.6858,3.6239,3.511,3.3372,3.2382,3.1807,3.1847,3.1976,3.2072,3.1961,3.347,3.4113,3.4027,3.4986,3.5504,3.5504,3.5504,3.5619,3.5846,3.5619,3.5797,3.6196,3.5958,3.5831,3.5785,3.5301,3.5311,3.5444,3.4981,3.51,3.5504,3.5504,3.5504,3.5504,3.5504,3.5504,3.537,3.4681,3.4472,3.4292,3.338,3.2996,3.2905,3.2888,3.2895,3.2895,3.2895,3.2213,3.1343,3.0653,2.9997,2.9418,2.8964,2.8329,2.7944,2.8125,2.7993,2.8091,2.8685,2.8779,2.8635,2.8255,2.842,2.8294,2.7477,2.775,2.7948,2.7823,2.7351,2.7503,2.8552,2.7858,2.801,2.933,2.8619,2.8433,2.9011,2.8467,2.845,2.9011,2.845,2.8856,3.0108,3.0108,3.0497,0.0,2.9314,2.9352,2.8331,2.8331,2.8622,2.8892,2.9672,3.0725,3.2357,3.3366,3.4334,3.5723,3.6199,3.6538,3.698,3.7024,3.7058,3.6956,3.8132,3.906,3.922,3.9299,3.931,3.9416,3.9402,3.8394,3.5965,3.5306,3.4399,3.2852,3.2294,3.1978,3.1621,3.2202,3.2471,3.2554,3.3874,3.4582,3.4543,3.5213,3.5504,3.5504,3.5504,3.5668,3.5894,3.5619,3.5683,0.0,3.5334,3.5115,3.5055,3.4367,3.4367,3.4696,3.4262,3.4382,3.4786,3.5026,3.5115,3.5115,3.5115,3.4786,3.4292,3.3858,3.3739,3.3514,3.2437,3.217,3.2272,3.2547,3.2382,3.2272,3.2532,3.2064,3.1345,3.0657,3.0028,2.9385,2.8727,2.8038,2.7625,2.7625,2.7625,2.771,2.8091,2.814,2.8121,2.8005,2.8192,2.8075,2.7338,2.8005,2.8367,2.7992,2.7702,2.8095,2.933,2.8247,2.8197,2.9634,2.9042,2.8907,2.9397,2.8924,2.9059,2.982,2.933,2.9583,3.0531,3.0531,3.0768,0.0,2.8129,2.8056,2.8056,2.8311,2.8758,2.957,3.01,0.0,3.2997,3.4089,3.5102,3.6453,3.7237,3.77,3.769,3.769,3.7694,3.7529,3.8727,3.9923,4.0719,3.8789,3.7925,3.9183,3.9244,3.8048,3.5256,3.3751,3.2754,3.2131,3.2127,3.2077,3.1988,3.2061,3.2562,3.3436,3.3886,3.461,3.5504,3.5504,3.5504,3.5504,3.5504,3.5894,3.6492,3.5782,3.5894,3.6446,3.5087,3.4547,3.4487,3.3769,3.3529,3.3559,3.3455,3.3484,3.3649,3.4262,3.4472,3.4472,3.4427,3.3544,3.2512,3.2512,3.2482,3.2317,3.1704,3.1482,3.164,3.2327,3.2007,3.1682,3.2382,3.2007,3.133,3.0597,2.9983,2.937,2.8667,2.8008,2.7625,2.7625,2.7625,2.7625,2.7625,2.7625,2.7534,2.741,2.8029,2.8155,2.7413,2.8452,2.8968,2.8333,2.8732,2.9279,2.9989,2.9313,2.889,2.889,2.9634,3.0006,2.9956,3.0006,3.0378,3.1123,3.1123,3.1123,3.1123,3.1173,3.1157,2.9026,0.0,2.7821,2.7821,2.8345,2.8954,0.0,3.0162,3.1351,3.2359,0.0,3.5061,3.6454,3.6821,3.6937,3.6886,3.6904,3.6863,3.6804,3.8344,4.0022,4.1498,3.9553,3.8048,3.8266,3.7455,3.5995,3.3768,3.2484,3.1767,3.1642,3.1694,3.1837,3.1793,3.2935,3.3676,3.3884,3.4698,3.5279,3.5504,3.5504,3.5504,3.5504,3.5504,3.5619,3.5733,3.5554,3.5619,3.5703,3.5389,3.5265,3.5145,3.3963,3.3799,3.4128,3.311,3.338,3.4262,3.4427,3.4472,3.4397,3.3888,3.317,3.2512,3.2512,3.2153,3.1676,3.1511,3.1482,3.1539,3.1682,3.164,3.1524,3.1739,3.164,3.121,3.0058,2.9684,2.9235,2.8038,2.7679,2.7625,2.7625,2.7625,2.7625,2.7625,2.7625,2.7615,2.7549,2.7705,2.7739,2.7552,2.8604,2.9307,2.9145,2.9031,2.9059,2.9245,2.8518,2.8095,2.8095,2.8839,2.8975,2.833,2.8941,2.9617,3.0362,3.0362,3.0362,3.0378,3.0937,3.0903,2.952,2.887,2.8298,2.8298,2.9199,2.9986,2.969,0.0,0.0,0.0,0.0,3.5551,3.7006,3.7535,3.7601,3.7212,3.7411,3.7575,3.7567,3.8103,3.9159,4.0896,3.8019,3.5982,3.6364,3.5871,3.468,3.271,3.2003,3.1456,3.1078,3.1512,3.1902,3.2072,3.3312,3.4027,3.4027,3.4986,3.5504,3.5504,3.5504,3.5504,3.5504,3.5504,3.5504,3.5504,3.5504,3.5504,3.5489,3.516,3.504,3.4936,3.3903,3.3529,3.3484,3.2781,3.2766,3.3215,3.3814,3.4023,3.3963,3.3604,3.2841,3.2063,3.2063,3.1824,3.1482,3.1482,3.1482,3.1482,3.1482,3.1482,3.1392,3.1135,3.13,3.118,2.9864,2.9579,2.9265,2.8248,2.7784,2.7625,2.7625,2.7625,2.7625,2.7625,2.7625,2.7625,2.7625,2.7625,2.7455,2.7156,2.8483,2.9278,2.8986,2.9606,3.0006,3.0006,2.8619,2.811,2.8839,2.8941,2.8941,2.8873,2.9617,2.9854,2.96,2.9939,3.0108,3.0125,3.0514,3.0666,2.987,2.9765,2.9554,2.9538,3.0425,3.121,3.0911,0.0,0.0,0.0,0.0,0.0,3.7658,3.8497,3.8773,3.8067,3.8511,3.8874,3.8946,3.7967,3.7779,3.9139,3.573,3.3728,3.4501,3.4476,3.3795,3.2281,3.2031,3.1599,3.0884,3.1602,3.2327,3.2834,3.3739,3.4245,3.4245,3.5067,3.5504,3.5504,3.5504,3.5504,3.5504,3.5504,3.5504,3.5504,3.5504,3.5504,3.5459,3.4876,3.4637,3.4562,3.3903,3.3305,3.2781,3.2587,3.2228,3.1973,3.2991,3.3517,3.3608,3.3276,3.2541,3.1781,3.1682,3.1697,3.1697,3.1697,3.1697,3.164,3.1524,3.1582,3.1459,3.0672,3.1031,3.115,2.9729,2.9505,2.9355,2.8592,2.7979,2.7625,2.7625,2.7625,2.7625,2.7625,2.7625,2.7625,2.7625,2.7625,2.74,2.6943,2.8373,2.9195,2.8742,3.0235,3.119,3.119,2.9296,2.8755,3.0057,2.9381,2.9397,3.026,3.0666,3.0345,2.933,2.9854,3.0108,3.0108,3.0226,3.0548,2.9773,3.076,3.1916,3.183,3.1588,3.1674,3.2851,0.0,0.0,0.0,0.0,0.0,0.0,3.8497,3.894,3.8669,3.8982,3.9352,3.9434,3.7784,3.6377,3.6133,3.5175,3.4435,3.4331,3.3746,3.3208,3.2968,3.2039,3.1614,3.1784,3.2219,3.2903,3.3739,3.4758,3.5279,3.5279,3.5424,3.5504,3.5504,3.5504,3.5504,3.5504,3.5504,3.5504,3.5504,3.5504,3.5504,3.5489,3.5385,3.5355,3.528,3.4592,3.4262,3.4038,3.2916,3.2796,3.314,3.2781,3.3407,3.4109,3.2379,3.2465,3.3182,3.2571,3.2437,3.2437,3.2437,3.2437,3.2272,3.164,3.1951,3.2087,3.0824,3.1031,3.1031,2.916,2.919,2.9205,2.7964,2.7685,2.7625,2.7625,2.7625,2.7625,2.7625,2.7625,2.7625,2.7625,2.7625,2.778,2.8181,2.8933,2.9581,2.9959,3.0714,3.119,3.119,3.0294,2.9854,3.0091,2.9381,2.9634,3.1004,2.9905,2.982,3.0852,3.0362,3.0108,3.0125,3.0734,3.0768,3.0441,3.1066,3.1675,3.2754,3.3045,3.323,3.3547,0.0,0.0,0.0,0.0,0.0,3.8362,3.8707,3.9062,3.9645,3.9345,3.8971,3.8728,3.7069,3.5641,3.5118,3.4578,3.4209,3.4047,3.347,3.2809,3.2227,3.1424,3.0947,3.083,3.1977,3.282,3.3241,3.4691,3.5504,3.5504,3.5504,3.5504,3.5504,3.5504,3.5504,3.5504,3.5504,3.5504,3.5504,3.5504,3.5504,3.5504,3.5504,3.5504,3.5474,3.516,3.4801,3.4322,3.3006,3.2899,3.345,3.313,3.3715,3.4415,3.3482,3.3376,3.3531,3.3235,3.3145,3.3145,3.3145,3.2571,3.191,3.1582,3.1739,3.1728,3.0713,3.0746,3.0731,2.9819,2.9325,2.9071,2.9146,2.8293,2.7745,2.8068,2.7814,2.7625,2.7625,2.7625,2.7625,2.7625,2.7625,2.781,2.8431,2.8732,2.9271,3.0208,3.0251,3.0352,3.0594,3.0666,3.0531,3.0125,3.0159,3.0497,3.119,3.0531,3.0328,3.0598,3.0277,3.0108,3.0125,3.0446,3.0632,3.047,3.0828,3.1142,3.2746,0.0,3.4094,3.4076,0.0,0.0,0.0,0.0,0.0,3.8606,3.8743,3.9097,4.0168,3.9565,3.8709,3.8311,3.6851,3.5631,3.4765,3.4236,3.3796,3.3533,3.3119,3.2416,3.1298,3.0834,3.0435,3.0177,3.1696,3.2678,3.289,3.4624,3.5504,3.5504,3.5504,3.5504,3.5504,3.5504,3.5504,3.5504,3.5504,3.5504,3.5504,3.5504,3.5504,3.5504,3.5504,3.5504,3.5489,3.5325,3.4756,3.395,3.3036,3.3089,3.3521,3.3521,3.4117,3.4797,3.4487,3.4237,3.4037,3.3887,3.3836,3.3786,3.3633,3.2718,3.1739,3.1739,3.1739,3.1573,3.0728,3.0627,3.0657,3.0357,2.9639,2.9295,3.0133,2.8951,2.7979,2.8502,2.8023,2.7625,2.7625,2.7625,2.7625,2.7625,2.7625,2.781,2.8431,2.8651,2.9155,3.0239,3.002,2.9929,3.0146,3.0791,3.0954,3.0378,3.0903,3.119,3.119,3.119,3.092,3.0362,3.0362,3.0362,3.0362,3.0362,3.0666,2.8764,3.0073,3.1486,3.1689,3.2179,0.0,3.5103,3.5632,0.0,3.7486,0.0,0.0,3.7906,3.8264,3.8865,3.9586,3.9565,3.9363,3.8879,3.7833,3.6517,3.4866,3.4236,3.3483,3.2428,3.2303,3.1825,3.0758,3.0633,3.0724,3.1071,3.2033,3.3031,3.3876,3.492,3.5504,3.5504,3.5504,3.5504,3.5504,3.5504,3.5504,3.5504,3.5504,3.5504,3.5504,3.5504,3.5504,3.5504,3.5504,3.5504,3.5444,3.4801,3.3769,3.2691,3.3211,3.3474,3.361,3.361,3.4431,3.5337,3.4068,3.4496,3.5362,3.4736,3.4528,3.4382,3.3786,3.3093,3.2547,3.2547,3.2547,3.2198,3.0824,3.1001,3.112,2.9909,3.0028,3.0223,2.9744,2.9041,2.8547,2.8592,2.8023,2.7625,2.7625,2.7625,2.7625,2.7625,2.7625,2.781,2.8431,2.9036,2.9685,3.0336,3.0884,3.0898,3.0302,3.0845,3.1173,3.1123,3.1157,3.119,3.119,3.119,3.1173,3.1123,3.1123,3.1123,3.1123,3.1123,3.114,2.8368,2.9714,3.0983,3.1429,3.2345,0.0,0.0,3.5356,3.5934,3.693,3.7481,0.0,3.7716,3.8497,3.906,3.8582,3.8523,3.8297,3.752,3.6371,3.5328,3.4363,3.3721,3.3081,3.229,3.1612,3.106,3.0645,3.0294,3.0148,3.0292,3.118,3.2177,3.3101,3.4041,3.4839,3.5504,3.5504,3.5504,3.5504,3.5504,3.5504,3.5504,3.5504,3.5504,3.5504,3.5504,3.5265,3.4906,3.5325,3.5011,3.428,3.4455,3.4224,3.3971,3.4651,3.5155,3.5542,3.5067,3.5842,3.6865,3.5919,3.5927,3.6287,3.6021,3.5324,3.4528,3.4284,3.3443,3.2477,3.2064,3.191,3.1777,3.1252,3.1016,3.0761,3.0253,3.0028,2.9968,3.0118,2.9325,2.8727,2.9146,2.8652,2.8068,2.7634,2.7934,2.8053,2.7619,2.7949,2.8444,2.9049,3.008,3.0315,2.9381,3.018,3.0477,2.9766,3.0658,3.119,3.119,3.119,3.119,3.119,3.119,3.119,3.119,3.119,3.119,3.119,3.119,3.119,2.8233,2.9385,3.0417,3.1258,0.0,0.0,3.4388,3.5189,3.5966,3.6837,3.7239,3.7301,3.6999,3.7725,3.8138,3.73,3.7181,3.6939,3.6287,3.521,3.4261,3.3709,3.3144,3.2516,3.1775,3.1047,3.0545,3.0369,3.0005,2.9792,2.9792,3.0983,3.196,3.2593,3.3822,3.4839,3.5504,3.5504,3.5504,3.5504,3.5504,3.5504,3.5504,3.5504,3.5504,3.5504,3.5504,3.5235,3.4816,3.507,3.4508,3.3576,3.4275,3.4634,3.4816,3.5722,3.6372,3.6769,3.6472,3.7081,3.7787,3.7026,3.6772,3.6721,3.6266,3.5404,3.4528,3.4087,3.3287,3.2437,3.1697,3.1482,3.1482,3.1482,3.1001,3.0567,3.0776,3.0328,2.9998,3.0417,2.9804,2.922,2.9265,2.8891,2.8442,2.7964,2.8113,2.8188,2.7934,2.8113,2.8568,2.9424,3.0499,3.0521,2.9057,2.9859,3.007,2.9152,3.0081,3.0699,3.0918,3.0918,3.0918,3.0918,3.1095,3.119,3.119,3.119,3.119,3.119,3.1015,3.0918,2.8233,2.9086,2.9894,0.0,0.0,0.0,3.4173,3.5097,3.611,3.746,3.7144,3.6384,3.5604,3.5692,3.587,3.587,3.5648,3.5508,3.5423,3.4533,3.3671,3.3131,3.2554,3.1788,3.0721,3.0608,3.0382,2.9829,2.9792,2.9792,2.9792,3.1549,3.2593,3.2593,3.4491,3.5504,3.5504,3.5504,3.5504,3.5504,3.5504,3.5504,3.5504,3.5489,3.5489,3.5489,3.5489,3.5489,3.5429,3.4741,3.4061,3.3568,3.4395,3.4691,3.4908,3.6282,3.6852,3.6919,3.7679,3.7922,3.7804,3.7043,3.6789,3.6544,3.5079,3.4592,3.4333,3.3002,3.2586,3.2437,3.1697,3.1482,3.1482,3.1482,3.1001,3.0702,3.1375,3.0986,3.0507,3.0507,3.0507,3.0088,2.8831,2.8607,2.8607,2.8607,2.8038,2.7844,2.8532,2.8023,2.8165,2.946,3.0148,3.0253,2.9639,3.0158,2.9902,2.8604,2.9058,2.9673,3.0251,3.0293,3.0293,3.0293,3.0878,3.119,3.119,3.119,3.119,3.119,3.0559,3.0293,2.8456,2.941,3.0548,3.188,0.0,0.0,0.0,3.4666,0.0,0.0,3.6022,3.5559,3.461,3.4926,3.4811,3.341,3.3472,3.3472,3.2764,3.2364,3.2077,3.1913,3.1411,3.0972,3.0645,3.0269,2.9967,2.9804,2.9792,2.9792,2.9792,3.0983,3.1888,3.2593,3.3822,3.4758,3.5504,3.5504,3.5504,3.5504,3.5504,3.5504,3.5489,3.4996,3.4786,3.4756,3.4292,3.3829,3.335,3.2677,3.2556,3.2894,3.4187,3.5042,3.5723,3.7652,3.869,3.9059,3.8787,3.9005,3.9225,3.7973,3.7567,3.732,3.5794,3.4693,3.3735,3.2841,3.2231,3.1796,3.1582,3.1482,3.1482,3.1482,3.1375,3.115,3.0866,3.1031,3.1091,3.0597,3.0163,2.9879,2.9939,2.9579,2.928,2.928,2.949,2.9699,2.9909,2.9759,2.9968,3.0851,3.0687,3.0253,2.9639,2.9358,2.8987,2.8525,2.8271,2.8575,2.9629,2.9673,2.9865,3.0293,3.0477,3.0797,3.119,3.0781,3.0559,3.0559,2.9951,2.9673,2.8516,2.9357,3.054,3.2135,3.2706,3.3108,3.4085,3.4301,3.4339,3.4321,3.4341,3.4192,3.3533,3.3663,3.3431,3.2177,3.2241,3.2169,3.1468,3.1386,3.1311,3.111,3.0809,3.0532,3.0306,2.9993,2.9792,2.9792,2.9792,2.9934,3.0355,3.1267,3.2177,3.3101,3.4109,3.4905,3.5504,3.5235,3.51,3.51,3.4831,3.4711,3.4696,3.4547,3.4472,3.4457,3.4053,3.3514,3.2901,3.2766,3.293,3.345,3.4936,3.5943,3.6841,3.8989,4.0041,4.0397,4.0173,4.0388,4.053,3.9127,3.864,3.8295,3.6289,3.5118,3.4156,3.2973,3.2272,3.1853,3.1582,3.1278,3.1087,3.1409,3.133,3.0962,3.0511,3.0542,3.0527,3.0115,2.9938,2.9947,3.0108,3.0028,2.9829,2.9537,2.9491,2.942,2.9248,2.9702,3.0085,3.019,3.0357,3.0148,2.9265,2.8831,2.8447,2.8137,2.781,2.7944,2.867,2.8919,2.9225,2.9585,2.9805,3.0123,3.0477,3.0123,2.9935,2.9951,2.9316,2.9042,2.8682,2.9304,3.0258,3.2183,3.3124,3.3572,3.3686,3.3739,3.3518,3.2749,3.2593,3.2593,3.2464,3.2186,3.1882,3.1819,3.1509,3.1248,3.1248,3.1248,3.1072,3.0595,3.0545,3.0344,2.9842,2.9792,2.9792,2.9792,2.9869,3.0279,3.118,3.2177,3.3073,3.3873,3.4898,3.532,3.518,3.4696,3.4382,3.4304,3.3769,3.3499,3.3514,3.4053,3.4262,3.4203,3.4262,3.3918,3.3365,3.4098,3.4379,3.4481,3.6133,3.7177,3.7972,4.012,4.0903,4.0995,4.1578,4.181,4.1584,4.0289,3.9787,3.9215,3.6551,3.5679,3.5168,3.3096,3.2439,3.2204,3.1402,3.0646,3.0303,3.1013,3.0758,3.0334,3.0199,2.9688,2.9287,2.936,2.9822,3.0148,2.9829,3.0178,3.0211,2.9435,2.8591,2.7871,2.7441,2.8469,2.9072,2.844,2.9604,2.9918,2.8755,2.8674,2.8397,2.7709,2.7715,2.7634,2.7625,2.8189,2.8511,2.8511,2.9088,2.9406,2.9406,2.9361,2.9316,2.9316,2.8685,2.8415,3.0814,3.0955,3.1518,3.3532,3.3991,3.3546,3.2109,3.1815,3.196,3.2464,3.2593,3.2393,3.1683,3.1421,3.1153,3.0381,3.0199,3.0131,3.0131,3.0131,3.0093,2.998,2.9967,2.993,2.9804,2.9792,2.9792,2.9792,3.0482,3.097,3.118,3.282,3.3593,3.3269,3.4218,3.4095,3.2911,3.3443,3.3369,3.2678,3.322,3.3499,3.3484,3.3095,3.2647,3.2198,3.2706,3.2557,3.2048,3.3215,3.3427,3.3213,3.5789,3.6901,3.7335,3.9958,4.0903,4.0995,4.1578,4.181,4.1669,4.0806,3.9799,3.8614,3.6898,3.5682,3.4415,3.2374,3.1413,3.0644,2.9386,2.8838,2.8727,2.8848,2.9116,2.9336,2.9289,2.9157,2.9246,2.9932,2.9779,2.9842,3.0889,3.0776,3.0253,2.9464,2.8697,2.813,2.8033,2.8661,2.9004,2.8878,2.9283,2.945,2.9189,2.9296,2.9086,2.8427,2.8382,2.8128,2.764,2.8189,2.8511,2.8511,2.9088,2.9406,2.9406,2.8919,2.8685,2.8701,2.8091,2.781,3.0983,3.1212,3.1853,3.3421,3.3214,3.2393,3.1389,3.0833,3.0709,3.1132,3.1267,3.1132,3.0633,3.0558,3.0343,2.9856,2.9792,2.9792,2.9792,2.9792,2.9792,2.9792,2.9792,2.9792,2.9792,2.9792,2.9792,2.9792,3.0279,3.0696,3.118,3.2105,3.2612,3.2503,3.2958,3.2709,3.1622,3.1774,3.1631,3.1154,3.1718,3.2167,3.2557,3.2527,3.2153,3.1511,3.2228,3.2497,3.2557,3.3559,3.3963,3.4179,3.64,3.7303,3.76,4.035,4.1313,4.1429,4.2306,4.26,4.2436,4.1375,4.0423,3.9266,3.7154,3.5655,3.4153,3.1719,3.054,2.968,2.8268,2.7533,2.7176,2.7176,2.8105,2.8793,2.8125,2.8008,2.8261,2.913,2.8997,2.9342,3.1174,3.0353,2.913,2.8464,2.753,2.6987,2.708,2.7823,2.8039,2.7188,2.8061,2.8477,2.7995,2.8589,2.8739,2.8173,2.8412,2.8293,2.7655,2.8189,2.8367,2.8091,2.8352,2.8543,2.8543,2.8222,2.8091,2.8042,2.776,2.7625,3.0956,3.1483,3.209,3.2611,3.1965,3.118,3.097,3.0343,2.9792,2.9792,2.9792,2.9792,2.9792,2.9792,2.9792,2.9792,2.9792,2.9792,2.9792,2.9704,2.9641,2.9641,2.9566,2.9541,2.9641,2.9641,2.9691,2.9779,2.9934,3.0343,3.118,3.1296,3.1451,3.1792,3.1668,3.1322,3.0579,3.0149,2.9845,2.9604,2.993,3.0389,3.1117,3.1648,3.1664,3.1322,3.1961,3.2556,3.3017,3.3776,3.4435,3.5187,3.6967,3.763,3.7939,4.0671,4.1621,4.1775,4.2702,4.3031,4.2795,4.1355,4.0384,3.9329,3.6697,3.498,3.3389,3.0647,2.935,2.8408,2.6923,2.6035,2.554,2.554,2.6956,2.7931,2.6762,2.6542,2.6847,2.7817,2.8326,2.9137,3.0877,2.9446,2.7792,2.7138,2.6149,2.5509,2.5543,2.6608,2.6739,2.5236,2.6756,2.7523,2.6686,2.7893,2.8396,2.7829,2.8382,2.8412,2.7655,2.7978,2.7929,2.7408,2.766,2.766,2.7408,2.7408,2.7357,2.724,2.724,2.724,3.2781,3.3382,3.3311,3.1784,3.1336,3.097,3.0139,2.9856,2.9792,2.9792,2.9792,2.9792,2.9792,2.9792,2.9792,2.9792,2.9792,2.9792,2.9792,2.9365,2.9038,2.9038,2.8624,2.8524,2.9001,2.9038,2.9252,2.9754,3.0558,3.1031,3.118,3.1544,3.1709,3.164,3.1198,3.0282,2.8877,2.9467,2.9182,2.804,2.8789,2.9254,2.9317,2.9401,2.9837,3.0493,3.1101,3.1116,3.0797,3.1985,3.2673,3.3186,3.589,3.6918,3.7261,4.0024,4.1041,4.1028,4.1055,4.1069,4.0829,3.934,3.7698,3.5973,3.4358,3.2546,3.0619,2.8434,2.6762,2.5293,2.3935,2.3368,2.3143,2.3143,2.4263,2.5319,2.5127,2.5114,2.5524,2.7018,2.8872,3.0119,2.9909,2.8484,2.7201,2.6618,2.5572,2.472,2.4293,2.5228,2.5646,2.4898,2.6329,2.728,2.7103,2.9,2.9709,2.8547,2.9086,2.8891,2.767,2.7086,2.6707,2.6669,2.7765,2.783,2.6669,2.6669,2.6336,2.5673,2.5673,2.5673,3.1668,3.1909,3.1755,3.1309,3.0833,3.0279,2.9856,2.9792,2.9792,2.9792,2.9792,2.9792,2.9792,2.9792,2.9691,2.9365,2.9315,2.9202,2.8888,2.8637,2.8461,2.8461,2.8524,2.8662,2.89,2.9227,2.9515,2.9779,3.0216,3.0277,2.9943,3.0103,2.9889,2.9232,2.8969,2.8356,2.7387,2.7782,2.7853,2.767,2.7604,2.8117,2.9002,2.8492,2.8748,2.958,2.9834,3.0003,3.0192,3.1237,3.1903,3.2623,3.5159,3.6437,3.7067,3.9433,4.0272,4.034,4.0575,4.0122,3.9192,3.7602,3.589,3.4063,3.2078,3.0211,2.8367,2.6358,2.4874,2.3611,2.23,2.2096,2.2222,2.2222,2.3044,2.3879,2.3879,2.4416,2.5411,2.7043,2.8776,2.954,2.8076,2.7258,2.6476,2.5625,2.4871,2.4393,2.4456,2.5121,2.5272,2.4443,2.5858,2.6764,2.6662,2.7792,2.8209,2.7471,2.7683,2.7391,2.6418,2.6054,2.5892,2.5892,2.6453,2.6453,2.5892,2.5892,2.5728,2.5398,2.5398,2.5398,3.0254,3.0355,3.0335,3.0764,3.0355,2.9792,2.9792,2.9792,2.9792,2.9792,2.9792,2.9792,2.9792,2.9666,2.939,2.8812,2.8725,2.8574,2.816,2.7984,2.7896,2.7896,2.8134,2.8348,2.8499,2.89,2.9214,2.9352,2.949,2.9327,2.875,2.8725,2.8348,2.7519,2.7356,2.708,2.6747,2.6596,2.6782,2.7417,2.6782,2.7162,2.8312,2.7522,2.7575,2.8363,2.8556,2.9012,2.9676,3.0348,3.1094,3.1917,3.427,3.5522,3.6277,3.8271,3.904,3.9023,3.9007,3.8354,3.7102,3.4828,3.3166,3.1529,2.8979,2.7209,2.575,2.4124,2.2862,2.1889,2.1096,2.1209,2.1553,2.1553,2.2372,2.3138,2.3365,2.4327,2.5558,2.6983,2.8243,2.8477,2.675,2.6242,2.5751,2.4833,2.4406,2.4305,2.4569,2.5071,2.5034,2.4104,2.5279,2.6065,2.5955,2.6687,2.6965,2.6463,2.6539,2.6242,2.5425,2.5231,2.5119,2.5119,2.4697,2.457,2.4797,2.46,2.4359,2.42,2.42,2.4315,2.9558,2.99,3.0288,2.9935,2.9869,2.9792,2.9792,2.9792,2.9792,2.9792,2.9792,2.9792,2.9792,2.934,2.8787,2.8235,2.8147,2.8134,2.8109,2.7657,2.7318,2.7318,2.6892,2.6791,2.7318,2.7394,2.7632,2.816,2.8674,2.8737,2.8185,2.8147,2.8122,2.8059,2.7557,2.7268,2.7243,2.6716,2.6521,2.6589,2.6521,2.6521,2.6602,2.6008,2.6043,2.6658,2.7417,2.8106,2.8582,2.8944,2.9637,3.0594,3.2894,3.3824,3.4107,3.6166,3.6957,3.6749,3.521,3.4685,3.399,3.0208,2.8507,2.7371,2.4505,2.3152,2.2396,2.1581,2.0479,1.9603,1.9855,2.0291,2.0655,2.0655,2.1928,2.3305,2.406,2.4808,2.5619,2.6394,2.7126,2.7357,2.6615,2.5782,2.5057,2.4392,2.4589,2.4594,2.4104,2.4519,2.4644,2.4054,2.4709,2.5195,2.5163,2.6871,2.7446,2.6266,2.682,2.6627,2.5453,2.4738,2.435,2.435,2.2834,2.2445,2.3119,2.2287,2.1498,2.0835,2.0835,2.1279,2.8247,2.872,2.9412,2.9252,2.9515,2.9792,2.9792,2.9792,2.9792,2.9792,2.9792,2.9679,2.9302,2.9365,2.9176,2.826,2.8109,2.7858,2.7155,2.6879,2.6532,2.5873,2.6516,2.6843,2.6407,2.7209,2.7896,2.8097,2.8285,2.816,2.7607,2.7582,2.7419,2.7055,2.6854,2.6753,2.6753,2.6634,2.6533,2.6465,2.5873,2.5523,2.5523,2.5338,2.5505,2.6115,2.7211,2.7775,2.8013,2.8702,2.9504,3.0464,3.2262,3.3262,3.3848,3.5052,3.5474,3.5316,3.4173,3.3126,3.1924,2.9504,2.7563,2.5859,2.4001,2.2756,2.1801,2.0647,2.0058,1.9703,1.986,1.9836,2.0074,2.1175,2.231,2.3305,2.4118,2.4509,2.4894,2.5673,2.5965,2.5939,2.5216,2.5092,2.4891,2.4192,2.4216,2.4217,2.4017,2.4167,2.4356,2.4506,2.5065,2.5627,2.6107,2.6296,2.6175,2.5501,2.5287,2.4749,2.3956,2.3148,2.2786,2.2786,2.1089,2.0887,2.2274,2.1432,2.0876,2.059,2.059,2.1049,2.743,2.7821,2.8423,2.8612,2.9089,2.9503,2.9503,2.9654,2.9792,2.9792,2.9792,2.9679,2.9289,2.9528,2.9365,2.8047,2.7821,2.7435,2.6148,2.6025,2.5652,2.4636,2.5373,2.5877,2.5564,2.6432,2.7185,2.7557,2.772,2.7595,2.703,2.718,2.703,2.6546,2.6533,2.6533,2.6533,2.6176,2.6025,2.5943,2.4826,2.446,2.4755,2.4554,2.5135,2.6198,2.7084,2.7652,2.8053,2.9022,2.9766,3.045,3.1751,3.2548,3.3059,3.3708,3.3785,3.3396,3.252,3.1449,2.9947,2.7666,2.5995,2.4462,2.2764,2.1695,2.0881,2.0296,1.9912,1.9781,2.0201,2.0036,2.0009,2.1175,2.1865,2.2482,2.3327,2.393,2.4509,2.5231,2.5175,2.4905,2.4601,2.4395,2.4103,2.3813,2.3518,2.3527,2.398,2.3909,2.4137,2.4956,2.5385,2.5785,2.6271,2.5904,2.5458,2.5029,2.4117,2.3281,2.2714,2.1865,2.1491,2.1491,2.0009,1.989,2.1049,2.0139,1.9748,1.9748,1.9748,2.0204,0.0,0.0,0.0,2.7946,2.8499,2.8913,2.8925,2.9365,2.9779,2.9792,2.9792,2.9792,2.9792,2.9779,2.9227,2.757,2.7306,2.681,2.523,2.5004,2.4636,2.3661,2.3588,2.3963,2.4933,2.5016,2.5441,2.6452,2.6942,2.7005,2.6533,2.6929,2.6967,2.6496,2.6483,2.6483,2.6483,2.5463,2.4969,2.4957,2.358,2.3351,2.4151,2.3689,2.474,2.6841,2.6922,2.7531,2.8584,2.9791,3.0329,3.0389,3.1219,3.1467,3.1526,3.2243,3.1928,3.1042,3.0233,2.9399,2.8082,2.4622,2.3492,2.3036,2.0666,1.9609,1.9515,2.0298,1.9933,1.9547,2.0764,2.0872,2.059,2.059,2.0602,2.0869,2.1714,2.3113,2.4434,2.5203,2.4765,2.4432,2.4951,2.3616,2.2645,2.3207,2.2536,2.2514,2.393,2.3756,2.4038,2.5403,2.5598,2.5598,2.5624,2.5598,2.5372,2.4781,2.349,2.2424,2.1901,2.1037,2.0526,2.0515,1.9683,1.9233,1.9166,1.8395,1.8008,1.8008,1.8008,1.8462,2.6653,0.0,0.0,0.0,0.0,0.0,2.8837,2.9051,2.9289,2.9704,2.9792,2.9792,2.9792,2.9453,2.8888,2.8021,2.7871,2.7473,2.6231,2.6094,2.5721,2.4707,2.5217,2.5499,2.5004,2.5664,2.6164,2.6465,2.6214,2.6,2.585,2.5624,2.5435,2.5272,2.5272,2.5272,2.5272,2.4996,2.4505,2.3943,2.3438,2.3016,2.2674,2.3708,2.4472,2.523,2.7602,2.8795,2.9172,2.9958,3.0644,3.1219,3.1409,3.1225,3.0866,3.1554,3.0925,2.9703,2.8974,2.8098,2.6974,2.4345,2.327,2.2546,2.061,1.9907,1.9625,1.8894,1.8745,1.8814,1.8887,1.9724,2.0462,1.9824,2.0336,2.1106,2.1368,2.2035,2.2905,2.416,2.3629,2.3152,2.3689,2.3159,2.2582,2.2286,2.2419,2.2506,2.2501,2.3036,2.3692,2.4514,2.5185,2.5774,2.6189,2.5837,2.5095,2.3947,2.3155,2.2168,2.0996,2.0139,1.9333,1.8675,1.7775,1.7033,1.6341,1.7432,1.8008,1.8008,1.8654,1.9044,2.6905,2.7203,2.746,2.746,0.0,0.0,2.7943,2.8072,2.8335,2.8674,2.875,2.8812,2.9051,2.8812,2.8398,2.7846,2.7959,2.7651,2.6387,2.639,2.6166,2.5207,2.5384,2.5529,2.5385,2.5438,2.5679,2.6101,2.5586,2.5272,2.5272,2.4983,2.482,2.482,2.482,2.482,2.482,2.4394,2.3911,2.3423,2.2721,2.2527,2.2678,2.3707,2.4822,2.6169,2.806,2.9262,2.9827,3.0192,3.0674,3.1106,3.1106,3.0702,3.0163,3.0567,2.9739,2.833,2.7913,2.6783,2.5212,2.3427,2.2456,2.1609,2.0162,1.9543,1.9291,1.8874,1.9114,1.9307,1.8724,1.9299,1.9824,1.8977,1.9308,1.9956,2.0346,2.0725,2.145,2.2864,2.2643,2.2384,2.2959,2.2514,2.2038,2.1962,2.1728,2.175,2.2462,2.2554,2.304,2.4423,2.4668,2.4857,2.5252,2.4578,2.3732,2.2898,2.1873,2.0893,2.0085,1.9233,1.8345,1.7415,1.6895,1.6349,1.5799,1.6862,1.7647,1.8008,1.8529,1.8787,2.7445,2.7696,2.7657,2.7776,2.8226,0.0,2.7028,2.7107,2.7511,2.744,2.7419,2.7595,2.8021,2.8059,2.7871,2.7444,2.7783,2.7592,2.619,2.6342,2.6299,2.5635,2.4861,2.4855,2.5888,2.4967,2.4711,2.5532,2.5059,2.4707,2.4632,2.4632,2.4607,2.4544,2.4544,2.4544,2.4544,2.3644,2.3185,2.3112,2.1973,2.2163,2.3505,2.3838,2.5501,2.8194,2.8295,2.9066,3.0298,3.0372,3.0402,3.0417,3.0477,3.0088,2.949,2.948,2.8467,2.7096,2.6978,2.5415,2.3273,2.2173,2.1315,2.0529,1.9439,1.8906,1.8754,1.9507,2.0004,2.0139,1.9365,1.9177,1.8977,1.8202,1.8047,1.8281,1.905,1.9536,2.018,2.1348,2.1746,2.1992,2.2495,2.1752,2.1269,2.1748,2.0813,2.0777,2.287,2.2198,2.232,2.4446,2.3963,2.3514,2.3514,2.2607,2.1967,2.184,2.0264,1.9233,1.9023,1.825,1.7354,1.628,1.628,1.6349,1.6428,1.6636,1.7207,1.8008,1.8008,1.8008,2.7011,2.7393,2.7336,2.8434,2.883,0.0,2.8249,2.8595,2.8814,2.8079,2.8298,2.8499,2.8172,2.7745,2.7557,2.7896,2.8034,2.7836,2.713,2.6772,2.68,2.7484,2.6234,2.5765,2.69,2.5977,2.5386,2.5598,2.4707,2.3954,2.3489,2.3403,2.3263,2.2811,2.2799,2.2799,2.2799,2.2608,2.2396,2.2175,2.2578,2.2861,2.315,2.4487,2.5716,2.6938,2.8042,2.8687,2.9011,2.9549,2.9759,2.9804,3.0313,2.9804,2.8793,2.8642,2.7684,2.6301,2.5746,2.4402,2.2604,2.1331,2.0543,1.9848,1.8626,1.8437,1.8564,1.8419,1.8464,1.8462,1.8269,1.8269,1.8202,1.8008,1.8271,1.8506,1.8715,1.9132,1.9459,1.9755,2.0617,2.1385,2.1626,2.1159,2.0757,2.0847,2.0643,2.0613,2.1068,2.1597,2.2083,2.2542,2.3147,2.3514,2.3514,2.2607,2.1702,2.1096,1.9948,1.8613,1.7179,1.6982,1.6079,1.4307,1.4243,1.4665,1.5517,1.701,1.7794,1.8008,1.8008,1.8008,2.7103,2.7931,2.8107,2.8918,2.9402,0.0,0.0,2.7947,2.7994,2.743,2.7281,2.7356,2.7645,2.7243,2.6967,2.7243,2.7123,2.692,2.6944,2.7152,2.749,2.8041,2.6618,2.5978,2.6809,2.5871,2.5111,2.4793,2.4042,2.3609,2.3675,2.3708,2.3742,2.3844,2.383,2.383,2.383,2.3456,2.3412,2.3644,2.3695,2.4079,2.4743,2.5591,2.6508,2.7548,2.7928,2.8472,2.9086,2.9086,2.9086,2.9131,2.943,2.8951,2.8062,2.7588,2.6776,2.5684,2.4994,2.3403,2.1574,2.0797,1.9843,1.8811,1.8203,1.8154,1.8133,1.7489,1.7285,1.7217,1.6724,1.6585,1.6724,1.7217,1.7445,1.7735,1.8182,1.8662,1.8896,1.8691,1.968,2.0555,2.0629,2.0645,2.0566,2.0566,2.0566,2.0789,2.1221,2.1298,2.1441,2.1962,2.2038,2.1954,2.1712,2.1062,2.0215,1.9069,1.8506,1.7464,1.5939,1.6042,1.5336,1.3745,1.4171,1.4673,1.5234,1.7531,1.8654,1.8654,1.8654,1.8654,2.709,2.8201,2.8594,2.8919,2.9678,2.9711,0.0,0.0,0.0,2.665,2.6163,2.6201,2.7118,2.6689,2.6308,2.6519,2.5817,2.5401,2.5965,2.6586,2.7209,2.7752,2.6336,2.5644,2.66,2.5607,2.4665,2.4067,2.3567,2.3611,2.4405,2.4451,2.4731,2.5398,2.5273,2.5218,2.5218,2.4619,2.4606,2.5218,2.4727,2.512,2.6323,2.6453,2.7185,2.8368,2.7814,2.8188,2.9146,2.8622,2.8412,2.8412,2.8547,2.8173,2.7509,2.6602,2.5906,2.5287,2.4394,2.2567,2.059,2.059,1.9431,1.8008,1.8008,1.8008,1.7862,1.707,1.6706,1.6428,1.5658,1.5376,1.5376,1.614,1.6349,1.6567,1.7295,1.7697,1.783,1.7508,1.8385,1.923,1.9701,2.0156,2.0469,2.0557,2.0498,2.0757,2.1649,2.1088,2.0857,2.1669,2.1078,2.042,2.0068,1.95,1.8654,1.7506,1.6808,1.5922,1.4761,1.4652,1.4205,1.3157,1.4514,1.535,1.566,1.8368,1.9619,1.953,1.9661,1.9846,2.6183,2.7017,2.6923,2.7783,2.9232,2.974,2.7012,0.0,2.8917,2.6939,0.0,2.713,2.7256,0.0,0.0,2.6428,2.4616,2.3335,2.4143,2.365,2.3992,2.6405,2.5228,2.4995,2.6995,2.6214,2.5061,2.4092,2.3947,2.4235,2.5057,2.5031,2.5146,2.5481,2.4886,2.4609,2.4609,2.4502,2.4502,2.4515,2.5025,2.538,2.5646,2.6237,2.6922,2.7679,2.7655,2.7715,2.785,2.7724,2.7679,2.7754,2.8368,2.8173,2.7408,2.6054,2.5453,2.5175,2.3754,2.2113,2.059,2.059,1.9431,1.8008,1.8008,1.8008,1.8008,1.7872,1.7207,1.6567,1.6498,1.579,1.5234,1.5305,1.5376,1.5376,1.5517,1.5551,1.5568,1.5525,1.5952,1.6958,1.8985,1.9707,2.0117,2.0508,2.0234,2.0203,2.0663,2.0634,2.0644,2.0789,2.0634,2.0547,2.0498,1.9228,1.8357,1.815,1.5847,1.3977,1.2996,1.1964,1.1254,1.1156,1.3772,1.5904,1.7302,1.9849,2.0768,2.0317,2.1088,2.181,2.3578,2.4604,2.5143,2.6982,2.8319,2.8905,2.8082,2.8641,2.8741,2.6549,0.0,0.0,0.0,0.0,0.0,0.0,2.1313,2.0661,2.0514,2.0105,2.1044,2.4091,2.4429,2.4873,2.5902,2.5744,2.4802,2.2968,2.3576,2.4365,2.5084,2.5826,2.661,2.7273,2.7004,2.6474,2.5734,2.5297,2.5075,2.5084,2.4938,2.5328,2.6164,2.6459,2.695,2.7625,2.7625,2.7799,2.8143,2.779,2.7814,2.8158,2.8053,2.7609,2.6826,2.5783,2.5119,2.4624,2.3484,2.231,2.1175,2.0204,1.8977,1.8008,1.8008,1.8008,1.7872,1.7354,1.6507,1.5649,1.5084,1.4227,1.3665,1.4171,1.3851,1.3525,1.4126,1.3782,1.3487,1.4126,1.4662,1.5463,1.7005,1.8128,1.908,2.0041,2.0029,2.0078,2.0508,2.0566,2.0566,2.0566,2.0566,2.0469,2.0215,1.9,1.7947,1.7166,1.4296,1.2142,1.1128,1.0434,1.0545,1.1582,1.4316,1.6747,1.8913,2.2218,2.4054,2.4611,2.3947,2.3983,2.0722,2.1713,2.2655,2.5091,2.6398,2.7209,2.7406,2.7786,2.7499,2.5529,2.4513,0.0,0.0,0.0,2.1293,1.9749,0.0,1.7084,1.6831,1.6661,1.7957,2.174,2.3639,2.4658,2.4664,2.4481,2.3514,2.1543,2.254,2.3733,2.5023,2.6362,2.7645,2.8861,2.8449,2.7722,2.6602,2.605,2.5639,2.5345,2.496,2.5242,2.6063,2.6422,2.6856,2.737,2.755,2.7859,2.8263,2.7575,2.7709,2.8248,2.7342,2.6718,2.6122,2.5618,2.4951,2.4176,2.3365,2.2445,2.1239,1.9497,1.8529,1.8008,1.8008,1.8008,1.7794,1.6853,1.593,1.4925,1.3848,1.2961,1.2352,1.2687,1.2247,1.182,1.229,1.1795,1.1422,1.229,1.2728,1.3252,1.4243,1.6054,1.7665,1.8741,1.8873,1.9184,1.9927,2.009,2.0245,2.0566,2.0566,2.0352,1.9726,1.8679,1.7069,1.4729,1.2296,1.0324,0.9052,0.9137,1.0089,1.2111,1.5103,1.8127,2.1105,2.454,2.6931,2.8318,2.6905,2.6609,1.803,1.855,1.9091,2.133,2.3256,2.4439,2.3787,2.4713,2.5289,2.3849,2.2393,2.1618,2.2537,2.145,2.0661,2.1347,1.6194,0.0,0.0,1.3492,1.4822,1.9729,2.2595,2.4156,2.3824,2.2225,2.0809,2.0043,2.0661,2.2237,2.4941,2.6329,2.7781,2.9495,2.8314,2.731,2.6602,2.6587,2.5881,2.4627,2.5254,2.5239,2.4686,2.6019,2.6602,2.6662,2.734,2.7625,2.761,2.6901,2.7006,2.7479,2.6112,2.5501,2.5453,2.5398,2.4951,2.4176,2.3365,2.199,2.0333,1.8596,1.8008,1.8008,1.8008,1.8008,1.7794,1.6853,1.593,1.4939,1.3637,1.2799,1.2004,1.0767,1.0674,1.0548,0.9669,0.9437,0.9362,0.9442,0.9448,0.9739,1.0662,1.3645,1.598,1.6489,1.6388,1.6835,1.8402,1.8879,1.9441,2.0489,2.0566,2.0157,1.9107,1.7971,1.5413,1.0851,0.9728,0.848,0.6649,0.772,0.9499,1.1985,1.6248,2.0268,2.4051,2.6617,2.855,2.9929,2.9617,2.9871,1.473,1.4875,1.5444,1.7988,1.9131,1.9844,2.0637,2.12,2.1161,1.9564,1.8145,1.7089,1.6976,1.6727,1.587,1.4093,1.118,0.9358,0.0,1.1897,1.4874,1.833,2.0605,2.1834,2.155,2.0292,1.8709,1.6904,1.8594,2.0787,2.3258,2.5467,2.7497,2.9253,2.8965,2.8216,2.7058,2.7042,2.6181,2.4468,2.4698,2.4726,2.4597,2.5091,2.5764,2.6602,2.6826,2.6916,2.6901,2.6677,2.6722,2.6837,2.5872,2.5434,2.5342,2.4851,2.4163,2.3484,2.3185,2.2372,2.1302,2.0074,1.9299,1.8721,1.8134,1.8008,1.7794,1.6872,1.5948,1.4925,1.3818,1.2947,1.2198,1.1726,1.0674,0.9627,0.9341,0.8138,0.7421,0.847,0.7936,0.7838,0.9523,1.0701,1.2395,1.4881,1.5241,1.5777,1.7468,1.847,1.9016,1.9062,1.9736,1.9975,1.9659,1.7456,1.4566,1.075,0.945,0.8178,0.6713,0.7744,0.9943,1.339,1.6927,2.1134,2.5856,2.6713,2.7829,2.9054,2.8343,2.8666,1.1512,1.1608,1.2305,1.4805,1.5052,1.5192,1.7288,1.7743,1.7476,1.681,1.5454,1.3842,1.1928,1.3089,1.3121,0.9376,0.7474,0.6591,0.0,1.0135,1.3033,1.529,1.7669,1.911,1.9067,1.7298,1.5447,1.3874,1.6293,1.8889,2.1403,2.4503,2.7093,2.9124,2.9131,2.8624,2.7705,2.7406,2.6582,2.516,2.4622,2.4484,2.4582,2.4582,2.5091,2.5899,2.5931,2.5923,2.5908,2.5414,2.5345,2.55,2.4713,2.4674,2.5039,2.4486,2.3508,2.2431,2.2237,2.1549,2.0608,1.989,1.9299,1.8721,1.8134,1.8008,1.7765,1.6629,1.6052,1.5309,1.3737,1.3071,1.2631,1.1793,1.0381,0.9119,0.8812,0.7395,0.6149,0.6374,0.5129,0.4496,0.5803,0.5954,0.7438,1.1763,1.2946,1.3966,1.5663,1.6949,1.7952,1.85,1.9515,1.9832,1.9034,1.6194,1.3342,1.0778,0.9035,0.7843,0.7281,0.8652,1.1169,1.4843,1.7712,2.0996,2.4872,2.434,2.3821,2.3334,2.3139,2.3815]}]]